<?xml version="1.0" encoding="UTF-8" standalone="no" ?>
<gpx xmlns="http://www.topografix.com/GPX/1/1" xmlns:xsi="http://www.w3.org/2001/XMLSchema-instance" xsi:schemaLocation="http://www.topografix.com/GPX/1/1 http://www.topografix.com/GPX/1/1/gpx.xsd" version="1.1" creator="VisuGPX - https://www.visugpx.com">
  <metadata>
    <name>ST REGIS DU COIN 6-1-2011</name>
    <desc><![CDATA[ST REGIS DU COIN 6-1-2011]]></desc>
  </metadata>
  <trk>
    <name><![CDATA[2011-01-06-02]]></name>
    <trkseg>
      <trkpt lat="45.28338" lon="4.44623">
        <ele>1065</ele>
        <time>2011-01-06T08:06:25Z</time>
      </trkpt>
      <trkpt lat="45.28341" lon="4.44626">
        <ele>1065</ele>
        <time>2011-01-06T08:06:26Z</time>
      </trkpt>
      <trkpt lat="45.28341" lon="4.44628">
        <ele>1065</ele>
        <time>2011-01-06T08:06:27Z</time>
      </trkpt>
      <trkpt lat="45.28341" lon="4.44634">
        <ele>1065</ele>
        <time>2011-01-06T08:06:33Z</time>
      </trkpt>
      <trkpt lat="45.2834" lon="4.44632">
        <ele>1065</ele>
        <time>2011-01-06T08:06:34Z</time>
      </trkpt>
      <trkpt lat="45.28348" lon="4.44637">
        <ele>1065</ele>
        <time>2011-01-06T08:07:19Z</time>
      </trkpt>
      <trkpt lat="45.28352" lon="4.44648">
        <ele>1065</ele>
        <time>2011-01-06T08:07:35Z</time>
      </trkpt>
      <trkpt lat="45.28351" lon="4.44649">
        <ele>1065</ele>
        <time>2011-01-06T08:07:36Z</time>
      </trkpt>
      <trkpt lat="45.28355" lon="4.44672">
        <ele>1065</ele>
        <time>2011-01-06T08:07:51Z</time>
      </trkpt>
      <trkpt lat="45.28359" lon="4.44681">
        <ele>1066</ele>
        <time>2011-01-06T08:08:01Z</time>
      </trkpt>
      <trkpt lat="45.2836" lon="4.44693">
        <ele>1066</ele>
        <time>2011-01-06T08:08:05Z</time>
      </trkpt>
      <trkpt lat="45.2836" lon="4.44706">
        <ele>1067</ele>
        <time>2011-01-06T08:08:09Z</time>
      </trkpt>
      <trkpt lat="45.28358" lon="4.44717">
        <ele>1067</ele>
        <time>2011-01-06T08:08:13Z</time>
      </trkpt>
      <trkpt lat="45.28356" lon="4.44729">
        <ele>1067</ele>
        <time>2011-01-06T08:08:18Z</time>
      </trkpt>
      <trkpt lat="45.28355" lon="4.4474">
        <ele>1067</ele>
        <time>2011-01-06T08:08:25Z</time>
      </trkpt>
      <trkpt lat="45.28349" lon="4.44749">
        <ele>1067</ele>
        <time>2011-01-06T08:08:34Z</time>
      </trkpt>
      <trkpt lat="45.2835" lon="4.44762">
        <ele>1071</ele>
        <time>2011-01-06T08:08:54Z</time>
      </trkpt>
      <trkpt lat="45.28351" lon="4.44763">
        <ele>1071</ele>
        <time>2011-01-06T08:08:55Z</time>
      </trkpt>
      <trkpt lat="45.28348" lon="4.44785">
        <ele>1074</ele>
        <time>2011-01-06T08:09:37Z</time>
      </trkpt>
      <trkpt lat="45.28348" lon="4.44798">
        <ele>1075</ele>
        <time>2011-01-06T08:09:49Z</time>
      </trkpt>
      <trkpt lat="45.28351" lon="4.4481">
        <ele>1076</ele>
        <time>2011-01-06T08:10:04Z</time>
      </trkpt>
      <trkpt lat="45.28351" lon="4.44811">
        <ele>1076</ele>
        <time>2011-01-06T08:10:05Z</time>
      </trkpt>
      <trkpt lat="45.28354" lon="4.44834">
        <ele>1082</ele>
        <time>2011-01-06T08:10:33Z</time>
      </trkpt>
      <trkpt lat="45.28355" lon="4.44846">
        <ele>1082</ele>
        <time>2011-01-06T08:10:46Z</time>
      </trkpt>
      <trkpt lat="45.28356" lon="4.44858">
        <ele>1083</ele>
        <time>2011-01-06T08:10:58Z</time>
      </trkpt>
      <trkpt lat="45.28356" lon="4.4487">
        <ele>1084</ele>
        <time>2011-01-06T08:11:10Z</time>
      </trkpt>
      <trkpt lat="45.28356" lon="4.4487">
        <ele>1084</ele>
        <time>2011-01-06T08:11:11Z</time>
      </trkpt>
      <trkpt lat="45.28359" lon="4.44893">
        <ele>1085</ele>
        <time>2011-01-06T08:11:34Z</time>
      </trkpt>
      <trkpt lat="45.28358" lon="4.44905">
        <ele>1086</ele>
        <time>2011-01-06T08:11:45Z</time>
      </trkpt>
      <trkpt lat="45.28361" lon="4.44917">
        <ele>1092</ele>
        <time>2011-01-06T08:12:02Z</time>
      </trkpt>
      <trkpt lat="45.28364" lon="4.44929">
        <ele>1093</ele>
        <time>2011-01-06T08:12:18Z</time>
      </trkpt>
      <trkpt lat="45.28364" lon="4.4493">
        <ele>1093</ele>
        <time>2011-01-06T08:12:19Z</time>
      </trkpt>
      <trkpt lat="45.28367" lon="4.44952">
        <ele>1095</ele>
        <time>2011-01-06T08:12:43Z</time>
      </trkpt>
      <trkpt lat="45.28366" lon="4.44963">
        <ele>1096</ele>
        <time>2011-01-06T08:12:54Z</time>
      </trkpt>
      <trkpt lat="45.28365" lon="4.44976">
        <ele>1097</ele>
        <time>2011-01-06T08:13:07Z</time>
      </trkpt>
      <trkpt lat="45.28362" lon="4.44988">
        <ele>1097</ele>
        <time>2011-01-06T08:14:11Z</time>
      </trkpt>
      <trkpt lat="45.28363" lon="4.44989">
        <ele>1097</ele>
        <time>2011-01-06T08:14:12Z</time>
      </trkpt>
      <trkpt lat="45.28352" lon="4.45007">
        <ele>1105</ele>
        <time>2011-01-06T08:14:53Z</time>
      </trkpt>
      <trkpt lat="45.28348" lon="4.45018">
        <ele>1106</ele>
        <time>2011-01-06T08:15:02Z</time>
      </trkpt>
      <trkpt lat="45.28344" lon="4.45029">
        <ele>1107</ele>
        <time>2011-01-06T08:15:09Z</time>
      </trkpt>
      <trkpt lat="45.28341" lon="4.4504">
        <ele>1109</ele>
        <time>2011-01-06T08:15:17Z</time>
      </trkpt>
      <trkpt lat="45.28341" lon="4.45041">
        <ele>1109</ele>
        <time>2011-01-06T08:15:18Z</time>
      </trkpt>
      <trkpt lat="45.28337" lon="4.45062">
        <ele>1112</ele>
        <time>2011-01-06T08:15:33Z</time>
      </trkpt>
      <trkpt lat="45.28335" lon="4.45074">
        <ele>1113</ele>
        <time>2011-01-06T08:15:40Z</time>
      </trkpt>
      <trkpt lat="45.28331" lon="4.45084">
        <ele>1114</ele>
        <time>2011-01-06T08:15:48Z</time>
      </trkpt>
      <trkpt lat="45.28328" lon="4.45095">
        <ele>1113</ele>
        <time>2011-01-06T08:15:56Z</time>
      </trkpt>
      <trkpt lat="45.28323" lon="4.45104">
        <ele>1113</ele>
        <time>2011-01-06T08:16:02Z</time>
      </trkpt>
      <trkpt lat="45.28321" lon="4.45115">
        <ele>1114</ele>
        <time>2011-01-06T08:16:10Z</time>
      </trkpt>
      <trkpt lat="45.28317" lon="4.45126">
        <ele>1115</ele>
        <time>2011-01-06T08:16:17Z</time>
      </trkpt>
      <trkpt lat="45.28317" lon="4.45127">
        <ele>1115</ele>
        <time>2011-01-06T08:16:18Z</time>
      </trkpt>
      <trkpt lat="45.2831" lon="4.45147">
        <ele>1116</ele>
        <time>2011-01-06T08:16:32Z</time>
      </trkpt>
      <trkpt lat="45.28306" lon="4.45156">
        <ele>1117</ele>
        <time>2011-01-06T08:16:39Z</time>
      </trkpt>
      <trkpt lat="45.28302" lon="4.45167">
        <ele>1123</ele>
        <time>2011-01-06T08:16:49Z</time>
      </trkpt>
      <trkpt lat="45.28296" lon="4.45177">
        <ele>1123</ele>
        <time>2011-01-06T08:17:08Z</time>
      </trkpt>
      <trkpt lat="45.28295" lon="4.45188">
        <ele>1123</ele>
        <time>2011-01-06T08:17:19Z</time>
      </trkpt>
      <trkpt lat="45.28295" lon="4.4519">
        <ele>1123</ele>
        <time>2011-01-06T08:17:20Z</time>
      </trkpt>
      <trkpt lat="45.2829" lon="4.45211">
        <ele>1124</ele>
        <time>2011-01-06T08:17:37Z</time>
      </trkpt>
      <trkpt lat="45.28285" lon="4.45221">
        <ele>1124</ele>
        <time>2011-01-06T08:17:47Z</time>
      </trkpt>
      <trkpt lat="45.28281" lon="4.45231">
        <ele>1124</ele>
        <time>2011-01-06T08:17:55Z</time>
      </trkpt>
      <trkpt lat="45.28278" lon="4.45242">
        <ele>1124</ele>
        <time>2011-01-06T08:18:04Z</time>
      </trkpt>
      <trkpt lat="45.28273" lon="4.45251">
        <ele>1129</ele>
        <time>2011-01-06T08:18:12Z</time>
      </trkpt>
      <trkpt lat="45.28269" lon="4.45262">
        <ele>1129</ele>
        <time>2011-01-06T08:18:20Z</time>
      </trkpt>
      <trkpt lat="45.28264" lon="4.45272">
        <ele>1130</ele>
        <time>2011-01-06T08:18:29Z</time>
      </trkpt>
      <trkpt lat="45.28264" lon="4.45273">
        <ele>1130</ele>
        <time>2011-01-06T08:18:30Z</time>
      </trkpt>
      <trkpt lat="45.28253" lon="4.4529">
        <ele>1132</ele>
        <time>2011-01-06T08:18:40Z</time>
      </trkpt>
      <trkpt lat="45.2825" lon="4.453">
        <ele>1125</ele>
        <time>2011-01-06T08:18:46Z</time>
      </trkpt>
      <trkpt lat="45.28245" lon="4.4531">
        <ele>1126</ele>
        <time>2011-01-06T08:18:53Z</time>
      </trkpt>
      <trkpt lat="45.28243" lon="4.45321">
        <ele>1127</ele>
        <time>2011-01-06T08:19:02Z</time>
      </trkpt>
      <trkpt lat="45.2824" lon="4.45331">
        <ele>1128</ele>
        <time>2011-01-06T08:19:09Z</time>
      </trkpt>
      <trkpt lat="45.28237" lon="4.45343">
        <ele>1130</ele>
        <time>2011-01-06T08:19:16Z</time>
      </trkpt>
      <trkpt lat="45.28235" lon="4.45355">
        <ele>1131</ele>
        <time>2011-01-06T08:19:25Z</time>
      </trkpt>
      <trkpt lat="45.28232" lon="4.45367">
        <ele>1131</ele>
        <time>2011-01-06T08:19:33Z</time>
      </trkpt>
      <trkpt lat="45.28231" lon="4.45367">
        <ele>1131</ele>
        <time>2011-01-06T08:19:34Z</time>
      </trkpt>
      <trkpt lat="45.28228" lon="4.4539">
        <ele>1132</ele>
        <time>2011-01-06T08:19:52Z</time>
      </trkpt>
      <trkpt lat="45.28227" lon="4.45402">
        <ele>1133</ele>
        <time>2011-01-06T08:20:01Z</time>
      </trkpt>
      <trkpt lat="45.28225" lon="4.45413">
        <ele>1133</ele>
        <time>2011-01-06T08:20:08Z</time>
      </trkpt>
      <trkpt lat="45.28224" lon="4.45424">
        <ele>1137</ele>
        <time>2011-01-06T08:20:15Z</time>
      </trkpt>
      <trkpt lat="45.28221" lon="4.45437">
        <ele>1137</ele>
        <time>2011-01-06T08:20:23Z</time>
      </trkpt>
      <trkpt lat="45.2822" lon="4.45449">
        <ele>1137</ele>
        <time>2011-01-06T08:20:32Z</time>
      </trkpt>
      <trkpt lat="45.28219" lon="4.45462">
        <ele>1138</ele>
        <time>2011-01-06T08:20:41Z</time>
      </trkpt>
      <trkpt lat="45.28219" lon="4.45463">
        <ele>1138</ele>
        <time>2011-01-06T08:20:42Z</time>
      </trkpt>
      <trkpt lat="45.28221" lon="4.45487">
        <ele>1139</ele>
        <time>2011-01-06T08:21:03Z</time>
      </trkpt>
      <trkpt lat="45.28225" lon="4.45497">
        <ele>1140</ele>
        <time>2011-01-06T08:21:12Z</time>
      </trkpt>
      <trkpt lat="45.28227" lon="4.45509">
        <ele>1144</ele>
        <time>2011-01-06T08:21:23Z</time>
      </trkpt>
      <trkpt lat="45.28228" lon="4.45521">
        <ele>1144</ele>
        <time>2011-01-06T08:21:35Z</time>
      </trkpt>
      <trkpt lat="45.2823" lon="4.45534">
        <ele>1144</ele>
        <time>2011-01-06T08:21:48Z</time>
      </trkpt>
      <trkpt lat="45.2823" lon="4.45535">
        <ele>1144</ele>
        <time>2011-01-06T08:21:49Z</time>
      </trkpt>
      <trkpt lat="45.28227" lon="4.45558">
        <ele>1146</ele>
        <time>2011-01-06T08:22:05Z</time>
      </trkpt>
      <trkpt lat="45.28225" lon="4.45569">
        <ele>1146</ele>
        <time>2011-01-06T08:22:11Z</time>
      </trkpt>
      <trkpt lat="45.28222" lon="4.45579">
        <ele>1146</ele>
        <time>2011-01-06T08:22:19Z</time>
      </trkpt>
      <trkpt lat="45.2822" lon="4.45591">
        <ele>1151</ele>
        <time>2011-01-06T08:22:28Z</time>
      </trkpt>
      <trkpt lat="45.28218" lon="4.45602">
        <ele>1151</ele>
        <time>2011-01-06T08:22:37Z</time>
      </trkpt>
      <trkpt lat="45.28215" lon="4.45614">
        <ele>1152</ele>
        <time>2011-01-06T08:22:45Z</time>
      </trkpt>
      <trkpt lat="45.28212" lon="4.45626">
        <ele>1152</ele>
        <time>2011-01-06T08:22:54Z</time>
      </trkpt>
      <trkpt lat="45.28212" lon="4.45627">
        <ele>1152</ele>
        <time>2011-01-06T08:22:55Z</time>
      </trkpt>
      <trkpt lat="45.28217" lon="4.45647">
        <ele>1153</ele>
        <time>2011-01-06T08:23:13Z</time>
      </trkpt>
      <trkpt lat="45.28225" lon="4.45645">
        <ele>1154</ele>
        <time>2011-01-06T08:23:23Z</time>
      </trkpt>
      <trkpt lat="45.28234" lon="4.45642">
        <ele>1154</ele>
        <time>2011-01-06T08:23:31Z</time>
      </trkpt>
      <trkpt lat="45.28242" lon="4.45641">
        <ele>1154</ele>
        <time>2011-01-06T08:23:39Z</time>
      </trkpt>
      <trkpt lat="45.28249" lon="4.45634">
        <ele>1154</ele>
        <time>2011-01-06T08:23:49Z</time>
      </trkpt>
      <trkpt lat="45.28255" lon="4.45627">
        <ele>1161</ele>
        <time>2011-01-06T08:23:56Z</time>
      </trkpt>
      <trkpt lat="45.28258" lon="4.45624">
        <ele>1161</ele>
        <time>2011-01-06T08:23:59Z</time>
      </trkpt>
      <trkpt lat="45.28267" lon="4.45609">
        <ele>1161</ele>
        <time>2011-01-06T08:24:14Z</time>
      </trkpt>
      <trkpt lat="45.28274" lon="4.45606">
        <ele>1162</ele>
        <time>2011-01-06T08:24:23Z</time>
      </trkpt>
      <trkpt lat="45.28281" lon="4.45614">
        <ele>1163</ele>
        <time>2011-01-06T08:24:32Z</time>
      </trkpt>
      <trkpt lat="45.28284" lon="4.45626">
        <ele>1164</ele>
        <time>2011-01-06T08:24:43Z</time>
      </trkpt>
      <trkpt lat="45.28285" lon="4.45637">
        <ele>1164</ele>
        <time>2011-01-06T08:24:53Z</time>
      </trkpt>
      <trkpt lat="45.28284" lon="4.45649">
        <ele>1164</ele>
        <time>2011-01-06T08:25:03Z</time>
      </trkpt>
      <trkpt lat="45.28284" lon="4.4565">
        <ele>1164</ele>
        <time>2011-01-06T08:25:04Z</time>
      </trkpt>
      <trkpt lat="45.28285" lon="4.45673">
        <ele>1168</ele>
        <time>2011-01-06T08:25:21Z</time>
      </trkpt>
      <trkpt lat="45.28287" lon="4.45685">
        <ele>1169</ele>
        <time>2011-01-06T08:25:30Z</time>
      </trkpt>
      <trkpt lat="45.28289" lon="4.45696">
        <ele>1169</ele>
        <time>2011-01-06T08:25:40Z</time>
      </trkpt>
      <trkpt lat="45.28289" lon="4.45709">
        <ele>1170</ele>
        <time>2011-01-06T08:25:50Z</time>
      </trkpt>
      <trkpt lat="45.28288" lon="4.45721">
        <ele>1171</ele>
        <time>2011-01-06T08:26:00Z</time>
      </trkpt>
      <trkpt lat="45.28287" lon="4.45733">
        <ele>1171</ele>
        <time>2011-01-06T08:26:10Z</time>
      </trkpt>
      <trkpt lat="45.28287" lon="4.45734">
        <ele>1171</ele>
        <time>2011-01-06T08:26:11Z</time>
      </trkpt>
      <trkpt lat="45.28282" lon="4.45755">
        <ele>1176</ele>
        <time>2011-01-06T08:26:26Z</time>
      </trkpt>
      <trkpt lat="45.28278" lon="4.45765">
        <ele>1176</ele>
        <time>2011-01-06T08:26:33Z</time>
      </trkpt>
      <trkpt lat="45.28273" lon="4.45775">
        <ele>1176</ele>
        <time>2011-01-06T08:26:40Z</time>
      </trkpt>
      <trkpt lat="45.28266" lon="4.4578">
        <ele>1176</ele>
        <time>2011-01-06T08:26:47Z</time>
      </trkpt>
      <trkpt lat="45.28257" lon="4.45781">
        <ele>1176</ele>
        <time>2011-01-06T08:26:57Z</time>
      </trkpt>
      <trkpt lat="45.28248" lon="4.4578">
        <ele>1173</ele>
        <time>2011-01-06T08:27:07Z</time>
      </trkpt>
      <trkpt lat="45.2824" lon="4.45779">
        <ele>1173</ele>
        <time>2011-01-06T08:27:15Z</time>
      </trkpt>
      <trkpt lat="45.28239" lon="4.45779">
        <ele>1173</ele>
        <time>2011-01-06T08:27:16Z</time>
      </trkpt>
      <trkpt lat="45.28225" lon="4.45785">
        <ele>1173</ele>
        <time>2011-01-06T08:27:31Z</time>
      </trkpt>
      <trkpt lat="45.28217" lon="4.45791">
        <ele>1174</ele>
        <time>2011-01-06T08:27:40Z</time>
      </trkpt>
      <trkpt lat="45.28209" lon="4.45796">
        <ele>1174</ele>
        <time>2011-01-06T08:27:49Z</time>
      </trkpt>
      <trkpt lat="45.28201" lon="4.45801">
        <ele>1174</ele>
        <time>2011-01-06T08:27:59Z</time>
      </trkpt>
      <trkpt lat="45.28193" lon="4.45802">
        <ele>1174</ele>
        <time>2011-01-06T08:28:08Z</time>
      </trkpt>
      <trkpt lat="45.28185" lon="4.45804">
        <ele>1174</ele>
        <time>2011-01-06T08:28:17Z</time>
      </trkpt>
      <trkpt lat="45.28184" lon="4.45804">
        <ele>1174</ele>
        <time>2011-01-06T08:28:18Z</time>
      </trkpt>
      <trkpt lat="45.28169" lon="4.45812">
        <ele>1175</ele>
        <time>2011-01-06T08:28:36Z</time>
      </trkpt>
      <trkpt lat="45.28162" lon="4.45818">
        <ele>1176</ele>
        <time>2011-01-06T08:28:44Z</time>
      </trkpt>
      <trkpt lat="45.28154" lon="4.45823">
        <ele>1176</ele>
        <time>2011-01-06T08:28:54Z</time>
      </trkpt>
      <trkpt lat="45.28148" lon="4.4583">
        <ele>1176</ele>
        <time>2011-01-06T08:29:03Z</time>
      </trkpt>
      <trkpt lat="45.28141" lon="4.45837">
        <ele>1182</ele>
        <time>2011-01-06T08:29:12Z</time>
      </trkpt>
      <trkpt lat="45.28135" lon="4.45846">
        <ele>1183</ele>
        <time>2011-01-06T08:29:20Z</time>
      </trkpt>
      <trkpt lat="45.28134" lon="4.45847">
        <ele>1183</ele>
        <time>2011-01-06T08:29:21Z</time>
      </trkpt>
      <trkpt lat="45.2812" lon="4.45858">
        <ele>1184</ele>
        <time>2011-01-06T08:29:37Z</time>
      </trkpt>
      <trkpt lat="45.28114" lon="4.45865">
        <ele>1184</ele>
        <time>2011-01-06T08:29:47Z</time>
      </trkpt>
      <trkpt lat="45.28106" lon="4.45872">
        <ele>1185</ele>
        <time>2011-01-06T08:29:57Z</time>
      </trkpt>
      <trkpt lat="45.281" lon="4.45879">
        <ele>1185</ele>
        <time>2011-01-06T08:30:07Z</time>
      </trkpt>
      <trkpt lat="45.28093" lon="4.45886">
        <ele>1186</ele>
        <time>2011-01-06T08:30:17Z</time>
      </trkpt>
      <trkpt lat="45.28086" lon="4.45893">
        <ele>1187</ele>
        <time>2011-01-06T08:30:26Z</time>
      </trkpt>
      <trkpt lat="45.28086" lon="4.45894">
        <ele>1187</ele>
        <time>2011-01-06T08:30:27Z</time>
      </trkpt>
      <trkpt lat="45.28072" lon="4.45907">
        <ele>1188</ele>
        <time>2011-01-06T08:30:45Z</time>
      </trkpt>
      <trkpt lat="45.28066" lon="4.45914">
        <ele>1188</ele>
        <time>2011-01-06T08:30:53Z</time>
      </trkpt>
      <trkpt lat="45.28059" lon="4.4592">
        <ele>1193</ele>
        <time>2011-01-06T08:31:01Z</time>
      </trkpt>
      <trkpt lat="45.28051" lon="4.45925">
        <ele>1193</ele>
        <time>2011-01-06T08:31:11Z</time>
      </trkpt>
      <trkpt lat="45.28045" lon="4.45932">
        <ele>1193</ele>
        <time>2011-01-06T08:31:20Z</time>
      </trkpt>
      <trkpt lat="45.28039" lon="4.45941">
        <ele>1194</ele>
        <time>2011-01-06T08:31:29Z</time>
      </trkpt>
      <trkpt lat="45.28038" lon="4.45942">
        <ele>1194</ele>
        <time>2011-01-06T08:31:30Z</time>
      </trkpt>
      <trkpt lat="45.28024" lon="4.45952">
        <ele>1194</ele>
        <time>2011-01-06T08:31:47Z</time>
      </trkpt>
      <trkpt lat="45.28017" lon="4.45958">
        <ele>1194</ele>
        <time>2011-01-06T08:31:55Z</time>
      </trkpt>
      <trkpt lat="45.28009" lon="4.45962">
        <ele>1195</ele>
        <time>2011-01-06T08:32:04Z</time>
      </trkpt>
      <trkpt lat="45.28001" lon="4.45967">
        <ele>1195</ele>
        <time>2011-01-06T08:32:13Z</time>
      </trkpt>
      <trkpt lat="45.27994" lon="4.45973">
        <ele>1195</ele>
        <time>2011-01-06T08:32:22Z</time>
      </trkpt>
      <trkpt lat="45.27986" lon="4.45978">
        <ele>1195</ele>
        <time>2011-01-06T08:32:32Z</time>
      </trkpt>
      <trkpt lat="45.27985" lon="4.45978">
        <ele>1195</ele>
        <time>2011-01-06T08:32:33Z</time>
      </trkpt>
      <trkpt lat="45.27971" lon="4.45989">
        <ele>1195</ele>
        <time>2011-01-06T08:32:47Z</time>
      </trkpt>
      <trkpt lat="45.27963" lon="4.45994">
        <ele>1195</ele>
        <time>2011-01-06T08:32:55Z</time>
      </trkpt>
      <trkpt lat="45.27956" lon="4.46001">
        <ele>1198</ele>
        <time>2011-01-06T08:33:03Z</time>
      </trkpt>
      <trkpt lat="45.27951" lon="4.46008">
        <ele>1198</ele>
        <time>2011-01-06T08:33:09Z</time>
      </trkpt>
      <trkpt lat="45.27945" lon="4.46018">
        <ele>1198</ele>
        <time>2011-01-06T08:33:16Z</time>
      </trkpt>
      <trkpt lat="45.2794" lon="4.46026">
        <ele>1198</ele>
        <time>2011-01-06T08:33:26Z</time>
      </trkpt>
      <trkpt lat="45.27934" lon="4.46036">
        <ele>1198</ele>
        <time>2011-01-06T08:33:35Z</time>
      </trkpt>
      <trkpt lat="45.27933" lon="4.46038">
        <ele>1198</ele>
        <time>2011-01-06T08:33:36Z</time>
      </trkpt>
      <trkpt lat="45.27923" lon="4.46056">
        <ele>1199</ele>
        <time>2011-01-06T08:33:51Z</time>
      </trkpt>
      <trkpt lat="45.27918" lon="4.46064">
        <ele>1198</ele>
        <time>2011-01-06T08:33:58Z</time>
      </trkpt>
      <trkpt lat="45.27911" lon="4.46072">
        <ele>1197</ele>
        <time>2011-01-06T08:34:06Z</time>
      </trkpt>
      <trkpt lat="45.27904" lon="4.46079">
        <ele>1197</ele>
        <time>2011-01-06T08:34:14Z</time>
      </trkpt>
      <trkpt lat="45.27897" lon="4.46086">
        <ele>1200</ele>
        <time>2011-01-06T08:34:21Z</time>
      </trkpt>
      <trkpt lat="45.27889" lon="4.4609">
        <ele>1200</ele>
        <time>2011-01-06T08:34:30Z</time>
      </trkpt>
      <trkpt lat="45.27882" lon="4.46096">
        <ele>1200</ele>
        <time>2011-01-06T08:34:41Z</time>
      </trkpt>
      <trkpt lat="45.27881" lon="4.46097">
        <ele>1200</ele>
        <time>2011-01-06T08:34:42Z</time>
      </trkpt>
      <trkpt lat="45.27866" lon="4.46106">
        <ele>1200</ele>
        <time>2011-01-06T08:34:55Z</time>
      </trkpt>
      <trkpt lat="45.27858" lon="4.46111">
        <ele>1200</ele>
        <time>2011-01-06T08:35:03Z</time>
      </trkpt>
      <trkpt lat="45.2785" lon="4.46113">
        <ele>1200</ele>
        <time>2011-01-06T08:35:11Z</time>
      </trkpt>
      <trkpt lat="45.27842" lon="4.46116">
        <ele>1201</ele>
        <time>2011-01-06T08:35:19Z</time>
      </trkpt>
      <trkpt lat="45.27834" lon="4.46119">
        <ele>1201</ele>
        <time>2011-01-06T08:35:27Z</time>
      </trkpt>
      <trkpt lat="45.27826" lon="4.46122">
        <ele>1201</ele>
        <time>2011-01-06T08:35:35Z</time>
      </trkpt>
      <trkpt lat="45.27818" lon="4.46128">
        <ele>1202</ele>
        <time>2011-01-06T08:35:43Z</time>
      </trkpt>
      <trkpt lat="45.27817" lon="4.46128">
        <ele>1202</ele>
        <time>2011-01-06T08:35:44Z</time>
      </trkpt>
      <trkpt lat="45.27819" lon="4.46138">
        <ele>1203</ele>
        <time>2011-01-06T08:36:50Z</time>
      </trkpt>
      <trkpt lat="45.27822" lon="4.46138">
        <ele>1203</ele>
        <time>2011-01-06T08:36:51Z</time>
      </trkpt>
      <trkpt lat="45.27836" lon="4.46143">
        <ele>1203</ele>
        <time>2011-01-06T08:37:21Z</time>
      </trkpt>
      <trkpt lat="45.27845" lon="4.46145">
        <ele>1203</ele>
        <time>2011-01-06T08:37:33Z</time>
      </trkpt>
      <trkpt lat="45.27853" lon="4.46148">
        <ele>1203</ele>
        <time>2011-01-06T08:37:44Z</time>
      </trkpt>
      <trkpt lat="45.27861" lon="4.46154">
        <ele>1203</ele>
        <time>2011-01-06T08:37:55Z</time>
      </trkpt>
      <trkpt lat="45.27861" lon="4.46154">
        <ele>1203</ele>
        <time>2011-01-06T08:37:56Z</time>
      </trkpt>
      <trkpt lat="45.27877" lon="4.46164">
        <ele>1203</ele>
        <time>2011-01-06T08:38:14Z</time>
      </trkpt>
      <trkpt lat="45.27885" lon="4.46169">
        <ele>1209</ele>
        <time>2011-01-06T08:38:23Z</time>
      </trkpt>
      <trkpt lat="45.27891" lon="4.46175">
        <ele>1209</ele>
        <time>2011-01-06T08:38:31Z</time>
      </trkpt>
      <trkpt lat="45.27899" lon="4.46181">
        <ele>1209</ele>
        <time>2011-01-06T08:38:39Z</time>
      </trkpt>
      <trkpt lat="45.27906" lon="4.46187">
        <ele>1209</ele>
        <time>2011-01-06T08:38:48Z</time>
      </trkpt>
      <trkpt lat="45.27914" lon="4.4619">
        <ele>1209</ele>
        <time>2011-01-06T08:38:55Z</time>
      </trkpt>
      <trkpt lat="45.27923" lon="4.46192">
        <ele>1212</ele>
        <time>2011-01-06T08:39:03Z</time>
      </trkpt>
      <trkpt lat="45.27924" lon="4.46192">
        <ele>1212</ele>
        <time>2011-01-06T08:39:04Z</time>
      </trkpt>
      <trkpt lat="45.27939" lon="4.46187">
        <ele>1213</ele>
        <time>2011-01-06T08:39:21Z</time>
      </trkpt>
      <trkpt lat="45.27946" lon="4.4618">
        <ele>1213</ele>
        <time>2011-01-06T08:39:32Z</time>
      </trkpt>
      <trkpt lat="45.27954" lon="4.46176">
        <ele>1214</ele>
        <time>2011-01-06T08:39:41Z</time>
      </trkpt>
      <trkpt lat="45.27961" lon="4.46171">
        <ele>1214</ele>
        <time>2011-01-06T08:39:48Z</time>
      </trkpt>
      <trkpt lat="45.27969" lon="4.46165">
        <ele>1209</ele>
        <time>2011-01-06T08:39:57Z</time>
      </trkpt>
      <trkpt lat="45.27976" lon="4.46162">
        <ele>1210</ele>
        <time>2011-01-06T08:40:05Z</time>
      </trkpt>
      <trkpt lat="45.27978" lon="4.46162">
        <ele>1210</ele>
        <time>2011-01-06T08:40:06Z</time>
      </trkpt>
      <trkpt lat="45.27991" lon="4.46154">
        <ele>1211</ele>
        <time>2011-01-06T08:40:18Z</time>
      </trkpt>
      <trkpt lat="45.27999" lon="4.4615">
        <ele>1211</ele>
        <time>2011-01-06T08:40:25Z</time>
      </trkpt>
      <trkpt lat="45.28006" lon="4.46146">
        <ele>1214</ele>
        <time>2011-01-06T08:40:33Z</time>
      </trkpt>
      <trkpt lat="45.28014" lon="4.46141">
        <ele>1214</ele>
        <time>2011-01-06T08:40:40Z</time>
      </trkpt>
      <trkpt lat="45.28022" lon="4.46137">
        <ele>1214</ele>
        <time>2011-01-06T08:40:48Z</time>
      </trkpt>
      <trkpt lat="45.28029" lon="4.46135">
        <ele>1213</ele>
        <time>2011-01-06T08:40:55Z</time>
      </trkpt>
      <trkpt lat="45.28037" lon="4.46136">
        <ele>1214</ele>
        <time>2011-01-06T08:41:01Z</time>
      </trkpt>
      <trkpt lat="45.28045" lon="4.46138">
        <ele>1214</ele>
        <time>2011-01-06T08:41:09Z</time>
      </trkpt>
      <trkpt lat="45.28047" lon="4.46139">
        <ele>1214</ele>
        <time>2011-01-06T08:41:10Z</time>
      </trkpt>
      <trkpt lat="45.28062" lon="4.46144">
        <ele>1215</ele>
        <time>2011-01-06T08:41:22Z</time>
      </trkpt>
      <trkpt lat="45.2807" lon="4.46146">
        <ele>1216</ele>
        <time>2011-01-06T08:41:30Z</time>
      </trkpt>
      <trkpt lat="45.28078" lon="4.46147">
        <ele>1217</ele>
        <time>2011-01-06T08:41:38Z</time>
      </trkpt>
      <trkpt lat="45.28086" lon="4.4615">
        <ele>1219</ele>
        <time>2011-01-06T08:41:48Z</time>
      </trkpt>
      <trkpt lat="45.28095" lon="4.46153">
        <ele>1219</ele>
        <time>2011-01-06T08:41:58Z</time>
      </trkpt>
      <trkpt lat="45.28104" lon="4.46155">
        <ele>1219</ele>
        <time>2011-01-06T08:42:07Z</time>
      </trkpt>
      <trkpt lat="45.28113" lon="4.46158">
        <ele>1219</ele>
        <time>2011-01-06T08:42:14Z</time>
      </trkpt>
      <trkpt lat="45.28114" lon="4.46158">
        <ele>1219</ele>
        <time>2011-01-06T08:42:15Z</time>
      </trkpt>
      <trkpt lat="45.28129" lon="4.46159">
        <ele>1219</ele>
        <time>2011-01-06T08:42:29Z</time>
      </trkpt>
      <trkpt lat="45.28137" lon="4.46161">
        <ele>1219</ele>
        <time>2011-01-06T08:42:37Z</time>
      </trkpt>
      <trkpt lat="45.28146" lon="4.46164">
        <ele>1220</ele>
        <time>2011-01-06T08:42:45Z</time>
      </trkpt>
      <trkpt lat="45.28154" lon="4.46168">
        <ele>1224</ele>
        <time>2011-01-06T08:42:54Z</time>
      </trkpt>
      <trkpt lat="45.28162" lon="4.46172">
        <ele>1224</ele>
        <time>2011-01-06T08:43:02Z</time>
      </trkpt>
      <trkpt lat="45.28169" lon="4.46178">
        <ele>1224</ele>
        <time>2011-01-06T08:43:09Z</time>
      </trkpt>
      <trkpt lat="45.28177" lon="4.46184">
        <ele>1224</ele>
        <time>2011-01-06T08:43:16Z</time>
      </trkpt>
      <trkpt lat="45.28178" lon="4.46184">
        <ele>1224</ele>
        <time>2011-01-06T08:43:17Z</time>
      </trkpt>
      <trkpt lat="45.28193" lon="4.46196">
        <ele>1225</ele>
        <time>2011-01-06T08:43:38Z</time>
      </trkpt>
      <trkpt lat="45.28199" lon="4.46204">
        <ele>1225</ele>
        <time>2011-01-06T08:43:47Z</time>
      </trkpt>
      <trkpt lat="45.28206" lon="4.46212">
        <ele>1225</ele>
        <time>2011-01-06T08:43:56Z</time>
      </trkpt>
      <trkpt lat="45.28212" lon="4.46221">
        <ele>1225</ele>
        <time>2011-01-06T08:44:06Z</time>
      </trkpt>
      <trkpt lat="45.28217" lon="4.46231">
        <ele>1226</ele>
        <time>2011-01-06T08:44:18Z</time>
      </trkpt>
      <trkpt lat="45.28218" lon="4.46231">
        <ele>1226</ele>
        <time>2011-01-06T08:44:19Z</time>
      </trkpt>
      <trkpt lat="45.28227" lon="4.46251">
        <ele>1230</ele>
        <time>2011-01-06T08:44:42Z</time>
      </trkpt>
      <trkpt lat="45.28233" lon="4.46259">
        <ele>1230</ele>
        <time>2011-01-06T08:44:51Z</time>
      </trkpt>
      <trkpt lat="45.28239" lon="4.46268">
        <ele>1230</ele>
        <time>2011-01-06T08:45:00Z</time>
      </trkpt>
      <trkpt lat="45.28244" lon="4.46276">
        <ele>1231</ele>
        <time>2011-01-06T08:45:09Z</time>
      </trkpt>
      <trkpt lat="45.2825" lon="4.46284">
        <ele>1230</ele>
        <time>2011-01-06T08:45:18Z</time>
      </trkpt>
      <trkpt lat="45.28256" lon="4.46294">
        <ele>1231</ele>
        <time>2011-01-06T08:45:28Z</time>
      </trkpt>
      <trkpt lat="45.28257" lon="4.46295">
        <ele>1231</ele>
        <time>2011-01-06T08:45:29Z</time>
      </trkpt>
      <trkpt lat="45.28266" lon="4.46315">
        <ele>1232</ele>
        <time>2011-01-06T08:45:47Z</time>
      </trkpt>
      <trkpt lat="45.28269" lon="4.46325">
        <ele>1233</ele>
        <time>2011-01-06T08:45:55Z</time>
      </trkpt>
      <trkpt lat="45.28271" lon="4.46336">
        <ele>1236</ele>
        <time>2011-01-06T08:46:03Z</time>
      </trkpt>
      <trkpt lat="45.28274" lon="4.46348">
        <ele>1236</ele>
        <time>2011-01-06T08:46:12Z</time>
      </trkpt>
      <trkpt lat="45.28277" lon="4.46359">
        <ele>1237</ele>
        <time>2011-01-06T08:46:20Z</time>
      </trkpt>
      <trkpt lat="45.2828" lon="4.46371">
        <ele>1237</ele>
        <time>2011-01-06T08:46:28Z</time>
      </trkpt>
      <trkpt lat="45.28283" lon="4.46382">
        <ele>1237</ele>
        <time>2011-01-06T08:46:36Z</time>
      </trkpt>
      <trkpt lat="45.28283" lon="4.46383">
        <ele>1237</ele>
        <time>2011-01-06T08:46:37Z</time>
      </trkpt>
      <trkpt lat="45.28288" lon="4.46405">
        <ele>1238</ele>
        <time>2011-01-06T08:46:53Z</time>
      </trkpt>
      <trkpt lat="45.28289" lon="4.46417">
        <ele>1240</ele>
        <time>2011-01-06T08:47:01Z</time>
      </trkpt>
      <trkpt lat="45.28289" lon="4.46428">
        <ele>1240</ele>
        <time>2011-01-06T08:47:08Z</time>
      </trkpt>
      <trkpt lat="45.28289" lon="4.4644">
        <ele>1240</ele>
        <time>2011-01-06T08:47:16Z</time>
      </trkpt>
      <trkpt lat="45.28286" lon="4.46452">
        <ele>1241</ele>
        <time>2011-01-06T08:47:27Z</time>
      </trkpt>
      <trkpt lat="45.28284" lon="4.46464">
        <ele>1241</ele>
        <time>2011-01-06T08:47:39Z</time>
      </trkpt>
      <trkpt lat="45.28284" lon="4.46465">
        <ele>1241</ele>
        <time>2011-01-06T08:47:40Z</time>
      </trkpt>
      <trkpt lat="45.28286" lon="4.46477">
        <ele>1241</ele>
        <time>2011-01-06T08:50:52Z</time>
      </trkpt>
      <trkpt lat="45.28301" lon="4.46484">
        <ele>1241</ele>
        <time>2011-01-06T08:51:09Z</time>
      </trkpt>
      <trkpt lat="45.28309" lon="4.46487">
        <ele>1241</ele>
        <time>2011-01-06T08:51:16Z</time>
      </trkpt>
      <trkpt lat="45.28317" lon="4.46487">
        <ele>1242</ele>
        <time>2011-01-06T08:51:25Z</time>
      </trkpt>
      <trkpt lat="45.28326" lon="4.46485">
        <ele>1242</ele>
        <time>2011-01-06T08:51:34Z</time>
      </trkpt>
      <trkpt lat="45.28334" lon="4.46484">
        <ele>1243</ele>
        <time>2011-01-06T08:51:44Z</time>
      </trkpt>
      <trkpt lat="45.28343" lon="4.46483">
        <ele>1244</ele>
        <time>2011-01-06T08:51:53Z</time>
      </trkpt>
      <trkpt lat="45.28344" lon="4.46483">
        <ele>1244</ele>
        <time>2011-01-06T08:51:54Z</time>
      </trkpt>
      <trkpt lat="45.2836" lon="4.46482">
        <ele>1244</ele>
        <time>2011-01-06T08:52:12Z</time>
      </trkpt>
      <trkpt lat="45.28368" lon="4.4648">
        <ele>1244</ele>
        <time>2011-01-06T08:52:23Z</time>
      </trkpt>
      <trkpt lat="45.28377" lon="4.46479">
        <ele>1245</ele>
        <time>2011-01-06T08:52:32Z</time>
      </trkpt>
      <trkpt lat="45.28386" lon="4.4648">
        <ele>1245</ele>
        <time>2011-01-06T08:52:43Z</time>
      </trkpt>
      <trkpt lat="45.28394" lon="4.4648">
        <ele>1246</ele>
        <time>2011-01-06T08:52:53Z</time>
      </trkpt>
      <trkpt lat="45.28403" lon="4.46482">
        <ele>1247</ele>
        <time>2011-01-06T08:53:05Z</time>
      </trkpt>
      <trkpt lat="45.28403" lon="4.46482">
        <ele>1247</ele>
        <time>2011-01-06T08:53:06Z</time>
      </trkpt>
      <trkpt lat="45.2842" lon="4.46479">
        <ele>1249</ele>
        <time>2011-01-06T08:53:25Z</time>
      </trkpt>
      <trkpt lat="45.28428" lon="4.46478">
        <ele>1249</ele>
        <time>2011-01-06T08:53:33Z</time>
      </trkpt>
      <trkpt lat="45.28436" lon="4.46478">
        <ele>1249</ele>
        <time>2011-01-06T08:53:42Z</time>
      </trkpt>
      <trkpt lat="45.28444" lon="4.46477">
        <ele>1249</ele>
        <time>2011-01-06T08:53:51Z</time>
      </trkpt>
      <trkpt lat="45.28452" lon="4.46478">
        <ele>1249</ele>
        <time>2011-01-06T08:53:58Z</time>
      </trkpt>
      <trkpt lat="45.2846" lon="4.4648">
        <ele>1249</ele>
        <time>2011-01-06T08:54:07Z</time>
      </trkpt>
      <trkpt lat="45.28461" lon="4.4648">
        <ele>1249</ele>
        <time>2011-01-06T08:54:08Z</time>
      </trkpt>
      <trkpt lat="45.28477" lon="4.46483">
        <ele>1249</ele>
        <time>2011-01-06T08:54:24Z</time>
      </trkpt>
      <trkpt lat="45.28485" lon="4.46485">
        <ele>1250</ele>
        <time>2011-01-06T08:54:30Z</time>
      </trkpt>
      <trkpt lat="45.28493" lon="4.46488">
        <ele>1250</ele>
        <time>2011-01-06T08:54:38Z</time>
      </trkpt>
      <trkpt lat="45.28502" lon="4.4649">
        <ele>1250</ele>
        <time>2011-01-06T08:54:47Z</time>
      </trkpt>
      <trkpt lat="45.2851" lon="4.46492">
        <ele>1250</ele>
        <time>2011-01-06T08:54:55Z</time>
      </trkpt>
      <trkpt lat="45.28516" lon="4.46499">
        <ele>1250</ele>
        <time>2011-01-06T08:55:02Z</time>
      </trkpt>
      <trkpt lat="45.28519" lon="4.46511">
        <ele>1253</ele>
        <time>2011-01-06T08:55:12Z</time>
      </trkpt>
      <trkpt lat="45.28519" lon="4.46512">
        <ele>1253</ele>
        <time>2011-01-06T08:55:13Z</time>
      </trkpt>
      <trkpt lat="45.28527" lon="4.46532">
        <ele>1254</ele>
        <time>2011-01-06T08:55:34Z</time>
      </trkpt>
      <trkpt lat="45.28529" lon="4.46544">
        <ele>1254</ele>
        <time>2011-01-06T08:55:44Z</time>
      </trkpt>
      <trkpt lat="45.28532" lon="4.46556">
        <ele>1255</ele>
        <time>2011-01-06T08:55:56Z</time>
      </trkpt>
      <trkpt lat="45.28534" lon="4.46568">
        <ele>1255</ele>
        <time>2011-01-06T08:56:05Z</time>
      </trkpt>
      <trkpt lat="45.28533" lon="4.4658">
        <ele>1255</ele>
        <time>2011-01-06T08:56:18Z</time>
      </trkpt>
      <trkpt lat="45.28533" lon="4.46581">
        <ele>1255</ele>
        <time>2011-01-06T08:56:19Z</time>
      </trkpt>
      <trkpt lat="45.28533" lon="4.46605">
        <ele>1259</ele>
        <time>2011-01-06T08:56:42Z</time>
      </trkpt>
      <trkpt lat="45.28532" lon="4.46617">
        <ele>1259</ele>
        <time>2011-01-06T08:56:55Z</time>
      </trkpt>
      <trkpt lat="45.28531" lon="4.46629">
        <ele>1259</ele>
        <time>2011-01-06T08:57:03Z</time>
      </trkpt>
      <trkpt lat="45.2853" lon="4.46641">
        <ele>1260</ele>
        <time>2011-01-06T08:57:10Z</time>
      </trkpt>
      <trkpt lat="45.28529" lon="4.46653">
        <ele>1260</ele>
        <time>2011-01-06T08:57:19Z</time>
      </trkpt>
      <trkpt lat="45.28529" lon="4.46654">
        <ele>1260</ele>
        <time>2011-01-06T08:57:20Z</time>
      </trkpt>
      <trkpt lat="45.28528" lon="4.46677">
        <ele>1263</ele>
        <time>2011-01-06T08:57:37Z</time>
      </trkpt>
      <trkpt lat="45.28526" lon="4.46689">
        <ele>1263</ele>
        <time>2011-01-06T08:57:47Z</time>
      </trkpt>
      <trkpt lat="45.28525" lon="4.46701">
        <ele>1263</ele>
        <time>2011-01-06T08:57:58Z</time>
      </trkpt>
      <trkpt lat="45.28523" lon="4.46713">
        <ele>1264</ele>
        <time>2011-01-06T08:58:07Z</time>
      </trkpt>
      <trkpt lat="45.28522" lon="4.46724">
        <ele>1264</ele>
        <time>2011-01-06T08:58:16Z</time>
      </trkpt>
      <trkpt lat="45.28521" lon="4.46736">
        <ele>1264</ele>
        <time>2011-01-06T08:58:25Z</time>
      </trkpt>
      <trkpt lat="45.28521" lon="4.46737">
        <ele>1264</ele>
        <time>2011-01-06T08:58:26Z</time>
      </trkpt>
      <trkpt lat="45.28519" lon="4.46761">
        <ele>1266</ele>
        <time>2011-01-06T08:58:47Z</time>
      </trkpt>
      <trkpt lat="45.28518" lon="4.46773">
        <ele>1267</ele>
        <time>2011-01-06T08:59:00Z</time>
      </trkpt>
      <trkpt lat="45.28518" lon="4.46785">
        <ele>1267</ele>
        <time>2011-01-06T08:59:11Z</time>
      </trkpt>
      <trkpt lat="45.28517" lon="4.46797">
        <ele>1268</ele>
        <time>2011-01-06T08:59:18Z</time>
      </trkpt>
      <trkpt lat="45.28516" lon="4.46809">
        <ele>1268</ele>
        <time>2011-01-06T08:59:27Z</time>
      </trkpt>
      <trkpt lat="45.28516" lon="4.4681">
        <ele>1268</ele>
        <time>2011-01-06T08:59:28Z</time>
      </trkpt>
      <trkpt lat="45.28514" lon="4.46833">
        <ele>1269</ele>
        <time>2011-01-06T08:59:47Z</time>
      </trkpt>
      <trkpt lat="45.28513" lon="4.46846">
        <ele>1269</ele>
        <time>2011-01-06T08:59:56Z</time>
      </trkpt>
      <trkpt lat="45.28511" lon="4.46858">
        <ele>1269</ele>
        <time>2011-01-06T09:00:09Z</time>
      </trkpt>
      <trkpt lat="45.28512" lon="4.4687">
        <ele>1269</ele>
        <time>2011-01-06T09:00:19Z</time>
      </trkpt>
      <trkpt lat="45.28512" lon="4.46883">
        <ele>1269</ele>
        <time>2011-01-06T09:00:28Z</time>
      </trkpt>
      <trkpt lat="45.28512" lon="4.46885">
        <ele>1269</ele>
        <time>2011-01-06T09:00:29Z</time>
      </trkpt>
      <trkpt lat="45.2851" lon="4.46905">
        <ele>1268</ele>
        <time>2011-01-06T09:00:42Z</time>
      </trkpt>
      <trkpt lat="45.28511" lon="4.46917">
        <ele>1268</ele>
        <time>2011-01-06T09:00:50Z</time>
      </trkpt>
      <trkpt lat="45.28513" lon="4.46929">
        <ele>1268</ele>
        <time>2011-01-06T09:01:00Z</time>
      </trkpt>
      <trkpt lat="45.28516" lon="4.4694">
        <ele>1268</ele>
        <time>2011-01-06T09:01:10Z</time>
      </trkpt>
      <trkpt lat="45.28519" lon="4.46952">
        <ele>1268</ele>
        <time>2011-01-06T09:01:22Z</time>
      </trkpt>
      <trkpt lat="45.28524" lon="4.46961">
        <ele>1268</ele>
        <time>2011-01-06T09:01:31Z</time>
      </trkpt>
      <trkpt lat="45.28525" lon="4.46962">
        <ele>1268</ele>
        <time>2011-01-06T09:01:32Z</time>
      </trkpt>
      <trkpt lat="45.28529" lon="4.46985">
        <ele>1268</ele>
        <time>2011-01-06T09:01:48Z</time>
      </trkpt>
      <trkpt lat="45.28532" lon="4.46997">
        <ele>1268</ele>
        <time>2011-01-06T09:01:59Z</time>
      </trkpt>
      <trkpt lat="45.28536" lon="4.47008">
        <ele>1266</ele>
        <time>2011-01-06T09:02:12Z</time>
      </trkpt>
      <trkpt lat="45.2854" lon="4.47018">
        <ele>1266</ele>
        <time>2011-01-06T09:02:24Z</time>
      </trkpt>
      <trkpt lat="45.28544" lon="4.47029">
        <ele>1267</ele>
        <time>2011-01-06T09:02:36Z</time>
      </trkpt>
      <trkpt lat="45.28545" lon="4.4703">
        <ele>1267</ele>
        <time>2011-01-06T09:02:37Z</time>
      </trkpt>
      <trkpt lat="45.28551" lon="4.47051">
        <ele>1267</ele>
        <time>2011-01-06T09:02:55Z</time>
      </trkpt>
      <trkpt lat="45.28554" lon="4.47061">
        <ele>1267</ele>
        <time>2011-01-06T09:03:03Z</time>
      </trkpt>
      <trkpt lat="45.2856" lon="4.47071">
        <ele>1268</ele>
        <time>2011-01-06T09:03:14Z</time>
      </trkpt>
      <trkpt lat="45.28562" lon="4.47082">
        <ele>1268</ele>
        <time>2011-01-06T09:03:23Z</time>
      </trkpt>
      <trkpt lat="45.28567" lon="4.47092">
        <ele>1267</ele>
        <time>2011-01-06T09:03:35Z</time>
      </trkpt>
      <trkpt lat="45.28571" lon="4.47102">
        <ele>1266</ele>
        <time>2011-01-06T09:03:43Z</time>
      </trkpt>
      <trkpt lat="45.28571" lon="4.47104">
        <ele>1266</ele>
        <time>2011-01-06T09:03:44Z</time>
      </trkpt>
      <trkpt lat="45.2858" lon="4.47123">
        <ele>1265</ele>
        <time>2011-01-06T09:04:03Z</time>
      </trkpt>
      <trkpt lat="45.28585" lon="4.47132">
        <ele>1273</ele>
        <time>2011-01-06T09:04:14Z</time>
      </trkpt>
      <trkpt lat="45.28587" lon="4.47143">
        <ele>1273</ele>
        <time>2011-01-06T09:04:24Z</time>
      </trkpt>
      <trkpt lat="45.28592" lon="4.47154">
        <ele>1272</ele>
        <time>2011-01-06T09:04:32Z</time>
      </trkpt>
      <trkpt lat="45.28594" lon="4.47166">
        <ele>1271</ele>
        <time>2011-01-06T09:04:41Z</time>
      </trkpt>
      <trkpt lat="45.28599" lon="4.47175">
        <ele>1270</ele>
        <time>2011-01-06T09:04:52Z</time>
      </trkpt>
      <trkpt lat="45.286" lon="4.47176">
        <ele>1270</ele>
        <time>2011-01-06T09:04:53Z</time>
      </trkpt>
      <trkpt lat="45.28608" lon="4.47196">
        <ele>1270</ele>
        <time>2011-01-06T09:05:28Z</time>
      </trkpt>
      <trkpt lat="45.28613" lon="4.47206">
        <ele>1270</ele>
        <time>2011-01-06T09:05:37Z</time>
      </trkpt>
      <trkpt lat="45.28617" lon="4.47216">
        <ele>1270</ele>
        <time>2011-01-06T09:05:45Z</time>
      </trkpt>
      <trkpt lat="45.28623" lon="4.47225">
        <ele>1270</ele>
        <time>2011-01-06T09:05:56Z</time>
      </trkpt>
      <trkpt lat="45.28624" lon="4.47226">
        <ele>1270</ele>
        <time>2011-01-06T09:05:57Z</time>
      </trkpt>
      <trkpt lat="45.28636" lon="4.47241">
        <ele>1270</ele>
        <time>2011-01-06T09:06:15Z</time>
      </trkpt>
      <trkpt lat="45.28642" lon="4.47249">
        <ele>1271</ele>
        <time>2011-01-06T09:06:22Z</time>
      </trkpt>
      <trkpt lat="45.28647" lon="4.47258">
        <ele>1267</ele>
        <time>2011-01-06T09:06:29Z</time>
      </trkpt>
      <trkpt lat="45.28653" lon="4.47265">
        <ele>1267</ele>
        <time>2011-01-06T09:06:36Z</time>
      </trkpt>
      <trkpt lat="45.2866" lon="4.47273">
        <ele>1266</ele>
        <time>2011-01-06T09:06:43Z</time>
      </trkpt>
      <trkpt lat="45.28666" lon="4.47281">
        <ele>1265</ele>
        <time>2011-01-06T09:06:50Z</time>
      </trkpt>
      <trkpt lat="45.28673" lon="4.47288">
        <ele>1269</ele>
        <time>2011-01-06T09:06:58Z</time>
      </trkpt>
      <trkpt lat="45.28674" lon="4.47289">
        <ele>1269</ele>
        <time>2011-01-06T09:06:59Z</time>
      </trkpt>
      <trkpt lat="45.28688" lon="4.473">
        <ele>1268</ele>
        <time>2011-01-06T09:07:14Z</time>
      </trkpt>
      <trkpt lat="45.28695" lon="4.47308">
        <ele>1268</ele>
        <time>2011-01-06T09:07:22Z</time>
      </trkpt>
      <trkpt lat="45.28703" lon="4.47314">
        <ele>1268</ele>
        <time>2011-01-06T09:07:30Z</time>
      </trkpt>
      <trkpt lat="45.2871" lon="4.47321">
        <ele>1268</ele>
        <time>2011-01-06T09:07:38Z</time>
      </trkpt>
      <trkpt lat="45.28717" lon="4.47328">
        <ele>1268</ele>
        <time>2011-01-06T09:07:47Z</time>
      </trkpt>
      <trkpt lat="45.28725" lon="4.47334">
        <ele>1262</ele>
        <time>2011-01-06T09:07:57Z</time>
      </trkpt>
      <trkpt lat="45.28732" lon="4.47338">
        <ele>1263</ele>
        <time>2011-01-06T09:08:04Z</time>
      </trkpt>
      <trkpt lat="45.28733" lon="4.47339">
        <ele>1263</ele>
        <time>2011-01-06T09:08:05Z</time>
      </trkpt>
      <trkpt lat="45.28748" lon="4.47349">
        <ele>1263</ele>
        <time>2011-01-06T09:08:23Z</time>
      </trkpt>
      <trkpt lat="45.28755" lon="4.47354">
        <ele>1263</ele>
        <time>2011-01-06T09:08:32Z</time>
      </trkpt>
      <trkpt lat="45.28763" lon="4.47358">
        <ele>1263</ele>
        <time>2011-01-06T09:08:40Z</time>
      </trkpt>
      <trkpt lat="45.28771" lon="4.47362">
        <ele>1262</ele>
        <time>2011-01-06T09:08:48Z</time>
      </trkpt>
      <trkpt lat="45.2878" lon="4.47366">
        <ele>1262</ele>
        <time>2011-01-06T09:08:55Z</time>
      </trkpt>
      <trkpt lat="45.28788" lon="4.47369">
        <ele>1262</ele>
        <time>2011-01-06T09:09:04Z</time>
      </trkpt>
      <trkpt lat="45.28797" lon="4.47372">
        <ele>1261</ele>
        <time>2011-01-06T09:09:16Z</time>
      </trkpt>
      <trkpt lat="45.28797" lon="4.47373">
        <ele>1261</ele>
        <time>2011-01-06T09:09:17Z</time>
      </trkpt>
      <trkpt lat="45.28814" lon="4.47374">
        <ele>1261</ele>
        <time>2011-01-06T09:09:41Z</time>
      </trkpt>
      <trkpt lat="45.28822" lon="4.47377">
        <ele>1261</ele>
        <time>2011-01-06T09:09:50Z</time>
      </trkpt>
      <trkpt lat="45.28829" lon="4.47382">
        <ele>1261</ele>
        <time>2011-01-06T09:09:57Z</time>
      </trkpt>
      <trkpt lat="45.28837" lon="4.47388">
        <ele>1262</ele>
        <time>2011-01-06T09:10:04Z</time>
      </trkpt>
      <trkpt lat="45.28843" lon="4.47396">
        <ele>1261</ele>
        <time>2011-01-06T09:10:12Z</time>
      </trkpt>
      <trkpt lat="45.2885" lon="4.47404">
        <ele>1261</ele>
        <time>2011-01-06T09:10:19Z</time>
      </trkpt>
      <trkpt lat="45.28851" lon="4.47405">
        <ele>1261</ele>
        <time>2011-01-06T09:10:20Z</time>
      </trkpt>
      <trkpt lat="45.28861" lon="4.4742">
        <ele>1257</ele>
        <time>2011-01-06T09:10:33Z</time>
      </trkpt>
      <trkpt lat="45.28867" lon="4.47429">
        <ele>1257</ele>
        <time>2011-01-06T09:10:40Z</time>
      </trkpt>
      <trkpt lat="45.28872" lon="4.47439">
        <ele>1257</ele>
        <time>2011-01-06T09:10:47Z</time>
      </trkpt>
      <trkpt lat="45.28877" lon="4.47448">
        <ele>1257</ele>
        <time>2011-01-06T09:10:55Z</time>
      </trkpt>
      <trkpt lat="45.28882" lon="4.47459">
        <ele>1257</ele>
        <time>2011-01-06T09:11:02Z</time>
      </trkpt>
      <trkpt lat="45.28887" lon="4.47469">
        <ele>1257</ele>
        <time>2011-01-06T09:11:09Z</time>
      </trkpt>
      <trkpt lat="45.28892" lon="4.47479">
        <ele>1257</ele>
        <time>2011-01-06T09:11:16Z</time>
      </trkpt>
      <trkpt lat="45.28896" lon="4.4749">
        <ele>1257</ele>
        <time>2011-01-06T09:11:23Z</time>
      </trkpt>
      <trkpt lat="45.28897" lon="4.47491">
        <ele>1257</ele>
        <time>2011-01-06T09:11:24Z</time>
      </trkpt>
      <trkpt lat="45.28905" lon="4.47511">
        <ele>1255</ele>
        <time>2011-01-06T09:11:38Z</time>
      </trkpt>
      <trkpt lat="45.28909" lon="4.47522">
        <ele>1255</ele>
        <time>2011-01-06T09:11:45Z</time>
      </trkpt>
      <trkpt lat="45.28913" lon="4.47532">
        <ele>1254</ele>
        <time>2011-01-06T09:11:53Z</time>
      </trkpt>
      <trkpt lat="45.28917" lon="4.47543">
        <ele>1257</ele>
        <time>2011-01-06T09:12:00Z</time>
      </trkpt>
      <trkpt lat="45.28921" lon="4.47553">
        <ele>1256</ele>
        <time>2011-01-06T09:12:08Z</time>
      </trkpt>
      <trkpt lat="45.28926" lon="4.47564">
        <ele>1256</ele>
        <time>2011-01-06T09:12:16Z</time>
      </trkpt>
      <trkpt lat="45.28932" lon="4.47572">
        <ele>1256</ele>
        <time>2011-01-06T09:12:23Z</time>
      </trkpt>
      <trkpt lat="45.28937" lon="4.47581">
        <ele>1256</ele>
        <time>2011-01-06T09:12:30Z</time>
      </trkpt>
      <trkpt lat="45.28937" lon="4.47583">
        <ele>1256</ele>
        <time>2011-01-06T09:12:31Z</time>
      </trkpt>
      <trkpt lat="45.28948" lon="4.476">
        <ele>1254</ele>
        <time>2011-01-06T09:12:47Z</time>
      </trkpt>
      <trkpt lat="45.2895" lon="4.47611">
        <ele>1254</ele>
        <time>2011-01-06T09:12:56Z</time>
      </trkpt>
      <trkpt lat="45.28952" lon="4.47623">
        <ele>1253</ele>
        <time>2011-01-06T09:13:06Z</time>
      </trkpt>
      <trkpt lat="45.28955" lon="4.47635">
        <ele>1253</ele>
        <time>2011-01-06T09:13:17Z</time>
      </trkpt>
      <trkpt lat="45.28957" lon="4.47645">
        <ele>1253</ele>
        <time>2011-01-06T09:13:24Z</time>
      </trkpt>
      <trkpt lat="45.28962" lon="4.47655">
        <ele>1253</ele>
        <time>2011-01-06T09:13:31Z</time>
      </trkpt>
      <trkpt lat="45.28963" lon="4.47656">
        <ele>1253</ele>
        <time>2011-01-06T09:13:32Z</time>
      </trkpt>
      <trkpt lat="45.28974" lon="4.47672">
        <ele>1251</ele>
        <time>2011-01-06T09:13:49Z</time>
      </trkpt>
      <trkpt lat="45.28982" lon="4.47677">
        <ele>1251</ele>
        <time>2011-01-06T09:13:57Z</time>
      </trkpt>
      <trkpt lat="45.2899" lon="4.47681">
        <ele>1251</ele>
        <time>2011-01-06T09:14:05Z</time>
      </trkpt>
      <trkpt lat="45.28998" lon="4.47687">
        <ele>1251</ele>
        <time>2011-01-06T09:14:14Z</time>
      </trkpt>
      <trkpt lat="45.29005" lon="4.47695">
        <ele>1251</ele>
        <time>2011-01-06T09:14:24Z</time>
      </trkpt>
      <trkpt lat="45.29012" lon="4.47702">
        <ele>1251</ele>
        <time>2011-01-06T09:14:31Z</time>
      </trkpt>
      <trkpt lat="45.29018" lon="4.4771">
        <ele>1250</ele>
        <time>2011-01-06T09:14:38Z</time>
      </trkpt>
      <trkpt lat="45.29019" lon="4.47711">
        <ele>1250</ele>
        <time>2011-01-06T09:14:39Z</time>
      </trkpt>
      <trkpt lat="45.29029" lon="4.47728">
        <ele>1250</ele>
        <time>2011-01-06T09:14:52Z</time>
      </trkpt>
      <trkpt lat="45.29034" lon="4.47737">
        <ele>1250</ele>
        <time>2011-01-06T09:15:00Z</time>
      </trkpt>
      <trkpt lat="45.29041" lon="4.47746">
        <ele>1249</ele>
        <time>2011-01-06T09:15:08Z</time>
      </trkpt>
      <trkpt lat="45.29047" lon="4.47753">
        <ele>1247</ele>
        <time>2011-01-06T09:15:15Z</time>
      </trkpt>
      <trkpt lat="45.29052" lon="4.47762">
        <ele>1247</ele>
        <time>2011-01-06T09:15:22Z</time>
      </trkpt>
      <trkpt lat="45.29059" lon="4.4777">
        <ele>1247</ele>
        <time>2011-01-06T09:15:30Z</time>
      </trkpt>
      <trkpt lat="45.29065" lon="4.47779">
        <ele>1247</ele>
        <time>2011-01-06T09:15:39Z</time>
      </trkpt>
      <trkpt lat="45.29065" lon="4.4778">
        <ele>1247</ele>
        <time>2011-01-06T09:15:40Z</time>
      </trkpt>
      <trkpt lat="45.29077" lon="4.47797">
        <ele>1246</ele>
        <time>2011-01-06T09:15:56Z</time>
      </trkpt>
      <trkpt lat="45.29083" lon="4.47806">
        <ele>1248</ele>
        <time>2011-01-06T09:16:04Z</time>
      </trkpt>
      <trkpt lat="45.29089" lon="4.47814">
        <ele>1247</ele>
        <time>2011-01-06T09:16:12Z</time>
      </trkpt>
      <trkpt lat="45.29096" lon="4.47821">
        <ele>1247</ele>
        <time>2011-01-06T09:16:25Z</time>
      </trkpt>
      <trkpt lat="45.29105" lon="4.47824">
        <ele>1248</ele>
        <time>2011-01-06T09:16:41Z</time>
      </trkpt>
      <trkpt lat="45.29105" lon="4.47824">
        <ele>1248</ele>
        <time>2011-01-06T09:16:42Z</time>
      </trkpt>
      <trkpt lat="45.2912" lon="4.47833">
        <ele>1248</ele>
        <time>2011-01-06T09:19:15Z</time>
      </trkpt>
      <trkpt lat="45.29122" lon="4.47833">
        <ele>1248</ele>
        <time>2011-01-06T09:19:16Z</time>
      </trkpt>
      <trkpt lat="45.29111" lon="4.47832">
        <ele>1248</ele>
        <time>2011-01-06T09:23:16Z</time>
      </trkpt>
      <trkpt lat="45.29122" lon="4.47832">
        <ele>1248</ele>
        <time>2011-01-06T09:25:55Z</time>
      </trkpt>
      <trkpt lat="45.29111" lon="4.47835">
        <ele>1246</ele>
        <time>2011-01-06T09:27:54Z</time>
      </trkpt>
      <trkpt lat="45.29105" lon="4.47857">
        <ele>1246</ele>
        <time>2011-01-06T09:28:48Z</time>
      </trkpt>
      <trkpt lat="45.29101" lon="4.47868">
        <ele>1245</ele>
        <time>2011-01-06T09:29:01Z</time>
      </trkpt>
      <trkpt lat="45.29101" lon="4.47869">
        <ele>1245</ele>
        <time>2011-01-06T09:29:02Z</time>
      </trkpt>
      <trkpt lat="45.291" lon="4.47891">
        <ele>1244</ele>
        <time>2011-01-06T09:29:25Z</time>
      </trkpt>
      <trkpt lat="45.29105" lon="4.47902">
        <ele>1244</ele>
        <time>2011-01-06T09:29:38Z</time>
      </trkpt>
      <trkpt lat="45.29106" lon="4.47915">
        <ele>1243</ele>
        <time>2011-01-06T09:29:47Z</time>
      </trkpt>
      <trkpt lat="45.29106" lon="4.47927">
        <ele>1240</ele>
        <time>2011-01-06T09:29:54Z</time>
      </trkpt>
      <trkpt lat="45.29108" lon="4.47939">
        <ele>1240</ele>
        <time>2011-01-06T09:30:01Z</time>
      </trkpt>
      <trkpt lat="45.29109" lon="4.4795">
        <ele>1239</ele>
        <time>2011-01-06T09:30:06Z</time>
      </trkpt>
      <trkpt lat="45.29109" lon="4.47952">
        <ele>1239</ele>
        <time>2011-01-06T09:30:07Z</time>
      </trkpt>
      <trkpt lat="45.29114" lon="4.47974">
        <ele>1239</ele>
        <time>2011-01-06T09:30:19Z</time>
      </trkpt>
      <trkpt lat="45.29115" lon="4.47986">
        <ele>1238</ele>
        <time>2011-01-06T09:30:29Z</time>
      </trkpt>
      <trkpt lat="45.29123" lon="4.47991">
        <ele>1238</ele>
        <time>2011-01-06T09:30:42Z</time>
      </trkpt>
      <trkpt lat="45.29132" lon="4.47992">
        <ele>1238</ele>
        <time>2011-01-06T09:30:52Z</time>
      </trkpt>
      <trkpt lat="45.2914" lon="4.47992">
        <ele>1238</ele>
        <time>2011-01-06T09:31:06Z</time>
      </trkpt>
      <trkpt lat="45.29149" lon="4.47993">
        <ele>1238</ele>
        <time>2011-01-06T09:31:15Z</time>
      </trkpt>
      <trkpt lat="45.2915" lon="4.47993">
        <ele>1238</ele>
        <time>2011-01-06T09:31:16Z</time>
      </trkpt>
      <trkpt lat="45.29166" lon="4.47994">
        <ele>1238</ele>
        <time>2011-01-06T09:31:31Z</time>
      </trkpt>
      <trkpt lat="45.29175" lon="4.47993">
        <ele>1238</ele>
        <time>2011-01-06T09:31:39Z</time>
      </trkpt>
      <trkpt lat="45.29183" lon="4.47992">
        <ele>1238</ele>
        <time>2011-01-06T09:31:49Z</time>
      </trkpt>
      <trkpt lat="45.29192" lon="4.4799">
        <ele>1238</ele>
        <time>2011-01-06T09:32:00Z</time>
      </trkpt>
      <trkpt lat="45.292" lon="4.47992">
        <ele>1238</ele>
        <time>2011-01-06T09:32:09Z</time>
      </trkpt>
      <trkpt lat="45.29209" lon="4.47994">
        <ele>1238</ele>
        <time>2011-01-06T09:32:16Z</time>
      </trkpt>
      <trkpt lat="45.2921" lon="4.47994">
        <ele>1238</ele>
        <time>2011-01-06T09:32:17Z</time>
      </trkpt>
      <trkpt lat="45.29224" lon="4.48003">
        <ele>1231</ele>
        <time>2011-01-06T09:32:34Z</time>
      </trkpt>
      <trkpt lat="45.29232" lon="4.48005">
        <ele>1231</ele>
        <time>2011-01-06T09:32:44Z</time>
      </trkpt>
      <trkpt lat="45.29241" lon="4.48007">
        <ele>1232</ele>
        <time>2011-01-06T09:32:53Z</time>
      </trkpt>
      <trkpt lat="45.29249" lon="4.48005">
        <ele>1232</ele>
        <time>2011-01-06T09:32:59Z</time>
      </trkpt>
      <trkpt lat="45.29257" lon="4.48006">
        <ele>1230</ele>
        <time>2011-01-06T09:33:09Z</time>
      </trkpt>
      <trkpt lat="45.29266" lon="4.48007">
        <ele>1227</ele>
        <time>2011-01-06T09:33:14Z</time>
      </trkpt>
      <trkpt lat="45.29274" lon="4.48006">
        <ele>1226</ele>
        <time>2011-01-06T09:33:25Z</time>
      </trkpt>
      <trkpt lat="45.29275" lon="4.48006">
        <ele>1226</ele>
        <time>2011-01-06T09:33:26Z</time>
      </trkpt>
      <trkpt lat="45.29292" lon="4.48005">
        <ele>1224</ele>
        <time>2011-01-06T09:33:44Z</time>
      </trkpt>
      <trkpt lat="45.293" lon="4.48001">
        <ele>1223</ele>
        <time>2011-01-06T09:33:58Z</time>
      </trkpt>
      <trkpt lat="45.29309" lon="4.48002">
        <ele>1222</ele>
        <time>2011-01-06T09:34:09Z</time>
      </trkpt>
      <trkpt lat="45.29317" lon="4.48007">
        <ele>1222</ele>
        <time>2011-01-06T09:34:14Z</time>
      </trkpt>
      <trkpt lat="45.29317" lon="4.48019">
        <ele>1221</ele>
        <time>2011-01-06T09:34:26Z</time>
      </trkpt>
      <trkpt lat="45.29317" lon="4.4802">
        <ele>1221</ele>
        <time>2011-01-06T09:34:27Z</time>
      </trkpt>
      <trkpt lat="45.29315" lon="4.48044">
        <ele>1220</ele>
        <time>2011-01-06T09:34:56Z</time>
      </trkpt>
      <trkpt lat="45.29315" lon="4.48056">
        <ele>1219</ele>
        <time>2011-01-06T09:35:09Z</time>
      </trkpt>
      <trkpt lat="45.29313" lon="4.48068">
        <ele>1218</ele>
        <time>2011-01-06T09:35:19Z</time>
      </trkpt>
      <trkpt lat="45.29311" lon="4.4808">
        <ele>1217</ele>
        <time>2011-01-06T09:35:25Z</time>
      </trkpt>
      <trkpt lat="45.29311" lon="4.48092">
        <ele>1211</ele>
        <time>2011-01-06T09:35:34Z</time>
      </trkpt>
      <trkpt lat="45.2931" lon="4.48093">
        <ele>1211</ele>
        <time>2011-01-06T09:35:35Z</time>
      </trkpt>
      <trkpt lat="45.29315" lon="4.48114">
        <ele>1210</ele>
        <time>2011-01-06T09:35:49Z</time>
      </trkpt>
      <trkpt lat="45.2932" lon="4.48124">
        <ele>1209</ele>
        <time>2011-01-06T09:36:00Z</time>
      </trkpt>
      <trkpt lat="45.29327" lon="4.48131">
        <ele>1208</ele>
        <time>2011-01-06T09:36:15Z</time>
      </trkpt>
      <trkpt lat="45.29336" lon="4.4813">
        <ele>1204</ele>
        <time>2011-01-06T09:36:25Z</time>
      </trkpt>
      <trkpt lat="45.29343" lon="4.48124">
        <ele>1204</ele>
        <time>2011-01-06T09:36:36Z</time>
      </trkpt>
      <trkpt lat="45.29344" lon="4.48123">
        <ele>1204</ele>
        <time>2011-01-06T09:36:37Z</time>
      </trkpt>
      <trkpt lat="45.29352" lon="4.48104">
        <ele>1205</ele>
        <time>2011-01-06T09:36:54Z</time>
      </trkpt>
      <trkpt lat="45.29357" lon="4.48094">
        <ele>1206</ele>
        <time>2011-01-06T09:37:02Z</time>
      </trkpt>
      <trkpt lat="45.29361" lon="4.48083">
        <ele>1210</ele>
        <time>2011-01-06T09:37:10Z</time>
      </trkpt>
      <trkpt lat="45.29364" lon="4.48072">
        <ele>1210</ele>
        <time>2011-01-06T09:37:19Z</time>
      </trkpt>
      <trkpt lat="45.29368" lon="4.48061">
        <ele>1210</ele>
        <time>2011-01-06T09:37:28Z</time>
      </trkpt>
      <trkpt lat="45.29373" lon="4.48051">
        <ele>1210</ele>
        <time>2011-01-06T09:37:36Z</time>
      </trkpt>
      <trkpt lat="45.29379" lon="4.48042">
        <ele>1210</ele>
        <time>2011-01-06T09:37:44Z</time>
      </trkpt>
      <trkpt lat="45.2938" lon="4.48042">
        <ele>1210</ele>
        <time>2011-01-06T09:37:45Z</time>
      </trkpt>
      <trkpt lat="45.29394" lon="4.48031">
        <ele>1209</ele>
        <time>2011-01-06T09:38:03Z</time>
      </trkpt>
      <trkpt lat="45.29399" lon="4.48021">
        <ele>1209</ele>
        <time>2011-01-06T09:38:12Z</time>
      </trkpt>
      <trkpt lat="45.29403" lon="4.48011">
        <ele>1209</ele>
        <time>2011-01-06T09:38:21Z</time>
      </trkpt>
      <trkpt lat="45.2941" lon="4.48002">
        <ele>1208</ele>
        <time>2011-01-06T09:38:30Z</time>
      </trkpt>
      <trkpt lat="45.29412" lon="4.4799">
        <ele>1211</ele>
        <time>2011-01-06T09:38:38Z</time>
      </trkpt>
      <trkpt lat="45.29416" lon="4.47979">
        <ele>1213</ele>
        <time>2011-01-06T09:38:47Z</time>
      </trkpt>
      <trkpt lat="45.29416" lon="4.47978">
        <ele>1213</ele>
        <time>2011-01-06T09:38:48Z</time>
      </trkpt>
      <trkpt lat="45.29423" lon="4.47956">
        <ele>1211</ele>
        <time>2011-01-06T09:39:08Z</time>
      </trkpt>
      <trkpt lat="45.29426" lon="4.47945">
        <ele>1211</ele>
        <time>2011-01-06T09:39:16Z</time>
      </trkpt>
      <trkpt lat="45.29429" lon="4.47934">
        <ele>1212</ele>
        <time>2011-01-06T09:39:25Z</time>
      </trkpt>
      <trkpt lat="45.29432" lon="4.47924">
        <ele>1213</ele>
        <time>2011-01-06T09:39:33Z</time>
      </trkpt>
      <trkpt lat="45.29439" lon="4.47916">
        <ele>1218</ele>
        <time>2011-01-06T09:39:43Z</time>
      </trkpt>
      <trkpt lat="45.29443" lon="4.47906">
        <ele>1218</ele>
        <time>2011-01-06T09:39:58Z</time>
      </trkpt>
      <trkpt lat="45.29444" lon="4.47905">
        <ele>1218</ele>
        <time>2011-01-06T09:39:59Z</time>
      </trkpt>
      <trkpt lat="45.29459" lon="4.47913">
        <ele>1218</ele>
        <time>2011-01-06T09:40:23Z</time>
      </trkpt>
      <trkpt lat="45.29467" lon="4.47917">
        <ele>1211</ele>
        <time>2011-01-06T09:40:35Z</time>
      </trkpt>
      <trkpt lat="45.29475" lon="4.47921">
        <ele>1211</ele>
        <time>2011-01-06T09:40:52Z</time>
      </trkpt>
      <trkpt lat="45.29483" lon="4.47927">
        <ele>1211</ele>
        <time>2011-01-06T09:41:02Z</time>
      </trkpt>
      <trkpt lat="45.29483" lon="4.47927">
        <ele>1211</ele>
        <time>2011-01-06T09:41:03Z</time>
      </trkpt>
      <trkpt lat="45.29499" lon="4.47933">
        <ele>1211</ele>
        <time>2011-01-06T09:41:24Z</time>
      </trkpt>
      <trkpt lat="45.29505" lon="4.4794">
        <ele>1208</ele>
        <time>2011-01-06T09:41:30Z</time>
      </trkpt>
      <trkpt lat="45.29512" lon="4.47947">
        <ele>1207</ele>
        <time>2011-01-06T09:41:38Z</time>
      </trkpt>
      <trkpt lat="45.2952" lon="4.47949">
        <ele>1207</ele>
        <time>2011-01-06T09:41:54Z</time>
      </trkpt>
      <trkpt lat="45.29528" lon="4.47955">
        <ele>1206</ele>
        <time>2011-01-06T09:42:06Z</time>
      </trkpt>
      <trkpt lat="45.29528" lon="4.47956">
        <ele>1206</ele>
        <time>2011-01-06T09:42:07Z</time>
      </trkpt>
      <trkpt lat="45.29542" lon="4.47965">
        <ele>1205</ele>
        <time>2011-01-06T09:42:24Z</time>
      </trkpt>
      <trkpt lat="45.29551" lon="4.47963">
        <ele>1205</ele>
        <time>2011-01-06T09:42:35Z</time>
      </trkpt>
      <trkpt lat="45.29558" lon="4.47959">
        <ele>1205</ele>
        <time>2011-01-06T09:42:49Z</time>
      </trkpt>
      <trkpt lat="45.29566" lon="4.47962">
        <ele>1205</ele>
        <time>2011-01-06T09:42:57Z</time>
      </trkpt>
      <trkpt lat="45.29572" lon="4.4797">
        <ele>1204</ele>
        <time>2011-01-06T09:43:11Z</time>
      </trkpt>
      <trkpt lat="45.29573" lon="4.47971">
        <ele>1204</ele>
        <time>2011-01-06T09:43:12Z</time>
      </trkpt>
      <trkpt lat="45.29589" lon="4.47979">
        <ele>1201</ele>
        <time>2011-01-06T09:43:28Z</time>
      </trkpt>
      <trkpt lat="45.29595" lon="4.47988">
        <ele>1201</ele>
        <time>2011-01-06T09:43:36Z</time>
      </trkpt>
      <trkpt lat="45.296" lon="4.47998">
        <ele>1201</ele>
        <time>2011-01-06T09:43:47Z</time>
      </trkpt>
      <trkpt lat="45.29603" lon="4.48009">
        <ele>1200</ele>
        <time>2011-01-06T09:44:11Z</time>
      </trkpt>
      <trkpt lat="45.29603" lon="4.48021">
        <ele>1200</ele>
        <time>2011-01-06T09:44:20Z</time>
      </trkpt>
      <trkpt lat="45.29603" lon="4.48023">
        <ele>1200</ele>
        <time>2011-01-06T09:44:21Z</time>
      </trkpt>
      <trkpt lat="45.29593" lon="4.48042">
        <ele>1200</ele>
        <time>2011-01-06T09:44:43Z</time>
      </trkpt>
      <trkpt lat="45.29586" lon="4.48049">
        <ele>1200</ele>
        <time>2011-01-06T09:44:58Z</time>
      </trkpt>
      <trkpt lat="45.29581" lon="4.48059">
        <ele>1200</ele>
        <time>2011-01-06T09:45:07Z</time>
      </trkpt>
      <trkpt lat="45.29577" lon="4.48069">
        <ele>1200</ele>
        <time>2011-01-06T09:45:15Z</time>
      </trkpt>
      <trkpt lat="45.29569" lon="4.48071">
        <ele>1200</ele>
        <time>2011-01-06T09:45:25Z</time>
      </trkpt>
      <trkpt lat="45.29568" lon="4.48072">
        <ele>1200</ele>
        <time>2011-01-06T09:45:26Z</time>
      </trkpt>
      <trkpt lat="45.29553" lon="4.48083">
        <ele>1200</ele>
        <time>2011-01-06T09:45:41Z</time>
      </trkpt>
      <trkpt lat="45.29549" lon="4.48093">
        <ele>1200</ele>
        <time>2011-01-06T09:45:50Z</time>
      </trkpt>
      <trkpt lat="45.29545" lon="4.48103">
        <ele>1200</ele>
        <time>2011-01-06T09:45:58Z</time>
      </trkpt>
      <trkpt lat="45.29538" lon="4.4811">
        <ele>1200</ele>
        <time>2011-01-06T09:46:11Z</time>
      </trkpt>
      <trkpt lat="45.29532" lon="4.48118">
        <ele>1200</ele>
        <time>2011-01-06T09:46:21Z</time>
      </trkpt>
      <trkpt lat="45.29526" lon="4.48127">
        <ele>1201</ele>
        <time>2011-01-06T09:46:28Z</time>
      </trkpt>
      <trkpt lat="45.29525" lon="4.48127">
        <ele>1201</ele>
        <time>2011-01-06T09:46:29Z</time>
      </trkpt>
      <trkpt lat="45.29511" lon="4.48137">
        <ele>1201</ele>
        <time>2011-01-06T09:46:41Z</time>
      </trkpt>
      <trkpt lat="45.29504" lon="4.48138">
        <ele>1201</ele>
        <time>2011-01-06T09:46:48Z</time>
      </trkpt>
      <trkpt lat="45.29495" lon="4.48137">
        <ele>1200</ele>
        <time>2011-01-06T09:46:56Z</time>
      </trkpt>
      <trkpt lat="45.29489" lon="4.4813">
        <ele>1200</ele>
        <time>2011-01-06T09:47:05Z</time>
      </trkpt>
      <trkpt lat="45.29482" lon="4.48122">
        <ele>1200</ele>
        <time>2011-01-06T09:47:14Z</time>
      </trkpt>
      <trkpt lat="45.29479" lon="4.4811">
        <ele>1200</ele>
        <time>2011-01-06T09:47:22Z</time>
      </trkpt>
      <trkpt lat="45.29473" lon="4.48101">
        <ele>1200</ele>
        <time>2011-01-06T09:47:30Z</time>
      </trkpt>
      <trkpt lat="45.29472" lon="4.48101">
        <ele>1200</ele>
        <time>2011-01-06T09:47:31Z</time>
      </trkpt>
      <trkpt lat="45.29458" lon="4.48088">
        <ele>1201</ele>
        <time>2011-01-06T09:47:48Z</time>
      </trkpt>
      <trkpt lat="45.2945" lon="4.48084">
        <ele>1201</ele>
        <time>2011-01-06T09:47:57Z</time>
      </trkpt>
      <trkpt lat="45.29442" lon="4.48079">
        <ele>1202</ele>
        <time>2011-01-06T09:48:05Z</time>
      </trkpt>
      <trkpt lat="45.29434" lon="4.48079">
        <ele>1202</ele>
        <time>2011-01-06T09:48:12Z</time>
      </trkpt>
      <trkpt lat="45.29426" lon="4.48081">
        <ele>1202</ele>
        <time>2011-01-06T09:48:18Z</time>
      </trkpt>
      <trkpt lat="45.29417" lon="4.48081">
        <ele>1202</ele>
        <time>2011-01-06T09:48:26Z</time>
      </trkpt>
      <trkpt lat="45.2941" lon="4.48076">
        <ele>1205</ele>
        <time>2011-01-06T09:48:34Z</time>
      </trkpt>
      <trkpt lat="45.29409" lon="4.48075">
        <ele>1205</ele>
        <time>2011-01-06T09:48:35Z</time>
      </trkpt>
      <trkpt lat="45.29398" lon="4.48058">
        <ele>1208</ele>
        <time>2011-01-06T09:48:53Z</time>
      </trkpt>
      <trkpt lat="45.29393" lon="4.48047">
        <ele>1209</ele>
        <time>2011-01-06T09:49:01Z</time>
      </trkpt>
      <trkpt lat="45.29386" lon="4.48041">
        <ele>1210</ele>
        <time>2011-01-06T09:49:11Z</time>
      </trkpt>
      <trkpt lat="45.29386" lon="4.48028">
        <ele>1210</ele>
        <time>2011-01-06T09:49:21Z</time>
      </trkpt>
      <trkpt lat="45.29388" lon="4.48017">
        <ele>1210</ele>
        <time>2011-01-06T09:49:32Z</time>
      </trkpt>
      <trkpt lat="45.29391" lon="4.48005">
        <ele>1210</ele>
        <time>2011-01-06T09:49:44Z</time>
      </trkpt>
      <trkpt lat="45.29391" lon="4.48004">
        <ele>1210</ele>
        <time>2011-01-06T09:49:45Z</time>
      </trkpt>
      <trkpt lat="45.294" lon="4.47985">
        <ele>1214</ele>
        <time>2011-01-06T09:50:07Z</time>
      </trkpt>
      <trkpt lat="45.29403" lon="4.47973">
        <ele>1215</ele>
        <time>2011-01-06T09:50:16Z</time>
      </trkpt>
      <trkpt lat="45.29407" lon="4.47962">
        <ele>1216</ele>
        <time>2011-01-06T09:50:24Z</time>
      </trkpt>
      <trkpt lat="45.29409" lon="4.47951">
        <ele>1217</ele>
        <time>2011-01-06T09:50:33Z</time>
      </trkpt>
      <trkpt lat="45.29411" lon="4.47939">
        <ele>1217</ele>
        <time>2011-01-06T09:50:42Z</time>
      </trkpt>
      <trkpt lat="45.29415" lon="4.47928">
        <ele>1217</ele>
        <time>2011-01-06T09:50:54Z</time>
      </trkpt>
      <trkpt lat="45.29415" lon="4.47926">
        <ele>1217</ele>
        <time>2011-01-06T09:50:55Z</time>
      </trkpt>
      <trkpt lat="45.2942" lon="4.47905">
        <ele>1217</ele>
        <time>2011-01-06T09:51:14Z</time>
      </trkpt>
      <trkpt lat="45.29421" lon="4.47892">
        <ele>1219</ele>
        <time>2011-01-06T09:51:22Z</time>
      </trkpt>
      <trkpt lat="45.29422" lon="4.4788">
        <ele>1220</ele>
        <time>2011-01-06T09:51:33Z</time>
      </trkpt>
      <trkpt lat="45.29425" lon="4.47869">
        <ele>1221</ele>
        <time>2011-01-06T09:51:44Z</time>
      </trkpt>
      <trkpt lat="45.29428" lon="4.47858">
        <ele>1222</ele>
        <time>2011-01-06T09:52:07Z</time>
      </trkpt>
      <trkpt lat="45.29429" lon="4.47856">
        <ele>1222</ele>
        <time>2011-01-06T09:52:08Z</time>
      </trkpt>
      <trkpt lat="45.29432" lon="4.47833">
        <ele>1227</ele>
        <time>2011-01-06T09:52:25Z</time>
      </trkpt>
      <trkpt lat="45.29435" lon="4.47823">
        <ele>1227</ele>
        <time>2011-01-06T09:52:33Z</time>
      </trkpt>
      <trkpt lat="45.29438" lon="4.47811">
        <ele>1228</ele>
        <time>2011-01-06T09:52:42Z</time>
      </trkpt>
      <trkpt lat="45.29445" lon="4.47806">
        <ele>1228</ele>
        <time>2011-01-06T09:52:50Z</time>
      </trkpt>
      <trkpt lat="45.29452" lon="4.47799">
        <ele>1228</ele>
        <time>2011-01-06T09:52:58Z</time>
      </trkpt>
      <trkpt lat="45.29456" lon="4.47788">
        <ele>1228</ele>
        <time>2011-01-06T09:53:10Z</time>
      </trkpt>
      <trkpt lat="45.29457" lon="4.47786">
        <ele>1229</ele>
        <time>2011-01-06T09:53:11Z</time>
      </trkpt>
      <trkpt lat="45.29464" lon="4.47766">
        <ele>1229</ele>
        <time>2011-01-06T09:53:33Z</time>
      </trkpt>
      <trkpt lat="45.29466" lon="4.47754">
        <ele>1229</ele>
        <time>2011-01-06T09:53:45Z</time>
      </trkpt>
      <trkpt lat="45.2947" lon="4.47743">
        <ele>1233</ele>
        <time>2011-01-06T09:53:57Z</time>
      </trkpt>
      <trkpt lat="45.29474" lon="4.47734">
        <ele>1233</ele>
        <time>2011-01-06T09:54:07Z</time>
      </trkpt>
      <trkpt lat="45.29481" lon="4.47725">
        <ele>1233</ele>
        <time>2011-01-06T09:54:17Z</time>
      </trkpt>
      <trkpt lat="45.29482" lon="4.47725">
        <ele>1233</ele>
        <time>2011-01-06T09:54:18Z</time>
      </trkpt>
      <trkpt lat="45.29493" lon="4.47709">
        <ele>1233</ele>
        <time>2011-01-06T09:54:38Z</time>
      </trkpt>
      <trkpt lat="45.29497" lon="4.47697">
        <ele>1234</ele>
        <time>2011-01-06T09:54:49Z</time>
      </trkpt>
      <trkpt lat="45.295" lon="4.47686">
        <ele>1234</ele>
        <time>2011-01-06T09:54:58Z</time>
      </trkpt>
      <trkpt lat="45.29504" lon="4.47675">
        <ele>1234</ele>
        <time>2011-01-06T09:55:07Z</time>
      </trkpt>
      <trkpt lat="45.2951" lon="4.47667">
        <ele>1234</ele>
        <time>2011-01-06T09:55:18Z</time>
      </trkpt>
      <trkpt lat="45.2951" lon="4.47666">
        <ele>1235</ele>
        <time>2011-01-06T09:55:19Z</time>
      </trkpt>
      <trkpt lat="45.29518" lon="4.47647">
        <ele>1235</ele>
        <time>2011-01-06T09:55:34Z</time>
      </trkpt>
      <trkpt lat="45.29525" lon="4.47638">
        <ele>1235</ele>
        <time>2011-01-06T09:55:43Z</time>
      </trkpt>
      <trkpt lat="45.29527" lon="4.47626">
        <ele>1235</ele>
        <time>2011-01-06T09:55:51Z</time>
      </trkpt>
      <trkpt lat="45.29531" lon="4.47616">
        <ele>1235</ele>
        <time>2011-01-06T09:55:59Z</time>
      </trkpt>
      <trkpt lat="45.29532" lon="4.47604">
        <ele>1235</ele>
        <time>2011-01-06T09:56:06Z</time>
      </trkpt>
      <trkpt lat="45.29536" lon="4.47593">
        <ele>1235</ele>
        <time>2011-01-06T09:56:15Z</time>
      </trkpt>
      <trkpt lat="45.29537" lon="4.47581">
        <ele>1238</ele>
        <time>2011-01-06T09:56:27Z</time>
      </trkpt>
      <trkpt lat="45.29538" lon="4.4758">
        <ele>1238</ele>
        <time>2011-01-06T09:56:28Z</time>
      </trkpt>
      <trkpt lat="45.29543" lon="4.47559">
        <ele>1238</ele>
        <time>2011-01-06T09:56:45Z</time>
      </trkpt>
      <trkpt lat="45.29546" lon="4.47547">
        <ele>1239</ele>
        <time>2011-01-06T09:56:54Z</time>
      </trkpt>
      <trkpt lat="45.2955" lon="4.47537">
        <ele>1239</ele>
        <time>2011-01-06T09:57:02Z</time>
      </trkpt>
      <trkpt lat="45.29555" lon="4.47526">
        <ele>1239</ele>
        <time>2011-01-06T09:57:11Z</time>
      </trkpt>
      <trkpt lat="45.29555" lon="4.47514">
        <ele>1239</ele>
        <time>2011-01-06T09:57:20Z</time>
      </trkpt>
      <trkpt lat="45.29561" lon="4.47506">
        <ele>1239</ele>
        <time>2011-01-06T09:57:29Z</time>
      </trkpt>
      <trkpt lat="45.29561" lon="4.47504">
        <ele>1239</ele>
        <time>2011-01-06T09:57:30Z</time>
      </trkpt>
      <trkpt lat="45.29573" lon="4.47489">
        <ele>1242</ele>
        <time>2011-01-06T09:57:44Z</time>
      </trkpt>
      <trkpt lat="45.29578" lon="4.47481">
        <ele>1242</ele>
        <time>2011-01-06T09:57:52Z</time>
      </trkpt>
      <trkpt lat="45.29584" lon="4.47473">
        <ele>1239</ele>
        <time>2011-01-06T09:58:02Z</time>
      </trkpt>
      <trkpt lat="45.29591" lon="4.47464">
        <ele>1239</ele>
        <time>2011-01-06T09:58:11Z</time>
      </trkpt>
      <trkpt lat="45.29599" lon="4.47458">
        <ele>1239</ele>
        <time>2011-01-06T09:58:20Z</time>
      </trkpt>
      <trkpt lat="45.29604" lon="4.47449">
        <ele>1239</ele>
        <time>2011-01-06T09:58:30Z</time>
      </trkpt>
      <trkpt lat="45.29605" lon="4.47448">
        <ele>1239</ele>
        <time>2011-01-06T09:58:31Z</time>
      </trkpt>
      <trkpt lat="45.29618" lon="4.47433">
        <ele>1239</ele>
        <time>2011-01-06T09:58:49Z</time>
      </trkpt>
      <trkpt lat="45.29624" lon="4.47424">
        <ele>1239</ele>
        <time>2011-01-06T09:58:59Z</time>
      </trkpt>
      <trkpt lat="45.2963" lon="4.4742">
        <ele>1238</ele>
        <time>2011-01-06T09:59:05Z</time>
      </trkpt>
      <trkpt lat="45.29639" lon="4.4742">
        <ele>1238</ele>
        <time>2011-01-06T09:59:50Z</time>
      </trkpt>
      <trkpt lat="45.2964" lon="4.4742">
        <ele>1238</ele>
        <time>2011-01-06T09:59:51Z</time>
      </trkpt>
      <trkpt lat="45.29624" lon="4.47406">
        <ele>1240</ele>
        <time>2011-01-06T10:00:59Z</time>
      </trkpt>
      <trkpt lat="45.29624" lon="4.47406">
        <ele>1240</ele>
        <time>2011-01-06T10:01:00Z</time>
      </trkpt>
      <trkpt lat="45.29609" lon="4.47398">
        <ele>1241</ele>
        <time>2011-01-06T10:01:26Z</time>
      </trkpt>
      <trkpt lat="45.296" lon="4.47395">
        <ele>1242</ele>
        <time>2011-01-06T10:01:37Z</time>
      </trkpt>
      <trkpt lat="45.29592" lon="4.47395">
        <ele>1242</ele>
        <time>2011-01-06T10:01:53Z</time>
      </trkpt>
      <trkpt lat="45.29585" lon="4.4739">
        <ele>1242</ele>
        <time>2011-01-06T10:02:03Z</time>
      </trkpt>
      <trkpt lat="45.29583" lon="4.47391">
        <ele>1242</ele>
        <time>2011-01-06T10:02:04Z</time>
      </trkpt>
      <trkpt lat="45.29567" lon="4.4739">
        <ele>1246</ele>
        <time>2011-01-06T10:02:21Z</time>
      </trkpt>
      <trkpt lat="45.29559" lon="4.47389">
        <ele>1246</ele>
        <time>2011-01-06T10:02:34Z</time>
      </trkpt>
      <trkpt lat="45.29551" lon="4.47382">
        <ele>1247</ele>
        <time>2011-01-06T10:02:43Z</time>
      </trkpt>
      <trkpt lat="45.29547" lon="4.47372">
        <ele>1247</ele>
        <time>2011-01-06T10:02:51Z</time>
      </trkpt>
      <trkpt lat="45.29539" lon="4.47369">
        <ele>1248</ele>
        <time>2011-01-06T10:03:03Z</time>
      </trkpt>
      <trkpt lat="45.29531" lon="4.47364">
        <ele>1248</ele>
        <time>2011-01-06T10:03:18Z</time>
      </trkpt>
      <trkpt lat="45.2953" lon="4.47364">
        <ele>1248</ele>
        <time>2011-01-06T10:03:19Z</time>
      </trkpt>
      <trkpt lat="45.29517" lon="4.47354">
        <ele>1249</ele>
        <time>2011-01-06T10:03:47Z</time>
      </trkpt>
      <trkpt lat="45.29509" lon="4.47349">
        <ele>1250</ele>
        <time>2011-01-06T10:03:59Z</time>
      </trkpt>
      <trkpt lat="45.29501" lon="4.47345">
        <ele>1251</ele>
        <time>2011-01-06T10:04:06Z</time>
      </trkpt>
      <trkpt lat="45.29492" lon="4.47345">
        <ele>1254</ele>
        <time>2011-01-06T10:04:25Z</time>
      </trkpt>
      <trkpt lat="45.29492" lon="4.47344">
        <ele>1254</ele>
        <time>2011-01-06T10:04:26Z</time>
      </trkpt>
      <trkpt lat="45.29476" lon="4.47339">
        <ele>1255</ele>
        <time>2011-01-06T10:04:51Z</time>
      </trkpt>
      <trkpt lat="45.29468" lon="4.47334">
        <ele>1255</ele>
        <time>2011-01-06T10:05:04Z</time>
      </trkpt>
      <trkpt lat="45.2946" lon="4.47335">
        <ele>1256</ele>
        <time>2011-01-06T10:05:18Z</time>
      </trkpt>
      <trkpt lat="45.29452" lon="4.47338">
        <ele>1256</ele>
        <time>2011-01-06T10:05:30Z</time>
      </trkpt>
      <trkpt lat="45.2945" lon="4.47338">
        <ele>1256</ele>
        <time>2011-01-06T10:05:31Z</time>
      </trkpt>
      <trkpt lat="45.29436" lon="4.47347">
        <ele>1257</ele>
        <time>2011-01-06T10:05:47Z</time>
      </trkpt>
      <trkpt lat="45.29429" lon="4.47353">
        <ele>1258</ele>
        <time>2011-01-06T10:05:57Z</time>
      </trkpt>
      <trkpt lat="45.29421" lon="4.47358">
        <ele>1257</ele>
        <time>2011-01-06T10:06:07Z</time>
      </trkpt>
      <trkpt lat="45.29415" lon="4.47366">
        <ele>1263</ele>
        <time>2011-01-06T10:06:16Z</time>
      </trkpt>
      <trkpt lat="45.2941" lon="4.47376">
        <ele>1262</ele>
        <time>2011-01-06T10:06:25Z</time>
      </trkpt>
      <trkpt lat="45.29404" lon="4.47384">
        <ele>1262</ele>
        <time>2011-01-06T10:06:34Z</time>
      </trkpt>
      <trkpt lat="45.29403" lon="4.47385">
        <ele>1262</ele>
        <time>2011-01-06T10:06:35Z</time>
      </trkpt>
      <trkpt lat="45.29397" lon="4.47405">
        <ele>1261</ele>
        <time>2011-01-06T10:06:51Z</time>
      </trkpt>
      <trkpt lat="45.29392" lon="4.47416">
        <ele>1261</ele>
        <time>2011-01-06T10:07:00Z</time>
      </trkpt>
      <trkpt lat="45.29385" lon="4.47423">
        <ele>1258</ele>
        <time>2011-01-06T10:07:07Z</time>
      </trkpt>
      <trkpt lat="45.29379" lon="4.47432">
        <ele>1258</ele>
        <time>2011-01-06T10:07:17Z</time>
      </trkpt>
      <trkpt lat="45.29375" lon="4.47442">
        <ele>1258</ele>
        <time>2011-01-06T10:07:25Z</time>
      </trkpt>
      <trkpt lat="45.29372" lon="4.47452">
        <ele>1258</ele>
        <time>2011-01-06T10:07:32Z</time>
      </trkpt>
      <trkpt lat="45.29367" lon="4.47462">
        <ele>1258</ele>
        <time>2011-01-06T10:07:40Z</time>
      </trkpt>
      <trkpt lat="45.29366" lon="4.47463">
        <ele>1258</ele>
        <time>2011-01-06T10:07:41Z</time>
      </trkpt>
      <trkpt lat="45.29359" lon="4.47483">
        <ele>1257</ele>
        <time>2011-01-06T10:07:57Z</time>
      </trkpt>
      <trkpt lat="45.29353" lon="4.47491">
        <ele>1258</ele>
        <time>2011-01-06T10:08:05Z</time>
      </trkpt>
      <trkpt lat="45.29346" lon="4.47499">
        <ele>1258</ele>
        <time>2011-01-06T10:08:14Z</time>
      </trkpt>
      <trkpt lat="45.29339" lon="4.47506">
        <ele>1255</ele>
        <time>2011-01-06T10:08:24Z</time>
      </trkpt>
      <trkpt lat="45.29333" lon="4.47514">
        <ele>1256</ele>
        <time>2011-01-06T10:08:31Z</time>
      </trkpt>
      <trkpt lat="45.29327" lon="4.47523">
        <ele>1256</ele>
        <time>2011-01-06T10:08:41Z</time>
      </trkpt>
      <trkpt lat="45.29326" lon="4.47524">
        <ele>1256</ele>
        <time>2011-01-06T10:08:42Z</time>
      </trkpt>
      <trkpt lat="45.29316" lon="4.47543">
        <ele>1254</ele>
        <time>2011-01-06T10:08:59Z</time>
      </trkpt>
      <trkpt lat="45.2931" lon="4.47551">
        <ele>1253</ele>
        <time>2011-01-06T10:09:12Z</time>
      </trkpt>
      <trkpt lat="45.29305" lon="4.47561">
        <ele>1253</ele>
        <time>2011-01-06T10:09:21Z</time>
      </trkpt>
      <trkpt lat="45.293" lon="4.47572">
        <ele>1253</ele>
        <time>2011-01-06T10:09:31Z</time>
      </trkpt>
      <trkpt lat="45.29295" lon="4.47581">
        <ele>1252</ele>
        <time>2011-01-06T10:09:38Z</time>
      </trkpt>
      <trkpt lat="45.29288" lon="4.4759">
        <ele>1248</ele>
        <time>2011-01-06T10:09:47Z</time>
      </trkpt>
      <trkpt lat="45.29288" lon="4.47591">
        <ele>1248</ele>
        <time>2011-01-06T10:09:48Z</time>
      </trkpt>
      <trkpt lat="45.29276" lon="4.47606">
        <ele>1248</ele>
        <time>2011-01-06T10:10:10Z</time>
      </trkpt>
      <trkpt lat="45.29268" lon="4.47605">
        <ele>1248</ele>
        <time>2011-01-06T10:11:00Z</time>
      </trkpt>
      <trkpt lat="45.29267" lon="4.47604">
        <ele>1248</ele>
        <time>2011-01-06T10:11:01Z</time>
      </trkpt>
      <trkpt lat="45.29269" lon="4.47604">
        <ele>1248</ele>
        <time>2011-01-06T10:12:03Z</time>
      </trkpt>
      <trkpt lat="45.29268" lon="4.47605">
        <ele>1248</ele>
        <time>2011-01-06T10:12:04Z</time>
      </trkpt>
      <trkpt lat="45.29254" lon="4.47618">
        <ele>1248</ele>
        <time>2011-01-06T10:12:20Z</time>
      </trkpt>
      <trkpt lat="45.29248" lon="4.47623">
        <ele>1250</ele>
        <time>2011-01-06T10:12:26Z</time>
      </trkpt>
      <trkpt lat="45.29242" lon="4.47631">
        <ele>1250</ele>
        <time>2011-01-06T10:12:33Z</time>
      </trkpt>
      <trkpt lat="45.29235" lon="4.47638">
        <ele>1250</ele>
        <time>2011-01-06T10:12:42Z</time>
      </trkpt>
      <trkpt lat="45.29228" lon="4.47646">
        <ele>1250</ele>
        <time>2011-01-06T10:12:51Z</time>
      </trkpt>
      <trkpt lat="45.29221" lon="4.47654">
        <ele>1249</ele>
        <time>2011-01-06T10:13:00Z</time>
      </trkpt>
      <trkpt lat="45.29215" lon="4.47662">
        <ele>1250</ele>
        <time>2011-01-06T10:13:08Z</time>
      </trkpt>
      <trkpt lat="45.29214" lon="4.47663">
        <ele>1250</ele>
        <time>2011-01-06T10:13:09Z</time>
      </trkpt>
      <trkpt lat="45.29203" lon="4.47677">
        <ele>1249</ele>
        <time>2011-01-06T10:13:24Z</time>
      </trkpt>
      <trkpt lat="45.29197" lon="4.47684">
        <ele>1249</ele>
        <time>2011-01-06T10:13:32Z</time>
      </trkpt>
      <trkpt lat="45.29192" lon="4.47693">
        <ele>1249</ele>
        <time>2011-01-06T10:13:37Z</time>
      </trkpt>
      <trkpt lat="45.29185" lon="4.47701">
        <ele>1249</ele>
        <time>2011-01-06T10:13:46Z</time>
      </trkpt>
      <trkpt lat="45.29179" lon="4.47709">
        <ele>1249</ele>
        <time>2011-01-06T10:13:54Z</time>
      </trkpt>
      <trkpt lat="45.29173" lon="4.47716">
        <ele>1249</ele>
        <time>2011-01-06T10:14:02Z</time>
      </trkpt>
      <trkpt lat="45.29167" lon="4.47725">
        <ele>1249</ele>
        <time>2011-01-06T10:14:11Z</time>
      </trkpt>
      <trkpt lat="45.29166" lon="4.47726">
        <ele>1250</ele>
        <time>2011-01-06T10:14:12Z</time>
      </trkpt>
      <trkpt lat="45.29155" lon="4.47741">
        <ele>1250</ele>
        <time>2011-01-06T10:14:26Z</time>
      </trkpt>
      <trkpt lat="45.29148" lon="4.47749">
        <ele>1250</ele>
        <time>2011-01-06T10:14:33Z</time>
      </trkpt>
      <trkpt lat="45.29142" lon="4.47757">
        <ele>1249</ele>
        <time>2011-01-06T10:14:41Z</time>
      </trkpt>
      <trkpt lat="45.29136" lon="4.47765">
        <ele>1249</ele>
        <time>2011-01-06T10:14:49Z</time>
      </trkpt>
      <trkpt lat="45.2913" lon="4.47773">
        <ele>1249</ele>
        <time>2011-01-06T10:14:57Z</time>
      </trkpt>
      <trkpt lat="45.29125" lon="4.47784">
        <ele>1249</ele>
        <time>2011-01-06T10:15:02Z</time>
      </trkpt>
      <trkpt lat="45.29123" lon="4.47796">
        <ele>1248</ele>
        <time>2011-01-06T10:15:10Z</time>
      </trkpt>
      <trkpt lat="45.29119" lon="4.47806">
        <ele>1248</ele>
        <time>2011-01-06T10:15:19Z</time>
      </trkpt>
      <trkpt lat="45.29119" lon="4.47808">
        <ele>1248</ele>
        <time>2011-01-06T10:15:20Z</time>
      </trkpt>
      <trkpt lat="45.29106" lon="4.47822">
        <ele>1248</ele>
        <time>2011-01-06T10:15:36Z</time>
      </trkpt>
      <trkpt lat="45.29101" lon="4.47824">
        <ele>1247</ele>
        <time>2011-01-06T10:15:41Z</time>
      </trkpt>
      <trkpt lat="45.29096" lon="4.47832">
        <ele>1247</ele>
        <time>2011-01-06T10:15:43Z</time>
      </trkpt>
      <trkpt lat="45.29092" lon="4.47839">
        <ele>1246</ele>
        <time>2011-01-06T10:15:46Z</time>
      </trkpt>
      <trkpt lat="45.29084" lon="4.47844">
        <ele>1246</ele>
        <time>2011-01-06T10:15:54Z</time>
      </trkpt>
      <trkpt lat="45.29077" lon="4.47839">
        <ele>1245</ele>
        <time>2011-01-06T10:16:01Z</time>
      </trkpt>
      <trkpt lat="45.29072" lon="4.47828">
        <ele>1246</ele>
        <time>2011-01-06T10:16:07Z</time>
      </trkpt>
      <trkpt lat="45.29068" lon="4.47817">
        <ele>1246</ele>
        <time>2011-01-06T10:16:14Z</time>
      </trkpt>
      <trkpt lat="45.29065" lon="4.47806">
        <ele>1246</ele>
        <time>2011-01-06T10:16:21Z</time>
      </trkpt>
      <trkpt lat="45.29064" lon="4.47805">
        <ele>1246</ele>
        <time>2011-01-06T10:16:22Z</time>
      </trkpt>
      <trkpt lat="45.29055" lon="4.47787">
        <ele>1246</ele>
        <time>2011-01-06T10:16:37Z</time>
      </trkpt>
      <trkpt lat="45.29051" lon="4.47777">
        <ele>1247</ele>
        <time>2011-01-06T10:16:45Z</time>
      </trkpt>
      <trkpt lat="45.29045" lon="4.47768">
        <ele>1247</ele>
        <time>2011-01-06T10:16:52Z</time>
      </trkpt>
      <trkpt lat="45.2904" lon="4.47759">
        <ele>1247</ele>
        <time>2011-01-06T10:17:00Z</time>
      </trkpt>
      <trkpt lat="45.29034" lon="4.4775">
        <ele>1247</ele>
        <time>2011-01-06T10:17:08Z</time>
      </trkpt>
      <trkpt lat="45.29028" lon="4.47742">
        <ele>1249</ele>
        <time>2011-01-06T10:17:16Z</time>
      </trkpt>
      <trkpt lat="45.29024" lon="4.47732">
        <ele>1250</ele>
        <time>2011-01-06T10:17:24Z</time>
      </trkpt>
      <trkpt lat="45.29023" lon="4.47731">
        <ele>1250</ele>
        <time>2011-01-06T10:17:25Z</time>
      </trkpt>
      <trkpt lat="45.29013" lon="4.47714">
        <ele>1250</ele>
        <time>2011-01-06T10:17:40Z</time>
      </trkpt>
      <trkpt lat="45.29007" lon="4.47705">
        <ele>1250</ele>
        <time>2011-01-06T10:17:47Z</time>
      </trkpt>
      <trkpt lat="45.29001" lon="4.47698">
        <ele>1251</ele>
        <time>2011-01-06T10:17:54Z</time>
      </trkpt>
      <trkpt lat="45.28994" lon="4.47692">
        <ele>1251</ele>
        <time>2011-01-06T10:18:02Z</time>
      </trkpt>
      <trkpt lat="45.28987" lon="4.47686">
        <ele>1251</ele>
        <time>2011-01-06T10:18:12Z</time>
      </trkpt>
      <trkpt lat="45.28979" lon="4.47681">
        <ele>1251</ele>
        <time>2011-01-06T10:18:21Z</time>
      </trkpt>
      <trkpt lat="45.28971" lon="4.47676">
        <ele>1251</ele>
        <time>2011-01-06T10:18:32Z</time>
      </trkpt>
      <trkpt lat="45.2897" lon="4.47675">
        <ele>1251</ele>
        <time>2011-01-06T10:18:33Z</time>
      </trkpt>
      <trkpt lat="45.28959" lon="4.47662">
        <ele>1253</ele>
        <time>2011-01-06T10:18:50Z</time>
      </trkpt>
      <trkpt lat="45.28954" lon="4.47652">
        <ele>1253</ele>
        <time>2011-01-06T10:18:57Z</time>
      </trkpt>
      <trkpt lat="45.28951" lon="4.47641">
        <ele>1253</ele>
        <time>2011-01-06T10:19:07Z</time>
      </trkpt>
      <trkpt lat="45.2895" lon="4.47629">
        <ele>1253</ele>
        <time>2011-01-06T10:19:15Z</time>
      </trkpt>
      <trkpt lat="45.28949" lon="4.47617">
        <ele>1254</ele>
        <time>2011-01-06T10:19:25Z</time>
      </trkpt>
      <trkpt lat="45.28945" lon="4.47607">
        <ele>1254</ele>
        <time>2011-01-06T10:19:34Z</time>
      </trkpt>
      <trkpt lat="45.28944" lon="4.47606">
        <ele>1254</ele>
        <time>2011-01-06T10:19:35Z</time>
      </trkpt>
      <trkpt lat="45.28935" lon="4.47588">
        <ele>1254</ele>
        <time>2011-01-06T10:19:49Z</time>
      </trkpt>
      <trkpt lat="45.2893" lon="4.47578">
        <ele>1255</ele>
        <time>2011-01-06T10:19:56Z</time>
      </trkpt>
      <trkpt lat="45.28925" lon="4.47569">
        <ele>1255</ele>
        <time>2011-01-06T10:20:03Z</time>
      </trkpt>
      <trkpt lat="45.2892" lon="4.47559">
        <ele>1256</ele>
        <time>2011-01-06T10:20:11Z</time>
      </trkpt>
      <trkpt lat="45.28915" lon="4.47548">
        <ele>1253</ele>
        <time>2011-01-06T10:20:19Z</time>
      </trkpt>
      <trkpt lat="45.28911" lon="4.47538">
        <ele>1254</ele>
        <time>2011-01-06T10:20:26Z</time>
      </trkpt>
      <trkpt lat="45.28907" lon="4.47527">
        <ele>1254</ele>
        <time>2011-01-06T10:20:34Z</time>
      </trkpt>
      <trkpt lat="45.28902" lon="4.47516">
        <ele>1255</ele>
        <time>2011-01-06T10:20:42Z</time>
      </trkpt>
      <trkpt lat="45.28902" lon="4.47515">
        <ele>1255</ele>
        <time>2011-01-06T10:20:43Z</time>
      </trkpt>
      <trkpt lat="45.28894" lon="4.47496">
        <ele>1257</ele>
        <time>2011-01-06T10:20:57Z</time>
      </trkpt>
      <trkpt lat="45.28889" lon="4.47487">
        <ele>1256</ele>
        <time>2011-01-06T10:21:04Z</time>
      </trkpt>
      <trkpt lat="45.28885" lon="4.47477">
        <ele>1256</ele>
        <time>2011-01-06T10:21:11Z</time>
      </trkpt>
      <trkpt lat="45.28881" lon="4.47467">
        <ele>1256</ele>
        <time>2011-01-06T10:21:18Z</time>
      </trkpt>
      <trkpt lat="45.28877" lon="4.47458">
        <ele>1257</ele>
        <time>2011-01-06T10:21:25Z</time>
      </trkpt>
      <trkpt lat="45.28872" lon="4.47448">
        <ele>1257</ele>
        <time>2011-01-06T10:21:33Z</time>
      </trkpt>
      <trkpt lat="45.28867" lon="4.47438">
        <ele>1257</ele>
        <time>2011-01-06T10:21:41Z</time>
      </trkpt>
      <trkpt lat="45.28862" lon="4.47427">
        <ele>1257</ele>
        <time>2011-01-06T10:21:51Z</time>
      </trkpt>
      <trkpt lat="45.28862" lon="4.47426">
        <ele>1257</ele>
        <time>2011-01-06T10:21:52Z</time>
      </trkpt>
      <trkpt lat="45.2885" lon="4.4741">
        <ele>1260</ele>
        <time>2011-01-06T10:22:08Z</time>
      </trkpt>
      <trkpt lat="45.28843" lon="4.47402">
        <ele>1260</ele>
        <time>2011-01-06T10:22:16Z</time>
      </trkpt>
      <trkpt lat="45.28836" lon="4.47395">
        <ele>1261</ele>
        <time>2011-01-06T10:22:25Z</time>
      </trkpt>
      <trkpt lat="45.28829" lon="4.47389">
        <ele>1260</ele>
        <time>2011-01-06T10:22:33Z</time>
      </trkpt>
      <trkpt lat="45.28821" lon="4.47384">
        <ele>1260</ele>
        <time>2011-01-06T10:22:42Z</time>
      </trkpt>
      <trkpt lat="45.28813" lon="4.47381">
        <ele>1261</ele>
        <time>2011-01-06T10:22:50Z</time>
      </trkpt>
      <trkpt lat="45.28805" lon="4.47378">
        <ele>1261</ele>
        <time>2011-01-06T10:22:58Z</time>
      </trkpt>
      <trkpt lat="45.28804" lon="4.47378">
        <ele>1261</ele>
        <time>2011-01-06T10:22:59Z</time>
      </trkpt>
      <trkpt lat="45.28789" lon="4.47372">
        <ele>1261</ele>
        <time>2011-01-06T10:23:13Z</time>
      </trkpt>
      <trkpt lat="45.2878" lon="4.47368">
        <ele>1262</ele>
        <time>2011-01-06T10:23:22Z</time>
      </trkpt>
      <trkpt lat="45.28772" lon="4.47364">
        <ele>1262</ele>
        <time>2011-01-06T10:23:30Z</time>
      </trkpt>
      <trkpt lat="45.28764" lon="4.47361">
        <ele>1262</ele>
        <time>2011-01-06T10:23:38Z</time>
      </trkpt>
      <trkpt lat="45.28755" lon="4.47359">
        <ele>1263</ele>
        <time>2011-01-06T10:23:48Z</time>
      </trkpt>
      <trkpt lat="45.28748" lon="4.47354">
        <ele>1262</ele>
        <time>2011-01-06T10:23:57Z</time>
      </trkpt>
      <trkpt lat="45.28739" lon="4.47351">
        <ele>1262</ele>
        <time>2011-01-06T10:24:05Z</time>
      </trkpt>
      <trkpt lat="45.28739" lon="4.4735">
        <ele>1262</ele>
        <time>2011-01-06T10:24:06Z</time>
      </trkpt>
      <trkpt lat="45.28724" lon="4.4734">
        <ele>1262</ele>
        <time>2011-01-06T10:24:26Z</time>
      </trkpt>
      <trkpt lat="45.28716" lon="4.47334">
        <ele>1262</ele>
        <time>2011-01-06T10:24:37Z</time>
      </trkpt>
      <trkpt lat="45.28709" lon="4.47327">
        <ele>1267</ele>
        <time>2011-01-06T10:24:48Z</time>
      </trkpt>
      <trkpt lat="45.28702" lon="4.47322">
        <ele>1267</ele>
        <time>2011-01-06T10:24:58Z</time>
      </trkpt>
      <trkpt lat="45.28695" lon="4.47316">
        <ele>1267</ele>
        <time>2011-01-06T10:25:07Z</time>
      </trkpt>
      <trkpt lat="45.28694" lon="4.47315">
        <ele>1267</ele>
        <time>2011-01-06T10:25:08Z</time>
      </trkpt>
      <trkpt lat="45.2868" lon="4.47303">
        <ele>1268</ele>
        <time>2011-01-06T10:25:24Z</time>
      </trkpt>
      <trkpt lat="45.28673" lon="4.47296">
        <ele>1268</ele>
        <time>2011-01-06T10:25:31Z</time>
      </trkpt>
      <trkpt lat="45.28666" lon="4.47289">
        <ele>1265</ele>
        <time>2011-01-06T10:25:38Z</time>
      </trkpt>
      <trkpt lat="45.28659" lon="4.47283">
        <ele>1265</ele>
        <time>2011-01-06T10:25:45Z</time>
      </trkpt>
      <trkpt lat="45.28653" lon="4.47276">
        <ele>1265</ele>
        <time>2011-01-06T10:25:52Z</time>
      </trkpt>
      <trkpt lat="45.28647" lon="4.47268">
        <ele>1266</ele>
        <time>2011-01-06T10:25:59Z</time>
      </trkpt>
      <trkpt lat="45.28641" lon="4.4726">
        <ele>1266</ele>
        <time>2011-01-06T10:26:06Z</time>
      </trkpt>
      <trkpt lat="45.28635" lon="4.47252">
        <ele>1265</ele>
        <time>2011-01-06T10:26:13Z</time>
      </trkpt>
      <trkpt lat="45.28634" lon="4.47251">
        <ele>1265</ele>
        <time>2011-01-06T10:26:14Z</time>
      </trkpt>
      <trkpt lat="45.28623" lon="4.47235">
        <ele>1270</ele>
        <time>2011-01-06T10:26:26Z</time>
      </trkpt>
      <trkpt lat="45.28617" lon="4.47226">
        <ele>1270</ele>
        <time>2011-01-06T10:26:35Z</time>
      </trkpt>
      <trkpt lat="45.28612" lon="4.47216">
        <ele>1270</ele>
        <time>2011-01-06T10:26:43Z</time>
      </trkpt>
      <trkpt lat="45.28607" lon="4.47206">
        <ele>1270</ele>
        <time>2011-01-06T10:26:51Z</time>
      </trkpt>
      <trkpt lat="45.28602" lon="4.47196">
        <ele>1270</ele>
        <time>2011-01-06T10:27:01Z</time>
      </trkpt>
      <trkpt lat="45.28599" lon="4.47185">
        <ele>1270</ele>
        <time>2011-01-06T10:27:10Z</time>
      </trkpt>
      <trkpt lat="45.28595" lon="4.47174">
        <ele>1270</ele>
        <time>2011-01-06T10:27:19Z</time>
      </trkpt>
      <trkpt lat="45.28595" lon="4.47172">
        <ele>1270</ele>
        <time>2011-01-06T10:27:20Z</time>
      </trkpt>
      <trkpt lat="45.28589" lon="4.47152">
        <ele>1272</ele>
        <time>2011-01-06T10:27:39Z</time>
      </trkpt>
      <trkpt lat="45.28584" lon="4.47142">
        <ele>1273</ele>
        <time>2011-01-06T10:27:47Z</time>
      </trkpt>
      <trkpt lat="45.28579" lon="4.47131">
        <ele>1265</ele>
        <time>2011-01-06T10:27:56Z</time>
      </trkpt>
      <trkpt lat="45.28575" lon="4.47121">
        <ele>1265</ele>
        <time>2011-01-06T10:28:03Z</time>
      </trkpt>
      <trkpt lat="45.2857" lon="4.4711">
        <ele>1265</ele>
        <time>2011-01-06T10:28:13Z</time>
      </trkpt>
      <trkpt lat="45.28566" lon="4.47099">
        <ele>1266</ele>
        <time>2011-01-06T10:28:22Z</time>
      </trkpt>
      <trkpt lat="45.28565" lon="4.47098">
        <ele>1266</ele>
        <time>2011-01-06T10:28:23Z</time>
      </trkpt>
      <trkpt lat="45.28559" lon="4.47077">
        <ele>1268</ele>
        <time>2011-01-06T10:28:40Z</time>
      </trkpt>
      <trkpt lat="45.28554" lon="4.47067">
        <ele>1267</ele>
        <time>2011-01-06T10:28:49Z</time>
      </trkpt>
      <trkpt lat="45.28549" lon="4.47057">
        <ele>1266</ele>
        <time>2011-01-06T10:28:56Z</time>
      </trkpt>
      <trkpt lat="45.28544" lon="4.47046">
        <ele>1266</ele>
        <time>2011-01-06T10:29:04Z</time>
      </trkpt>
      <trkpt lat="45.28541" lon="4.47035">
        <ele>1266</ele>
        <time>2011-01-06T10:29:14Z</time>
      </trkpt>
      <trkpt lat="45.28538" lon="4.47025">
        <ele>1266</ele>
        <time>2011-01-06T10:29:23Z</time>
      </trkpt>
      <trkpt lat="45.28537" lon="4.47023">
        <ele>1266</ele>
        <time>2011-01-06T10:29:24Z</time>
      </trkpt>
      <trkpt lat="45.28532" lon="4.47002">
        <ele>1266</ele>
        <time>2011-01-06T10:29:42Z</time>
      </trkpt>
      <trkpt lat="45.28527" lon="4.46991">
        <ele>1267</ele>
        <time>2011-01-06T10:29:50Z</time>
      </trkpt>
      <trkpt lat="45.28523" lon="4.4698">
        <ele>1267</ele>
        <time>2011-01-06T10:29:59Z</time>
      </trkpt>
      <trkpt lat="45.28519" lon="4.46969">
        <ele>1268</ele>
        <time>2011-01-06T10:30:08Z</time>
      </trkpt>
      <trkpt lat="45.28515" lon="4.46959">
        <ele>1268</ele>
        <time>2011-01-06T10:30:16Z</time>
      </trkpt>
      <trkpt lat="45.28513" lon="4.46948">
        <ele>1268</ele>
        <time>2011-01-06T10:30:25Z</time>
      </trkpt>
      <trkpt lat="45.28512" lon="4.46946">
        <ele>1268</ele>
        <time>2011-01-06T10:30:26Z</time>
      </trkpt>
      <trkpt lat="45.28509" lon="4.46924">
        <ele>1267</ele>
        <time>2011-01-06T10:30:47Z</time>
      </trkpt>
      <trkpt lat="45.28505" lon="4.46915">
        <ele>1267</ele>
        <time>2011-01-06T10:30:53Z</time>
      </trkpt>
      <trkpt lat="45.28506" lon="4.46903">
        <ele>1268</ele>
        <time>2011-01-06T10:31:02Z</time>
      </trkpt>
      <trkpt lat="45.28508" lon="4.46891">
        <ele>1269</ele>
        <time>2011-01-06T10:31:10Z</time>
      </trkpt>
      <trkpt lat="45.28512" lon="4.46881">
        <ele>1269</ele>
        <time>2011-01-06T10:31:18Z</time>
      </trkpt>
      <trkpt lat="45.28515" lon="4.4687">
        <ele>1270</ele>
        <time>2011-01-06T10:31:28Z</time>
      </trkpt>
      <trkpt lat="45.28515" lon="4.46868">
        <ele>1270</ele>
        <time>2011-01-06T10:31:29Z</time>
      </trkpt>
      <trkpt lat="45.28515" lon="4.46845">
        <ele>1269</ele>
        <time>2011-01-06T10:31:46Z</time>
      </trkpt>
      <trkpt lat="45.28516" lon="4.46834">
        <ele>1269</ele>
        <time>2011-01-06T10:31:54Z</time>
      </trkpt>
      <trkpt lat="45.28516" lon="4.46823">
        <ele>1268</ele>
        <time>2011-01-06T10:32:02Z</time>
      </trkpt>
      <trkpt lat="45.28515" lon="4.46811">
        <ele>1268</ele>
        <time>2011-01-06T10:32:09Z</time>
      </trkpt>
      <trkpt lat="45.28512" lon="4.468">
        <ele>1267</ele>
        <time>2011-01-06T10:32:16Z</time>
      </trkpt>
      <trkpt lat="45.28512" lon="4.46789">
        <ele>1267</ele>
        <time>2011-01-06T10:32:24Z</time>
      </trkpt>
      <trkpt lat="45.28512" lon="4.46776">
        <ele>1267</ele>
        <time>2011-01-06T10:32:32Z</time>
      </trkpt>
      <trkpt lat="45.28512" lon="4.46775">
        <ele>1266</ele>
        <time>2011-01-06T10:32:33Z</time>
      </trkpt>
      <trkpt lat="45.28515" lon="4.46752">
        <ele>1265</ele>
        <time>2011-01-06T10:32:50Z</time>
      </trkpt>
      <trkpt lat="45.28516" lon="4.4674">
        <ele>1264</ele>
        <time>2011-01-06T10:32:58Z</time>
      </trkpt>
      <trkpt lat="45.28517" lon="4.46728">
        <ele>1264</ele>
        <time>2011-01-06T10:33:06Z</time>
      </trkpt>
      <trkpt lat="45.28517" lon="4.46716">
        <ele>1263</ele>
        <time>2011-01-06T10:33:14Z</time>
      </trkpt>
      <trkpt lat="45.28518" lon="4.46704">
        <ele>1263</ele>
        <time>2011-01-06T10:33:25Z</time>
      </trkpt>
      <trkpt lat="45.28518" lon="4.46692">
        <ele>1263</ele>
        <time>2011-01-06T10:33:32Z</time>
      </trkpt>
      <trkpt lat="45.2852" lon="4.46679">
        <ele>1262</ele>
        <time>2011-01-06T10:33:41Z</time>
      </trkpt>
      <trkpt lat="45.28521" lon="4.46678">
        <ele>1262</ele>
        <time>2011-01-06T10:33:42Z</time>
      </trkpt>
      <trkpt lat="45.28522" lon="4.46656">
        <ele>1260</ele>
        <time>2011-01-06T10:33:56Z</time>
      </trkpt>
      <trkpt lat="45.28522" lon="4.46644">
        <ele>1260</ele>
        <time>2011-01-06T10:34:06Z</time>
      </trkpt>
      <trkpt lat="45.28521" lon="4.46633">
        <ele>1259</ele>
        <time>2011-01-06T10:34:16Z</time>
      </trkpt>
      <trkpt lat="45.28523" lon="4.4662">
        <ele>1259</ele>
        <time>2011-01-06T10:34:25Z</time>
      </trkpt>
      <trkpt lat="45.28526" lon="4.46608">
        <ele>1259</ele>
        <time>2011-01-06T10:34:35Z</time>
      </trkpt>
      <trkpt lat="45.28528" lon="4.46597">
        <ele>1258</ele>
        <time>2011-01-06T10:34:44Z</time>
      </trkpt>
      <trkpt lat="45.28529" lon="4.46596">
        <ele>1258</ele>
        <time>2011-01-06T10:34:45Z</time>
      </trkpt>
      <trkpt lat="45.2853" lon="4.46573">
        <ele>1255</ele>
        <time>2011-01-06T10:35:01Z</time>
      </trkpt>
      <trkpt lat="45.2853" lon="4.46562">
        <ele>1255</ele>
        <time>2011-01-06T10:35:12Z</time>
      </trkpt>
      <trkpt lat="45.28527" lon="4.46551">
        <ele>1254</ele>
        <time>2011-01-06T10:35:19Z</time>
      </trkpt>
      <trkpt lat="45.28524" lon="4.4654">
        <ele>1254</ele>
        <time>2011-01-06T10:35:28Z</time>
      </trkpt>
      <trkpt lat="45.28521" lon="4.46529">
        <ele>1253</ele>
        <time>2011-01-06T10:35:35Z</time>
      </trkpt>
      <trkpt lat="45.28518" lon="4.46517">
        <ele>1253</ele>
        <time>2011-01-06T10:35:43Z</time>
      </trkpt>
      <trkpt lat="45.28517" lon="4.46506">
        <ele>1253</ele>
        <time>2011-01-06T10:35:54Z</time>
      </trkpt>
      <trkpt lat="45.28516" lon="4.46505">
        <ele>1252</ele>
        <time>2011-01-06T10:35:55Z</time>
      </trkpt>
      <trkpt lat="45.28503" lon="4.46493">
        <ele>1250</ele>
        <time>2011-01-06T10:36:54Z</time>
      </trkpt>
      <trkpt lat="45.28494" lon="4.46491">
        <ele>1250</ele>
        <time>2011-01-06T10:37:03Z</time>
      </trkpt>
      <trkpt lat="45.28493" lon="4.4649">
        <ele>1250</ele>
        <time>2011-01-06T10:37:04Z</time>
      </trkpt>
      <trkpt lat="45.28478" lon="4.46485">
        <ele>1249</ele>
        <time>2011-01-06T10:37:23Z</time>
      </trkpt>
      <trkpt lat="45.28469" lon="4.46482">
        <ele>1249</ele>
        <time>2011-01-06T10:37:35Z</time>
      </trkpt>
      <trkpt lat="45.2846" lon="4.46482">
        <ele>1249</ele>
        <time>2011-01-06T10:37:46Z</time>
      </trkpt>
      <trkpt lat="45.28452" lon="4.46482">
        <ele>1249</ele>
        <time>2011-01-06T10:37:56Z</time>
      </trkpt>
      <trkpt lat="45.28444" lon="4.46484">
        <ele>1249</ele>
        <time>2011-01-06T10:38:05Z</time>
      </trkpt>
      <trkpt lat="45.28443" lon="4.46485">
        <ele>1249</ele>
        <time>2011-01-06T10:38:06Z</time>
      </trkpt>
      <trkpt lat="45.28426" lon="4.46486">
        <ele>1249</ele>
        <time>2011-01-06T10:38:22Z</time>
      </trkpt>
      <trkpt lat="45.28418" lon="4.4649">
        <ele>1249</ele>
        <time>2011-01-06T10:38:34Z</time>
      </trkpt>
      <trkpt lat="45.2841" lon="4.46489">
        <ele>1248</ele>
        <time>2011-01-06T10:38:42Z</time>
      </trkpt>
      <trkpt lat="45.28401" lon="4.46491">
        <ele>1247</ele>
        <time>2011-01-06T10:38:52Z</time>
      </trkpt>
      <trkpt lat="45.28394" lon="4.46494">
        <ele>1246</ele>
        <time>2011-01-06T10:39:02Z</time>
      </trkpt>
      <trkpt lat="45.28386" lon="4.46488">
        <ele>1246</ele>
        <time>2011-01-06T10:39:06Z</time>
      </trkpt>
      <trkpt lat="45.28386" lon="4.46488">
        <ele>1246</ele>
        <time>2011-01-06T10:39:07Z</time>
      </trkpt>
      <trkpt lat="45.28369" lon="4.46487">
        <ele>1245</ele>
        <time>2011-01-06T10:39:26Z</time>
      </trkpt>
      <trkpt lat="45.28361" lon="4.46492">
        <ele>1244</ele>
        <time>2011-01-06T10:39:38Z</time>
      </trkpt>
      <trkpt lat="45.28354" lon="4.46495">
        <ele>1244</ele>
        <time>2011-01-06T10:39:46Z</time>
      </trkpt>
      <trkpt lat="45.28346" lon="4.46497">
        <ele>1244</ele>
        <time>2011-01-06T10:39:55Z</time>
      </trkpt>
      <trkpt lat="45.28337" lon="4.46497">
        <ele>1243</ele>
        <time>2011-01-06T10:40:04Z</time>
      </trkpt>
      <trkpt lat="45.28329" lon="4.46496">
        <ele>1243</ele>
        <time>2011-01-06T10:40:14Z</time>
      </trkpt>
      <trkpt lat="45.28328" lon="4.46496">
        <ele>1242</ele>
        <time>2011-01-06T10:40:15Z</time>
      </trkpt>
      <trkpt lat="45.28317" lon="4.46478">
        <ele>1241</ele>
        <time>2011-01-06T10:40:32Z</time>
      </trkpt>
      <trkpt lat="45.28313" lon="4.46468">
        <ele>1241</ele>
        <time>2011-01-06T10:40:40Z</time>
      </trkpt>
      <trkpt lat="45.28307" lon="4.46459">
        <ele>1241</ele>
        <time>2011-01-06T10:40:45Z</time>
      </trkpt>
      <trkpt lat="45.28301" lon="4.4645">
        <ele>1241</ele>
        <time>2011-01-06T10:40:50Z</time>
      </trkpt>
      <trkpt lat="45.28296" lon="4.46441">
        <ele>1240</ele>
        <time>2011-01-06T10:40:57Z</time>
      </trkpt>
      <trkpt lat="45.2829" lon="4.46432">
        <ele>1240</ele>
        <time>2011-01-06T10:41:05Z</time>
      </trkpt>
      <trkpt lat="45.28288" lon="4.4642">
        <ele>1240</ele>
        <time>2011-01-06T10:41:15Z</time>
      </trkpt>
      <trkpt lat="45.28288" lon="4.46419">
        <ele>1240</ele>
        <time>2011-01-06T10:41:16Z</time>
      </trkpt>
      <trkpt lat="45.28283" lon="4.46398">
        <ele>1238</ele>
        <time>2011-01-06T10:41:34Z</time>
      </trkpt>
      <trkpt lat="45.28281" lon="4.46386">
        <ele>1237</ele>
        <time>2011-01-06T10:41:43Z</time>
      </trkpt>
      <trkpt lat="45.28278" lon="4.46374">
        <ele>1237</ele>
        <time>2011-01-06T10:41:52Z</time>
      </trkpt>
      <trkpt lat="45.28276" lon="4.46363">
        <ele>1237</ele>
        <time>2011-01-06T10:42:00Z</time>
      </trkpt>
      <trkpt lat="45.28273" lon="4.46352">
        <ele>1236</ele>
        <time>2011-01-06T10:42:08Z</time>
      </trkpt>
      <trkpt lat="45.28271" lon="4.4634">
        <ele>1236</ele>
        <time>2011-01-06T10:42:17Z</time>
      </trkpt>
      <trkpt lat="45.2827" lon="4.46339">
        <ele>1236</ele>
        <time>2011-01-06T10:42:18Z</time>
      </trkpt>
      <trkpt lat="45.28265" lon="4.46318">
        <ele>1233</ele>
        <time>2011-01-06T10:42:35Z</time>
      </trkpt>
      <trkpt lat="45.28259" lon="4.46309">
        <ele>1232</ele>
        <time>2011-01-06T10:42:41Z</time>
      </trkpt>
      <trkpt lat="45.28254" lon="4.46301">
        <ele>1231</ele>
        <time>2011-01-06T10:42:48Z</time>
      </trkpt>
      <trkpt lat="45.28248" lon="4.46292">
        <ele>1232</ele>
        <time>2011-01-06T10:42:55Z</time>
      </trkpt>
      <trkpt lat="45.28243" lon="4.46281">
        <ele>1231</ele>
        <time>2011-01-06T10:43:04Z</time>
      </trkpt>
      <trkpt lat="45.28237" lon="4.46273">
        <ele>1231</ele>
        <time>2011-01-06T10:43:12Z</time>
      </trkpt>
      <trkpt lat="45.28231" lon="4.46264">
        <ele>1230</ele>
        <time>2011-01-06T10:43:22Z</time>
      </trkpt>
      <trkpt lat="45.28231" lon="4.46263">
        <ele>1230</ele>
        <time>2011-01-06T10:43:23Z</time>
      </trkpt>
      <trkpt lat="45.2822" lon="4.46245">
        <ele>1226</ele>
        <time>2011-01-06T10:43:40Z</time>
      </trkpt>
      <trkpt lat="45.28215" lon="4.46235">
        <ele>1226</ele>
        <time>2011-01-06T10:43:49Z</time>
      </trkpt>
      <trkpt lat="45.28209" lon="4.46226">
        <ele>1226</ele>
        <time>2011-01-06T10:43:56Z</time>
      </trkpt>
      <trkpt lat="45.28203" lon="4.46217">
        <ele>1225</ele>
        <time>2011-01-06T10:44:03Z</time>
      </trkpt>
      <trkpt lat="45.28197" lon="4.46208">
        <ele>1225</ele>
        <time>2011-01-06T10:44:10Z</time>
      </trkpt>
      <trkpt lat="45.2819" lon="4.46201">
        <ele>1225</ele>
        <time>2011-01-06T10:44:17Z</time>
      </trkpt>
      <trkpt lat="45.28188" lon="4.46189">
        <ele>1224</ele>
        <time>2011-01-06T10:44:24Z</time>
      </trkpt>
      <trkpt lat="45.28188" lon="4.46187">
        <ele>1224</ele>
        <time>2011-01-06T10:44:25Z</time>
      </trkpt>
      <trkpt lat="45.28195" lon="4.46167">
        <ele>1224</ele>
        <time>2011-01-06T10:44:42Z</time>
      </trkpt>
      <trkpt lat="45.282" lon="4.46158">
        <ele>1219</ele>
        <time>2011-01-06T10:44:56Z</time>
      </trkpt>
      <trkpt lat="45.28202" lon="4.46146">
        <ele>1219</ele>
        <time>2011-01-06T10:45:07Z</time>
      </trkpt>
      <trkpt lat="45.28206" lon="4.46136">
        <ele>1218</ele>
        <time>2011-01-06T10:45:17Z</time>
      </trkpt>
      <trkpt lat="45.2821" lon="4.46125">
        <ele>1217</ele>
        <time>2011-01-06T10:45:27Z</time>
      </trkpt>
      <trkpt lat="45.2821" lon="4.46124">
        <ele>1217</ele>
        <time>2011-01-06T10:45:28Z</time>
      </trkpt>
      <trkpt lat="45.28216" lon="4.46101">
        <ele>1216</ele>
        <time>2011-01-06T10:45:51Z</time>
      </trkpt>
      <trkpt lat="45.28217" lon="4.46089">
        <ele>1216</ele>
        <time>2011-01-06T10:46:00Z</time>
      </trkpt>
      <trkpt lat="45.28218" lon="4.46077">
        <ele>1210</ele>
        <time>2011-01-06T10:46:09Z</time>
      </trkpt>
      <trkpt lat="45.28219" lon="4.46066">
        <ele>1210</ele>
        <time>2011-01-06T10:46:17Z</time>
      </trkpt>
      <trkpt lat="45.28221" lon="4.46054">
        <ele>1209</ele>
        <time>2011-01-06T10:46:26Z</time>
      </trkpt>
      <trkpt lat="45.28224" lon="4.46043">
        <ele>1208</ele>
        <time>2011-01-06T10:46:37Z</time>
      </trkpt>
      <trkpt lat="45.28224" lon="4.46042">
        <ele>1208</ele>
        <time>2011-01-06T10:46:38Z</time>
      </trkpt>
      <trkpt lat="45.28229" lon="4.46019">
        <ele>1206</ele>
        <time>2011-01-06T10:46:57Z</time>
      </trkpt>
      <trkpt lat="45.28229" lon="4.46007">
        <ele>1205</ele>
        <time>2011-01-06T10:47:07Z</time>
      </trkpt>
      <trkpt lat="45.28229" lon="4.45995">
        <ele>1199</ele>
        <time>2011-01-06T10:47:20Z</time>
      </trkpt>
      <trkpt lat="45.28229" lon="4.45982">
        <ele>1199</ele>
        <time>2011-01-06T10:47:32Z</time>
      </trkpt>
      <trkpt lat="45.28228" lon="4.4597">
        <ele>1198</ele>
        <time>2011-01-06T10:47:43Z</time>
      </trkpt>
      <trkpt lat="45.28228" lon="4.45969">
        <ele>1198</ele>
        <time>2011-01-06T10:47:44Z</time>
      </trkpt>
      <trkpt lat="45.28227" lon="4.45945">
        <ele>1196</ele>
        <time>2011-01-06T10:48:05Z</time>
      </trkpt>
      <trkpt lat="45.28224" lon="4.45934">
        <ele>1195</ele>
        <time>2011-01-06T10:48:14Z</time>
      </trkpt>
      <trkpt lat="45.28221" lon="4.45924">
        <ele>1195</ele>
        <time>2011-01-06T10:48:22Z</time>
      </trkpt>
      <trkpt lat="45.28221" lon="4.45911">
        <ele>1187</ele>
        <time>2011-01-06T10:48:36Z</time>
      </trkpt>
      <trkpt lat="45.28218" lon="4.459">
        <ele>1187</ele>
        <time>2011-01-06T10:48:55Z</time>
      </trkpt>
      <trkpt lat="45.28218" lon="4.45899">
        <ele>1187</ele>
        <time>2011-01-06T10:48:56Z</time>
      </trkpt>
      <trkpt lat="45.28216" lon="4.45876">
        <ele>1185</ele>
        <time>2011-01-06T10:49:21Z</time>
      </trkpt>
      <trkpt lat="45.28218" lon="4.45865">
        <ele>1184</ele>
        <time>2011-01-06T10:49:35Z</time>
      </trkpt>
      <trkpt lat="45.2822" lon="4.45852">
        <ele>1183</ele>
        <time>2011-01-06T10:49:47Z</time>
      </trkpt>
      <trkpt lat="45.28213" lon="4.45844">
        <ele>1183</ele>
        <time>2011-01-06T10:50:02Z</time>
      </trkpt>
      <trkpt lat="45.28213" lon="4.45844">
        <ele>1183</ele>
        <time>2011-01-06T10:50:03Z</time>
      </trkpt>
      <trkpt lat="45.28208" lon="4.45823">
        <ele>1175</ele>
        <time>2011-01-06T10:50:28Z</time>
      </trkpt>
      <trkpt lat="45.28206" lon="4.45812">
        <ele>1175</ele>
        <time>2011-01-06T10:50:42Z</time>
      </trkpt>
      <trkpt lat="45.28202" lon="4.45801">
        <ele>1174</ele>
        <time>2011-01-06T10:51:00Z</time>
      </trkpt>
      <trkpt lat="45.28204" lon="4.45789">
        <ele>1174</ele>
        <time>2011-01-06T10:51:17Z</time>
      </trkpt>
      <trkpt lat="45.28204" lon="4.45788">
        <ele>1173</ele>
        <time>2011-01-06T10:51:18Z</time>
      </trkpt>
      <trkpt lat="45.28204" lon="4.45766">
        <ele>1172</ele>
        <time>2011-01-06T10:51:37Z</time>
      </trkpt>
      <trkpt lat="45.28205" lon="4.45754">
        <ele>1172</ele>
        <time>2011-01-06T10:51:46Z</time>
      </trkpt>
      <trkpt lat="45.28199" lon="4.45744">
        <ele>1165</ele>
        <time>2011-01-06T10:51:57Z</time>
      </trkpt>
      <trkpt lat="45.28194" lon="4.45735">
        <ele>1165</ele>
        <time>2011-01-06T10:52:10Z</time>
      </trkpt>
      <trkpt lat="45.28191" lon="4.45723">
        <ele>1164</ele>
        <time>2011-01-06T10:52:22Z</time>
      </trkpt>
      <trkpt lat="45.2819" lon="4.45722">
        <ele>1164</ele>
        <time>2011-01-06T10:52:23Z</time>
      </trkpt>
      <trkpt lat="45.28181" lon="4.45704">
        <ele>1162</ele>
        <time>2011-01-06T10:52:43Z</time>
      </trkpt>
      <trkpt lat="45.28179" lon="4.45692">
        <ele>1161</ele>
        <time>2011-01-06T10:53:06Z</time>
      </trkpt>
      <trkpt lat="45.28179" lon="4.4568">
        <ele>1160</ele>
        <time>2011-01-06T10:53:15Z</time>
      </trkpt>
      <trkpt lat="45.28182" lon="4.45668">
        <ele>1159</ele>
        <time>2011-01-06T10:53:29Z</time>
      </trkpt>
      <trkpt lat="45.28182" lon="4.45667">
        <ele>1159</ele>
        <time>2011-01-06T10:53:30Z</time>
      </trkpt>
      <trkpt lat="45.28187" lon="4.45644">
        <ele>1153</ele>
        <time>2011-01-06T10:54:03Z</time>
      </trkpt>
      <trkpt lat="45.28194" lon="4.45637">
        <ele>1152</ele>
        <time>2011-01-06T10:54:17Z</time>
      </trkpt>
      <trkpt lat="45.28202" lon="4.45633">
        <ele>1152</ele>
        <time>2011-01-06T10:54:27Z</time>
      </trkpt>
      <trkpt lat="45.28208" lon="4.45624">
        <ele>1152</ele>
        <time>2011-01-06T10:54:36Z</time>
      </trkpt>
      <trkpt lat="45.28208" lon="4.45623">
        <ele>1152</ele>
        <time>2011-01-06T10:54:37Z</time>
      </trkpt>
      <trkpt lat="45.28215" lon="4.45602">
        <ele>1151</ele>
        <time>2011-01-06T10:54:57Z</time>
      </trkpt>
      <trkpt lat="45.28221" lon="4.45592">
        <ele>1151</ele>
        <time>2011-01-06T10:55:06Z</time>
      </trkpt>
      <trkpt lat="45.28226" lon="4.45583">
        <ele>1147</ele>
        <time>2011-01-06T10:55:14Z</time>
      </trkpt>
      <trkpt lat="45.28226" lon="4.45571">
        <ele>1146</ele>
        <time>2011-01-06T10:55:21Z</time>
      </trkpt>
      <trkpt lat="45.28232" lon="4.45562">
        <ele>1146</ele>
        <time>2011-01-06T10:55:30Z</time>
      </trkpt>
      <trkpt lat="45.28235" lon="4.4555">
        <ele>1145</ele>
        <time>2011-01-06T10:55:40Z</time>
      </trkpt>
      <trkpt lat="45.28235" lon="4.45549">
        <ele>1145</ele>
        <time>2011-01-06T10:55:41Z</time>
      </trkpt>
      <trkpt lat="45.28236" lon="4.45526">
        <ele>1144</ele>
        <time>2011-01-06T10:55:59Z</time>
      </trkpt>
      <trkpt lat="45.28236" lon="4.45515">
        <ele>1144</ele>
        <time>2011-01-06T10:56:08Z</time>
      </trkpt>
      <trkpt lat="45.28233" lon="4.45503">
        <ele>1144</ele>
        <time>2011-01-06T10:56:16Z</time>
      </trkpt>
      <trkpt lat="45.28232" lon="4.45491">
        <ele>1141</ele>
        <time>2011-01-06T10:56:24Z</time>
      </trkpt>
      <trkpt lat="45.28232" lon="4.45478">
        <ele>1140</ele>
        <time>2011-01-06T10:56:31Z</time>
      </trkpt>
      <trkpt lat="45.28232" lon="4.45466">
        <ele>1139</ele>
        <time>2011-01-06T10:56:37Z</time>
      </trkpt>
      <trkpt lat="45.28233" lon="4.45454">
        <ele>1138</ele>
        <time>2011-01-06T10:56:44Z</time>
      </trkpt>
      <trkpt lat="45.28233" lon="4.45452">
        <ele>1138</ele>
        <time>2011-01-06T10:56:45Z</time>
      </trkpt>
      <trkpt lat="45.28235" lon="4.45431">
        <ele>1138</ele>
        <time>2011-01-06T10:56:58Z</time>
      </trkpt>
      <trkpt lat="45.28233" lon="4.45418">
        <ele>1137</ele>
        <time>2011-01-06T10:57:03Z</time>
      </trkpt>
      <trkpt lat="45.28232" lon="4.45406">
        <ele>1134</ele>
        <time>2011-01-06T10:57:09Z</time>
      </trkpt>
      <trkpt lat="45.28234" lon="4.45393">
        <ele>1133</ele>
        <time>2011-01-06T10:57:17Z</time>
      </trkpt>
      <trkpt lat="45.28234" lon="4.45381">
        <ele>1132</ele>
        <time>2011-01-06T10:57:23Z</time>
      </trkpt>
      <trkpt lat="45.28233" lon="4.4537">
        <ele>1131</ele>
        <time>2011-01-06T10:57:29Z</time>
      </trkpt>
      <trkpt lat="45.28233" lon="4.45358">
        <ele>1131</ele>
        <time>2011-01-06T10:57:36Z</time>
      </trkpt>
      <trkpt lat="45.28234" lon="4.45347">
        <ele>1130</ele>
        <time>2011-01-06T10:57:44Z</time>
      </trkpt>
      <trkpt lat="45.28237" lon="4.45335">
        <ele>1130</ele>
        <time>2011-01-06T10:57:52Z</time>
      </trkpt>
      <trkpt lat="45.28237" lon="4.45333">
        <ele>1130</ele>
        <time>2011-01-06T10:57:53Z</time>
      </trkpt>
      <trkpt lat="45.28245" lon="4.45316">
        <ele>1126</ele>
        <time>2011-01-06T10:58:06Z</time>
      </trkpt>
      <trkpt lat="45.28252" lon="4.45308">
        <ele>1133</ele>
        <time>2011-01-06T10:58:13Z</time>
      </trkpt>
      <trkpt lat="45.28259" lon="4.45302">
        <ele>1133</ele>
        <time>2011-01-06T10:58:19Z</time>
      </trkpt>
      <trkpt lat="45.28261" lon="4.45292">
        <ele>1132</ele>
        <time>2011-01-06T10:58:25Z</time>
      </trkpt>
      <trkpt lat="45.28264" lon="4.45281">
        <ele>1131</ele>
        <time>2011-01-06T10:58:32Z</time>
      </trkpt>
      <trkpt lat="45.28267" lon="4.4527">
        <ele>1130</ele>
        <time>2011-01-06T10:58:38Z</time>
      </trkpt>
      <trkpt lat="45.28271" lon="4.4526">
        <ele>1129</ele>
        <time>2011-01-06T10:58:45Z</time>
      </trkpt>
      <trkpt lat="45.28271" lon="4.45249">
        <ele>1123</ele>
        <time>2011-01-06T10:58:52Z</time>
      </trkpt>
      <trkpt lat="45.28273" lon="4.45238">
        <ele>1123</ele>
        <time>2011-01-06T10:58:59Z</time>
      </trkpt>
      <trkpt lat="45.28275" lon="4.45237">
        <ele>1123</ele>
        <time>2011-01-06T10:59:00Z</time>
      </trkpt>
      <trkpt lat="45.28282" lon="4.45217">
        <ele>1123</ele>
        <time>2011-01-06T10:59:13Z</time>
      </trkpt>
      <trkpt lat="45.28283" lon="4.45204">
        <ele>1123</ele>
        <time>2011-01-06T10:59:20Z</time>
      </trkpt>
      <trkpt lat="45.28288" lon="4.45195">
        <ele>1123</ele>
        <time>2011-01-06T10:59:27Z</time>
      </trkpt>
      <trkpt lat="45.28293" lon="4.45185">
        <ele>1123</ele>
        <time>2011-01-06T10:59:35Z</time>
      </trkpt>
      <trkpt lat="45.28294" lon="4.45173">
        <ele>1122</ele>
        <time>2011-01-06T10:59:43Z</time>
      </trkpt>
      <trkpt lat="45.28299" lon="4.45164">
        <ele>1116</ele>
        <time>2011-01-06T10:59:53Z</time>
      </trkpt>
      <trkpt lat="45.28302" lon="4.45153">
        <ele>1116</ele>
        <time>2011-01-06T11:00:01Z</time>
      </trkpt>
      <trkpt lat="45.28303" lon="4.45152">
        <ele>1116</ele>
        <time>2011-01-06T11:00:02Z</time>
      </trkpt>
      <trkpt lat="45.28312" lon="4.45134">
        <ele>1115</ele>
        <time>2011-01-06T11:00:16Z</time>
      </trkpt>
      <trkpt lat="45.28314" lon="4.45122">
        <ele>1114</ele>
        <time>2011-01-06T11:00:23Z</time>
      </trkpt>
      <trkpt lat="45.28315" lon="4.4511">
        <ele>1113</ele>
        <time>2011-01-06T11:00:30Z</time>
      </trkpt>
      <trkpt lat="45.28319" lon="4.451">
        <ele>1113</ele>
        <time>2011-01-06T11:00:37Z</time>
      </trkpt>
      <trkpt lat="45.28325" lon="4.45092">
        <ele>1113</ele>
        <time>2011-01-06T11:00:44Z</time>
      </trkpt>
      <trkpt lat="45.2833" lon="4.45083">
        <ele>1112</ele>
        <time>2011-01-06T11:00:51Z</time>
      </trkpt>
      <trkpt lat="45.28333" lon="4.45072">
        <ele>1109</ele>
        <time>2011-01-06T11:00:59Z</time>
      </trkpt>
      <trkpt lat="45.28336" lon="4.4506">
        <ele>1111</ele>
        <time>2011-01-06T11:01:08Z</time>
      </trkpt>
      <trkpt lat="45.28336" lon="4.45059">
        <ele>1111</ele>
        <time>2011-01-06T11:01:09Z</time>
      </trkpt>
      <trkpt lat="45.2834" lon="4.45038">
        <ele>1109</ele>
        <time>2011-01-06T11:01:23Z</time>
      </trkpt>
      <trkpt lat="45.28342" lon="4.45025">
        <ele>1107</ele>
        <time>2011-01-06T11:01:31Z</time>
      </trkpt>
      <trkpt lat="45.28345" lon="4.45014">
        <ele>1105</ele>
        <time>2011-01-06T11:01:38Z</time>
      </trkpt>
      <trkpt lat="45.28349" lon="4.45003">
        <ele>1104</ele>
        <time>2011-01-06T11:01:46Z</time>
      </trkpt>
      <trkpt lat="45.28354" lon="4.44993">
        <ele>1097</ele>
        <time>2011-01-06T11:01:53Z</time>
      </trkpt>
      <trkpt lat="45.28359" lon="4.44983">
        <ele>1097</ele>
        <time>2011-01-06T11:02:01Z</time>
      </trkpt>
      <trkpt lat="45.28361" lon="4.44972">
        <ele>1096</ele>
        <time>2011-01-06T11:02:10Z</time>
      </trkpt>
      <trkpt lat="45.28361" lon="4.44971">
        <ele>1096</ele>
        <time>2011-01-06T11:02:11Z</time>
      </trkpt>
      <trkpt lat="45.28365" lon="4.44948">
        <ele>1094</ele>
        <time>2011-01-06T11:02:29Z</time>
      </trkpt>
      <trkpt lat="45.28363" lon="4.44936">
        <ele>1093</ele>
        <time>2011-01-06T11:02:39Z</time>
      </trkpt>
      <trkpt lat="45.28357" lon="4.44926">
        <ele>1092</ele>
        <time>2011-01-06T11:02:50Z</time>
      </trkpt>
      <trkpt lat="45.28358" lon="4.44914">
        <ele>1086</ele>
        <time>2011-01-06T11:03:03Z</time>
      </trkpt>
      <trkpt lat="45.28357" lon="4.44901">
        <ele>1086</ele>
        <time>2011-01-06T11:03:14Z</time>
      </trkpt>
      <trkpt lat="45.28357" lon="4.449">
        <ele>1086</ele>
        <time>2011-01-06T11:03:15Z</time>
      </trkpt>
      <trkpt lat="45.28355" lon="4.44879">
        <ele>1085</ele>
        <time>2011-01-06T11:03:32Z</time>
      </trkpt>
      <trkpt lat="45.28354" lon="4.44867">
        <ele>1084</ele>
        <time>2011-01-06T11:03:42Z</time>
      </trkpt>
      <trkpt lat="45.28352" lon="4.44855">
        <ele>1083</ele>
        <time>2011-01-06T11:03:48Z</time>
      </trkpt>
      <trkpt lat="45.28352" lon="4.44843">
        <ele>1082</ele>
        <time>2011-01-06T11:03:59Z</time>
      </trkpt>
      <trkpt lat="45.28352" lon="4.4483">
        <ele>1077</ele>
        <time>2011-01-06T11:04:10Z</time>
      </trkpt>
      <trkpt lat="45.28351" lon="4.44817">
        <ele>1076</ele>
        <time>2011-01-06T11:04:21Z</time>
      </trkpt>
      <trkpt lat="45.28351" lon="4.44816">
        <ele>1076</ele>
        <time>2011-01-06T11:04:22Z</time>
      </trkpt>
      <trkpt lat="45.2835" lon="4.44793">
        <ele>1074</ele>
        <time>2011-01-06T11:04:39Z</time>
      </trkpt>
      <trkpt lat="45.2835" lon="4.44781">
        <ele>1073</ele>
        <time>2011-01-06T11:04:46Z</time>
      </trkpt>
      <trkpt lat="45.2835" lon="4.4477">
        <ele>1072</ele>
        <time>2011-01-06T11:04:54Z</time>
      </trkpt>
      <trkpt lat="45.2835" lon="4.44758">
        <ele>1071</ele>
        <time>2011-01-06T11:05:02Z</time>
      </trkpt>
      <trkpt lat="45.28351" lon="4.44746">
        <ele>1067</ele>
        <time>2011-01-06T11:05:09Z</time>
      </trkpt>
      <trkpt lat="45.28353" lon="4.44735">
        <ele>1067</ele>
        <time>2011-01-06T11:05:14Z</time>
      </trkpt>
      <trkpt lat="45.28356" lon="4.44725">
        <ele>1067</ele>
        <time>2011-01-06T11:05:20Z</time>
      </trkpt>
      <trkpt lat="45.28358" lon="4.44714">
        <ele>1067</ele>
        <time>2011-01-06T11:05:27Z</time>
      </trkpt>
      <trkpt lat="45.28359" lon="4.44712">
        <ele>1067</ele>
        <time>2011-01-06T11:05:28Z</time>
      </trkpt>
      <trkpt lat="45.28364" lon="4.44691">
        <ele>1066</ele>
        <time>2011-01-06T11:05:41Z</time>
      </trkpt>
      <trkpt lat="45.28366" lon="4.44679">
        <ele>1066</ele>
        <time>2011-01-06T11:05:48Z</time>
      </trkpt>
      <trkpt lat="45.28367" lon="4.44668">
        <ele>1066</ele>
        <time>2011-01-06T11:05:55Z</time>
      </trkpt>
      <trkpt lat="45.28367" lon="4.44656">
        <ele>1065</ele>
        <time>2011-01-06T11:06:02Z</time>
      </trkpt>
      <trkpt lat="45.28368" lon="4.44644">
        <ele>1065</ele>
        <time>2011-01-06T11:06:09Z</time>
      </trkpt>
      <trkpt lat="45.28368" lon="4.44633">
        <ele>1065</ele>
        <time>2011-01-06T11:06:16Z</time>
      </trkpt>
      <trkpt lat="45.28368" lon="4.44621">
        <ele>1065</ele>
        <time>2011-01-06T11:06:23Z</time>
      </trkpt>
      <trkpt lat="45.28369" lon="4.44609">
        <ele>1065</ele>
        <time>2011-01-06T11:06:30Z</time>
      </trkpt>
      <trkpt lat="45.28369" lon="4.44607">
        <ele>1065</ele>
        <time>2011-01-06T11:06:31Z</time>
      </trkpt>
      <trkpt lat="45.28397" lon="4.44591">
        <ele>1066</ele>
        <time>2011-01-06T13:42:16Z</time>
      </trkpt>
      <trkpt lat="45.28397" lon="4.44591">
        <ele>1066</ele>
        <time>2011-01-06T13:42:17Z</time>
      </trkpt>
      <trkpt lat="45.28383" lon="4.44593">
        <ele>1065</ele>
        <time>2011-01-06T13:42:23Z</time>
      </trkpt>
      <trkpt lat="45.28375" lon="4.44596">
        <ele>1065</ele>
        <time>2011-01-06T13:42:44Z</time>
      </trkpt>
      <trkpt lat="45.28369" lon="4.44601">
        <ele>1065</ele>
        <time>2011-01-06T13:42:48Z</time>
      </trkpt>
      <trkpt lat="45.28375" lon="4.44604">
        <ele>1065</ele>
        <time>2011-01-06T13:43:09Z</time>
      </trkpt>
      <trkpt lat="45.28378" lon="4.446">
        <ele>1065</ele>
        <time>2011-01-06T13:43:10Z</time>
      </trkpt>
      <trkpt lat="45.28383" lon="4.44592">
        <ele>1065</ele>
        <time>2011-01-06T13:43:12Z</time>
      </trkpt>
      <trkpt lat="45.28386" lon="4.44583">
        <ele>1066</ele>
        <time>2011-01-06T13:43:15Z</time>
      </trkpt>
      <trkpt lat="45.28389" lon="4.44571">
        <ele>1066</ele>
        <time>2011-01-06T13:43:20Z</time>
      </trkpt>
      <trkpt lat="45.2839" lon="4.44562">
        <ele>1066</ele>
        <time>2011-01-06T13:43:21Z</time>
      </trkpt>
      <trkpt lat="45.28385" lon="4.44553">
        <ele>1066</ele>
        <time>2011-01-06T13:43:27Z</time>
      </trkpt>
      <trkpt lat="45.28381" lon="4.44542">
        <ele>1066</ele>
        <time>2011-01-06T13:43:32Z</time>
      </trkpt>
      <trkpt lat="45.28375" lon="4.44534">
        <ele>1066</ele>
        <time>2011-01-06T13:43:37Z</time>
      </trkpt>
      <trkpt lat="45.2837" lon="4.44525">
        <ele>1066</ele>
        <time>2011-01-06T13:43:52Z</time>
      </trkpt>
      <trkpt lat="45.2837" lon="4.44512">
        <ele>1066</ele>
        <time>2011-01-06T13:44:01Z</time>
      </trkpt>
      <trkpt lat="45.28368" lon="4.44524">
        <ele>1066</ele>
        <time>2011-01-06T13:45:46Z</time>
      </trkpt>
      <trkpt lat="45.28369" lon="4.44525">
        <ele>1066</ele>
        <time>2011-01-06T13:45:47Z</time>
      </trkpt>
      <trkpt lat="45.28369" lon="4.44548">
        <ele>1066</ele>
        <time>2011-01-06T13:46:07Z</time>
      </trkpt>
      <trkpt lat="45.28369" lon="4.4456">
        <ele>1066</ele>
        <time>2011-01-06T13:46:19Z</time>
      </trkpt>
      <trkpt lat="45.2837" lon="4.44572">
        <ele>1066</ele>
        <time>2011-01-06T13:46:29Z</time>
      </trkpt>
      <trkpt lat="45.2837" lon="4.44585">
        <ele>1065</ele>
        <time>2011-01-06T13:46:37Z</time>
      </trkpt>
      <trkpt lat="45.2837" lon="4.44596">
        <ele>1065</ele>
        <time>2011-01-06T13:46:45Z</time>
      </trkpt>
      <trkpt lat="45.28369" lon="4.44609">
        <ele>1065</ele>
        <time>2011-01-06T13:46:53Z</time>
      </trkpt>
      <trkpt lat="45.28369" lon="4.4461">
        <ele>1065</ele>
        <time>2011-01-06T13:46:54Z</time>
      </trkpt>
      <trkpt lat="45.28368" lon="4.44632">
        <ele>1065</ele>
        <time>2011-01-06T13:47:08Z</time>
      </trkpt>
      <trkpt lat="45.28368" lon="4.44644">
        <ele>1065</ele>
        <time>2011-01-06T13:47:18Z</time>
      </trkpt>
      <trkpt lat="45.28368" lon="4.44656">
        <ele>1065</ele>
        <time>2011-01-06T13:47:26Z</time>
      </trkpt>
      <trkpt lat="45.28369" lon="4.44669">
        <ele>1066</ele>
        <time>2011-01-06T13:47:34Z</time>
      </trkpt>
      <trkpt lat="45.28368" lon="4.44681">
        <ele>1066</ele>
        <time>2011-01-06T13:47:41Z</time>
      </trkpt>
      <trkpt lat="45.28367" lon="4.44693">
        <ele>1067</ele>
        <time>2011-01-06T13:47:50Z</time>
      </trkpt>
      <trkpt lat="45.28366" lon="4.44703">
        <ele>1067</ele>
        <time>2011-01-06T13:47:57Z</time>
      </trkpt>
      <trkpt lat="45.28365" lon="4.44706">
        <ele>1067</ele>
        <time>2011-01-06T13:47:59Z</time>
      </trkpt>
      <trkpt lat="45.28357" lon="4.44724">
        <ele>1067</ele>
        <time>2011-01-06T13:48:11Z</time>
      </trkpt>
      <trkpt lat="45.28353" lon="4.44734">
        <ele>1067</ele>
        <time>2011-01-06T13:48:20Z</time>
      </trkpt>
      <trkpt lat="45.2835" lon="4.44746">
        <ele>1067</ele>
        <time>2011-01-06T13:48:30Z</time>
      </trkpt>
      <trkpt lat="45.28349" lon="4.44758">
        <ele>1071</ele>
        <time>2011-01-06T13:48:41Z</time>
      </trkpt>
      <trkpt lat="45.2835" lon="4.44771">
        <ele>1072</ele>
        <time>2011-01-06T13:48:54Z</time>
      </trkpt>
      <trkpt lat="45.28349" lon="4.44783">
        <ele>1073</ele>
        <time>2011-01-06T13:49:04Z</time>
      </trkpt>
      <trkpt lat="45.28349" lon="4.44785">
        <ele>1073</ele>
        <time>2011-01-06T13:49:05Z</time>
      </trkpt>
      <trkpt lat="45.2835" lon="4.44806">
        <ele>1075</ele>
        <time>2011-01-06T13:49:28Z</time>
      </trkpt>
      <trkpt lat="45.28351" lon="4.44818">
        <ele>1076</ele>
        <time>2011-01-06T13:49:42Z</time>
      </trkpt>
      <trkpt lat="45.28351" lon="4.44831">
        <ele>1077</ele>
        <time>2011-01-06T13:49:56Z</time>
      </trkpt>
      <trkpt lat="45.28352" lon="4.44843">
        <ele>1082</ele>
        <time>2011-01-06T13:50:06Z</time>
      </trkpt>
      <trkpt lat="45.28352" lon="4.44844">
        <ele>1082</ele>
        <time>2011-01-06T13:50:07Z</time>
      </trkpt>
      <trkpt lat="45.28354" lon="4.44867">
        <ele>1084</ele>
        <time>2011-01-06T13:50:35Z</time>
      </trkpt>
      <trkpt lat="45.28356" lon="4.44879">
        <ele>1085</ele>
        <time>2011-01-06T13:50:45Z</time>
      </trkpt>
      <trkpt lat="45.28356" lon="4.44892">
        <ele>1085</ele>
        <time>2011-01-06T13:51:01Z</time>
      </trkpt>
      <trkpt lat="45.28358" lon="4.44904">
        <ele>1086</ele>
        <time>2011-01-06T13:51:12Z</time>
      </trkpt>
      <trkpt lat="45.28358" lon="4.44905">
        <ele>1086</ele>
        <time>2011-01-06T13:51:13Z</time>
      </trkpt>
      <trkpt lat="45.28362" lon="4.44926">
        <ele>1093</ele>
        <time>2011-01-06T13:51:36Z</time>
      </trkpt>
      <trkpt lat="45.28366" lon="4.44934">
        <ele>1094</ele>
        <time>2011-01-06T13:51:42Z</time>
      </trkpt>
      <trkpt lat="45.28372" lon="4.44944">
        <ele>1094</ele>
        <time>2011-01-06T13:51:52Z</time>
      </trkpt>
      <trkpt lat="45.28372" lon="4.44956">
        <ele>1095</ele>
        <time>2011-01-06T13:52:03Z</time>
      </trkpt>
      <trkpt lat="45.28366" lon="4.44966">
        <ele>1096</ele>
        <time>2011-01-06T13:52:14Z</time>
      </trkpt>
      <trkpt lat="45.28366" lon="4.44966">
        <ele>1096</ele>
        <time>2011-01-06T13:52:15Z</time>
      </trkpt>
      <trkpt lat="45.28355" lon="4.44979">
        <ele>1097</ele>
        <time>2011-01-06T13:53:12Z</time>
      </trkpt>
      <trkpt lat="45.28358" lon="4.4499">
        <ele>1097</ele>
        <time>2011-01-06T13:54:08Z</time>
      </trkpt>
      <trkpt lat="45.28358" lon="4.44991">
        <ele>1097</ele>
        <time>2011-01-06T13:54:09Z</time>
      </trkpt>
      <trkpt lat="45.28353" lon="4.45011">
        <ele>1106</ele>
        <time>2011-01-06T13:54:24Z</time>
      </trkpt>
      <trkpt lat="45.28347" lon="4.45019">
        <ele>1106</ele>
        <time>2011-01-06T13:54:30Z</time>
      </trkpt>
      <trkpt lat="45.28342" lon="4.45028">
        <ele>1107</ele>
        <time>2011-01-06T13:54:38Z</time>
      </trkpt>
      <trkpt lat="45.28337" lon="4.45038">
        <ele>1109</ele>
        <time>2011-01-06T13:54:48Z</time>
      </trkpt>
      <trkpt lat="45.28334" lon="4.45049">
        <ele>1110</ele>
        <time>2011-01-06T13:54:58Z</time>
      </trkpt>
      <trkpt lat="45.28334" lon="4.45061">
        <ele>1111</ele>
        <time>2011-01-06T13:55:04Z</time>
      </trkpt>
      <trkpt lat="45.28332" lon="4.45073">
        <ele>1109</ele>
        <time>2011-01-06T13:55:12Z</time>
      </trkpt>
      <trkpt lat="45.28332" lon="4.45075">
        <ele>1110</ele>
        <time>2011-01-06T13:55:13Z</time>
      </trkpt>
      <trkpt lat="45.28323" lon="4.45094">
        <ele>1113</ele>
        <time>2011-01-06T13:55:29Z</time>
      </trkpt>
      <trkpt lat="45.28319" lon="4.45104">
        <ele>1113</ele>
        <time>2011-01-06T13:55:38Z</time>
      </trkpt>
      <trkpt lat="45.28312" lon="4.45113">
        <ele>1113</ele>
        <time>2011-01-06T13:55:48Z</time>
      </trkpt>
      <trkpt lat="45.28306" lon="4.4512">
        <ele>1113</ele>
        <time>2011-01-06T13:55:55Z</time>
      </trkpt>
      <trkpt lat="45.28303" lon="4.45131">
        <ele>1114</ele>
        <time>2011-01-06T13:56:06Z</time>
      </trkpt>
      <trkpt lat="45.28304" lon="4.45142">
        <ele>1115</ele>
        <time>2011-01-06T13:56:11Z</time>
      </trkpt>
      <trkpt lat="45.28301" lon="4.45153">
        <ele>1116</ele>
        <time>2011-01-06T13:56:18Z</time>
      </trkpt>
      <trkpt lat="45.28301" lon="4.45154">
        <ele>1116</ele>
        <time>2011-01-06T13:56:19Z</time>
      </trkpt>
      <trkpt lat="45.28297" lon="4.45176">
        <ele>1123</ele>
        <time>2011-01-06T13:56:31Z</time>
      </trkpt>
      <trkpt lat="45.28295" lon="4.45188">
        <ele>1123</ele>
        <time>2011-01-06T13:56:38Z</time>
      </trkpt>
      <trkpt lat="45.28291" lon="4.45197">
        <ele>1123</ele>
        <time>2011-01-06T13:56:45Z</time>
      </trkpt>
      <trkpt lat="45.28289" lon="4.45208">
        <ele>1124</ele>
        <time>2011-01-06T13:56:57Z</time>
      </trkpt>
      <trkpt lat="45.28284" lon="4.45219">
        <ele>1124</ele>
        <time>2011-01-06T13:57:05Z</time>
      </trkpt>
      <trkpt lat="45.28281" lon="4.4523">
        <ele>1124</ele>
        <time>2011-01-06T13:57:13Z</time>
      </trkpt>
      <trkpt lat="45.2828" lon="4.45241">
        <ele>1124</ele>
        <time>2011-01-06T13:57:19Z</time>
      </trkpt>
      <trkpt lat="45.2828" lon="4.45243">
        <ele>1124</ele>
        <time>2011-01-06T13:57:20Z</time>
      </trkpt>
      <trkpt lat="45.28268" lon="4.45258">
        <ele>1128</ele>
        <time>2011-01-06T13:57:37Z</time>
      </trkpt>
      <trkpt lat="45.28265" lon="4.45269">
        <ele>1129</ele>
        <time>2011-01-06T13:57:47Z</time>
      </trkpt>
      <trkpt lat="45.2826" lon="4.45277">
        <ele>1130</ele>
        <time>2011-01-06T13:57:54Z</time>
      </trkpt>
      <trkpt lat="45.28256" lon="4.45288">
        <ele>1132</ele>
        <time>2011-01-06T13:58:01Z</time>
      </trkpt>
      <trkpt lat="45.28251" lon="4.45298">
        <ele>1132</ele>
        <time>2011-01-06T13:58:11Z</time>
      </trkpt>
      <trkpt lat="45.28247" lon="4.45309">
        <ele>1126</ele>
        <time>2011-01-06T13:58:19Z</time>
      </trkpt>
      <trkpt lat="45.28242" lon="4.4532">
        <ele>1127</ele>
        <time>2011-01-06T13:58:29Z</time>
      </trkpt>
      <trkpt lat="45.28242" lon="4.45321">
        <ele>1127</ele>
        <time>2011-01-06T13:58:30Z</time>
      </trkpt>
      <trkpt lat="45.28236" lon="4.45342">
        <ele>1130</ele>
        <time>2011-01-06T13:58:45Z</time>
      </trkpt>
      <trkpt lat="45.28233" lon="4.45354">
        <ele>1131</ele>
        <time>2011-01-06T13:58:55Z</time>
      </trkpt>
      <trkpt lat="45.28231" lon="4.45366">
        <ele>1131</ele>
        <time>2011-01-06T13:59:04Z</time>
      </trkpt>
      <trkpt lat="45.2823" lon="4.45378">
        <ele>1132</ele>
        <time>2011-01-06T13:59:13Z</time>
      </trkpt>
      <trkpt lat="45.28228" lon="4.4539">
        <ele>1132</ele>
        <time>2011-01-06T13:59:22Z</time>
      </trkpt>
      <trkpt lat="45.28226" lon="4.45402">
        <ele>1133</ele>
        <time>2011-01-06T13:59:31Z</time>
      </trkpt>
      <trkpt lat="45.28226" lon="4.45403">
        <ele>1133</ele>
        <time>2011-01-06T13:59:32Z</time>
      </trkpt>
      <trkpt lat="45.28222" lon="4.45425">
        <ele>1137</ele>
        <time>2011-01-06T13:59:48Z</time>
      </trkpt>
      <trkpt lat="45.2822" lon="4.45437">
        <ele>1137</ele>
        <time>2011-01-06T13:59:56Z</time>
      </trkpt>
      <trkpt lat="45.28218" lon="4.45449">
        <ele>1137</ele>
        <time>2011-01-06T14:00:04Z</time>
      </trkpt>
      <trkpt lat="45.28217" lon="4.45461">
        <ele>1138</ele>
        <time>2011-01-06T14:00:13Z</time>
      </trkpt>
      <trkpt lat="45.28217" lon="4.45473">
        <ele>1138</ele>
        <time>2011-01-06T14:00:24Z</time>
      </trkpt>
      <trkpt lat="45.28221" lon="4.45484">
        <ele>1139</ele>
        <time>2011-01-06T14:00:37Z</time>
      </trkpt>
      <trkpt lat="45.28222" lon="4.45485">
        <ele>1139</ele>
        <time>2011-01-06T14:00:38Z</time>
      </trkpt>
      <trkpt lat="45.28223" lon="4.45508">
        <ele>1144</ele>
        <time>2011-01-06T14:01:02Z</time>
      </trkpt>
      <trkpt lat="45.28224" lon="4.4552">
        <ele>1144</ele>
        <time>2011-01-06T14:01:14Z</time>
      </trkpt>
      <trkpt lat="45.28225" lon="4.45533">
        <ele>1144</ele>
        <time>2011-01-06T14:01:26Z</time>
      </trkpt>
      <trkpt lat="45.28225" lon="4.45545">
        <ele>1145</ele>
        <time>2011-01-06T14:01:36Z</time>
      </trkpt>
      <trkpt lat="45.28225" lon="4.45557">
        <ele>1145</ele>
        <time>2011-01-06T14:01:45Z</time>
      </trkpt>
      <trkpt lat="45.28224" lon="4.45557">
        <ele>1145</ele>
        <time>2011-01-06T14:01:46Z</time>
      </trkpt>
      <trkpt lat="45.28219" lon="4.45579">
        <ele>1146</ele>
        <time>2011-01-06T14:02:00Z</time>
      </trkpt>
      <trkpt lat="45.28217" lon="4.45591">
        <ele>1151</ele>
        <time>2011-01-06T14:02:09Z</time>
      </trkpt>
      <trkpt lat="45.28215" lon="4.45603">
        <ele>1151</ele>
        <time>2011-01-06T14:02:18Z</time>
      </trkpt>
      <trkpt lat="45.28216" lon="4.45615">
        <ele>1152</ele>
        <time>2011-01-06T14:02:28Z</time>
      </trkpt>
      <trkpt lat="45.28212" lon="4.45626">
        <ele>1152</ele>
        <time>2011-01-06T14:02:38Z</time>
      </trkpt>
      <trkpt lat="45.28218" lon="4.45635">
        <ele>1153</ele>
        <time>2011-01-06T14:03:11Z</time>
      </trkpt>
      <trkpt lat="45.28219" lon="4.45635">
        <ele>1153</ele>
        <time>2011-01-06T14:03:12Z</time>
      </trkpt>
      <trkpt lat="45.28235" lon="4.45631">
        <ele>1153</ele>
        <time>2011-01-06T14:03:33Z</time>
      </trkpt>
      <trkpt lat="45.28243" lon="4.45627">
        <ele>1153</ele>
        <time>2011-01-06T14:03:45Z</time>
      </trkpt>
      <trkpt lat="45.28251" lon="4.45623">
        <ele>1161</ele>
        <time>2011-01-06T14:03:56Z</time>
      </trkpt>
      <trkpt lat="45.28259" lon="4.45617">
        <ele>1161</ele>
        <time>2011-01-06T14:04:08Z</time>
      </trkpt>
      <trkpt lat="45.28266" lon="4.4561">
        <ele>1161</ele>
        <time>2011-01-06T14:04:18Z</time>
      </trkpt>
      <trkpt lat="45.28266" lon="4.45609">
        <ele>1161</ele>
        <time>2011-01-06T14:04:19Z</time>
      </trkpt>
      <trkpt lat="45.2828" lon="4.45613">
        <ele>1163</ele>
        <time>2011-01-06T14:04:37Z</time>
      </trkpt>
      <trkpt lat="45.28282" lon="4.45624">
        <ele>1164</ele>
        <time>2011-01-06T14:04:48Z</time>
      </trkpt>
      <trkpt lat="45.28282" lon="4.45636">
        <ele>1164</ele>
        <time>2011-01-06T14:04:57Z</time>
      </trkpt>
      <trkpt lat="45.28283" lon="4.45648">
        <ele>1164</ele>
        <time>2011-01-06T14:05:06Z</time>
      </trkpt>
      <trkpt lat="45.28281" lon="4.4566">
        <ele>1164</ele>
        <time>2011-01-06T14:05:14Z</time>
      </trkpt>
      <trkpt lat="45.28283" lon="4.45671">
        <ele>1168</ele>
        <time>2011-01-06T14:05:23Z</time>
      </trkpt>
      <trkpt lat="45.28283" lon="4.45672">
        <ele>1168</ele>
        <time>2011-01-06T14:05:24Z</time>
      </trkpt>
      <trkpt lat="45.28288" lon="4.45694">
        <ele>1169</ele>
        <time>2011-01-06T14:05:44Z</time>
      </trkpt>
      <trkpt lat="45.28288" lon="4.45706">
        <ele>1170</ele>
        <time>2011-01-06T14:05:52Z</time>
      </trkpt>
      <trkpt lat="45.28286" lon="4.45718">
        <ele>1170</ele>
        <time>2011-01-06T14:06:02Z</time>
      </trkpt>
      <trkpt lat="45.28285" lon="4.4573">
        <ele>1171</ele>
        <time>2011-01-06T14:06:12Z</time>
      </trkpt>
      <trkpt lat="45.28283" lon="4.45741">
        <ele>1171</ele>
        <time>2011-01-06T14:06:21Z</time>
      </trkpt>
      <trkpt lat="45.28278" lon="4.45752">
        <ele>1175</ele>
        <time>2011-01-06T14:06:32Z</time>
      </trkpt>
      <trkpt lat="45.28278" lon="4.45754">
        <ele>1175</ele>
        <time>2011-01-06T14:06:33Z</time>
      </trkpt>
      <trkpt lat="45.28274" lon="4.45774">
        <ele>1176</ele>
        <time>2011-01-06T14:06:47Z</time>
      </trkpt>
      <trkpt lat="45.28267" lon="4.45782">
        <ele>1176</ele>
        <time>2011-01-06T14:06:55Z</time>
      </trkpt>
      <trkpt lat="45.28258" lon="4.45784">
        <ele>1176</ele>
        <time>2011-01-06T14:07:04Z</time>
      </trkpt>
      <trkpt lat="45.2825" lon="4.45784">
        <ele>1173</ele>
        <time>2011-01-06T14:07:14Z</time>
      </trkpt>
      <trkpt lat="45.28241" lon="4.45782">
        <ele>1173</ele>
        <time>2011-01-06T14:07:24Z</time>
      </trkpt>
      <trkpt lat="45.28232" lon="4.45785">
        <ele>1173</ele>
        <time>2011-01-06T14:07:34Z</time>
      </trkpt>
      <trkpt lat="45.28232" lon="4.45785">
        <ele>1173</ele>
        <time>2011-01-06T14:07:35Z</time>
      </trkpt>
      <trkpt lat="45.28217" lon="4.45793">
        <ele>1174</ele>
        <time>2011-01-06T14:07:52Z</time>
      </trkpt>
      <trkpt lat="45.28209" lon="4.45799">
        <ele>1174</ele>
        <time>2011-01-06T14:08:01Z</time>
      </trkpt>
      <trkpt lat="45.28201" lon="4.45803">
        <ele>1174</ele>
        <time>2011-01-06T14:08:12Z</time>
      </trkpt>
      <trkpt lat="45.28192" lon="4.45805">
        <ele>1174</ele>
        <time>2011-01-06T14:08:23Z</time>
      </trkpt>
      <trkpt lat="45.28184" lon="4.45808">
        <ele>1175</ele>
        <time>2011-01-06T14:08:33Z</time>
      </trkpt>
      <trkpt lat="45.28176" lon="4.45811">
        <ele>1175</ele>
        <time>2011-01-06T14:08:42Z</time>
      </trkpt>
      <trkpt lat="45.28175" lon="4.45811">
        <ele>1175</ele>
        <time>2011-01-06T14:08:43Z</time>
      </trkpt>
      <trkpt lat="45.2816" lon="4.45822">
        <ele>1177</ele>
        <time>2011-01-06T14:08:59Z</time>
      </trkpt>
      <trkpt lat="45.28152" lon="4.45827">
        <ele>1176</ele>
        <time>2011-01-06T14:09:09Z</time>
      </trkpt>
      <trkpt lat="45.28144" lon="4.45833">
        <ele>1176</ele>
        <time>2011-01-06T14:09:20Z</time>
      </trkpt>
      <trkpt lat="45.28138" lon="4.45841">
        <ele>1183</ele>
        <time>2011-01-06T14:09:29Z</time>
      </trkpt>
      <trkpt lat="45.28131" lon="4.45848">
        <ele>1183</ele>
        <time>2011-01-06T14:09:39Z</time>
      </trkpt>
      <trkpt lat="45.28124" lon="4.45856">
        <ele>1184</ele>
        <time>2011-01-06T14:09:48Z</time>
      </trkpt>
      <trkpt lat="45.28123" lon="4.45856">
        <ele>1184</ele>
        <time>2011-01-06T14:09:49Z</time>
      </trkpt>
      <trkpt lat="45.2811" lon="4.45869">
        <ele>1185</ele>
        <time>2011-01-06T14:10:07Z</time>
      </trkpt>
      <trkpt lat="45.28103" lon="4.45878">
        <ele>1185</ele>
        <time>2011-01-06T14:10:18Z</time>
      </trkpt>
      <trkpt lat="45.28095" lon="4.45884">
        <ele>1186</ele>
        <time>2011-01-06T14:10:29Z</time>
      </trkpt>
      <trkpt lat="45.28088" lon="4.4589">
        <ele>1187</ele>
        <time>2011-01-06T14:10:39Z</time>
      </trkpt>
      <trkpt lat="45.28081" lon="4.45897">
        <ele>1188</ele>
        <time>2011-01-06T14:10:49Z</time>
      </trkpt>
      <trkpt lat="45.2808" lon="4.45897">
        <ele>1188</ele>
        <time>2011-01-06T14:10:50Z</time>
      </trkpt>
      <trkpt lat="45.28068" lon="4.45912">
        <ele>1188</ele>
        <time>2011-01-06T14:11:07Z</time>
      </trkpt>
      <trkpt lat="45.2806" lon="4.45918">
        <ele>1193</ele>
        <time>2011-01-06T14:11:16Z</time>
      </trkpt>
      <trkpt lat="45.28054" lon="4.45925">
        <ele>1193</ele>
        <time>2011-01-06T14:11:24Z</time>
      </trkpt>
      <trkpt lat="45.28046" lon="4.45932">
        <ele>1193</ele>
        <time>2011-01-06T14:11:32Z</time>
      </trkpt>
      <trkpt lat="45.28039" lon="4.45939">
        <ele>1194</ele>
        <time>2011-01-06T14:11:43Z</time>
      </trkpt>
      <trkpt lat="45.28033" lon="4.45946">
        <ele>1194</ele>
        <time>2011-01-06T14:11:54Z</time>
      </trkpt>
      <trkpt lat="45.28032" lon="4.45947">
        <ele>1194</ele>
        <time>2011-01-06T14:11:55Z</time>
      </trkpt>
      <trkpt lat="45.28018" lon="4.45959">
        <ele>1194</ele>
        <time>2011-01-06T14:12:13Z</time>
      </trkpt>
      <trkpt lat="45.28011" lon="4.45965">
        <ele>1195</ele>
        <time>2011-01-06T14:12:22Z</time>
      </trkpt>
      <trkpt lat="45.28002" lon="4.45969">
        <ele>1195</ele>
        <time>2011-01-06T14:12:30Z</time>
      </trkpt>
      <trkpt lat="45.27995" lon="4.45976">
        <ele>1195</ele>
        <time>2011-01-06T14:12:37Z</time>
      </trkpt>
      <trkpt lat="45.27988" lon="4.45982">
        <ele>1195</ele>
        <time>2011-01-06T14:12:46Z</time>
      </trkpt>
      <trkpt lat="45.27979" lon="4.45986">
        <ele>1195</ele>
        <time>2011-01-06T14:12:57Z</time>
      </trkpt>
      <trkpt lat="45.27979" lon="4.45986">
        <ele>1195</ele>
        <time>2011-01-06T14:12:58Z</time>
      </trkpt>
      <trkpt lat="45.27963" lon="4.45996">
        <ele>1195</ele>
        <time>2011-01-06T14:13:18Z</time>
      </trkpt>
      <trkpt lat="45.27956" lon="4.46001">
        <ele>1198</ele>
        <time>2011-01-06T14:13:26Z</time>
      </trkpt>
      <trkpt lat="45.27949" lon="4.46008">
        <ele>1198</ele>
        <time>2011-01-06T14:13:34Z</time>
      </trkpt>
      <trkpt lat="45.27943" lon="4.46017">
        <ele>1198</ele>
        <time>2011-01-06T14:13:42Z</time>
      </trkpt>
      <trkpt lat="45.27937" lon="4.46025">
        <ele>1198</ele>
        <time>2011-01-06T14:13:49Z</time>
      </trkpt>
      <trkpt lat="45.27931" lon="4.46035">
        <ele>1198</ele>
        <time>2011-01-06T14:13:59Z</time>
      </trkpt>
      <trkpt lat="45.2793" lon="4.46036">
        <ele>1198</ele>
        <time>2011-01-06T14:14:00Z</time>
      </trkpt>
      <trkpt lat="45.27922" lon="4.46055">
        <ele>1198</ele>
        <time>2011-01-06T14:14:19Z</time>
      </trkpt>
      <trkpt lat="45.27915" lon="4.46064">
        <ele>1197</ele>
        <time>2011-01-06T14:14:29Z</time>
      </trkpt>
      <trkpt lat="45.27909" lon="4.46072">
        <ele>1197</ele>
        <time>2011-01-06T14:14:37Z</time>
      </trkpt>
      <trkpt lat="45.27902" lon="4.46079">
        <ele>1197</ele>
        <time>2011-01-06T14:14:46Z</time>
      </trkpt>
      <trkpt lat="45.27895" lon="4.46086">
        <ele>1200</ele>
        <time>2011-01-06T14:14:55Z</time>
      </trkpt>
      <trkpt lat="45.27888" lon="4.46093">
        <ele>1200</ele>
        <time>2011-01-06T14:15:02Z</time>
      </trkpt>
      <trkpt lat="45.27887" lon="4.46093">
        <ele>1200</ele>
        <time>2011-01-06T14:15:03Z</time>
      </trkpt>
      <trkpt lat="45.27874" lon="4.46105">
        <ele>1200</ele>
        <time>2011-01-06T14:15:19Z</time>
      </trkpt>
      <trkpt lat="45.27866" lon="4.4611">
        <ele>1201</ele>
        <time>2011-01-06T14:15:26Z</time>
      </trkpt>
      <trkpt lat="45.27857" lon="4.46112">
        <ele>1201</ele>
        <time>2011-01-06T14:15:35Z</time>
      </trkpt>
      <trkpt lat="45.27849" lon="4.46114">
        <ele>1200</ele>
        <time>2011-01-06T14:15:44Z</time>
      </trkpt>
      <trkpt lat="45.27841" lon="4.46117">
        <ele>1201</ele>
        <time>2011-01-06T14:15:52Z</time>
      </trkpt>
      <trkpt lat="45.27833" lon="4.46121">
        <ele>1201</ele>
        <time>2011-01-06T14:15:59Z</time>
      </trkpt>
      <trkpt lat="45.27825" lon="4.46125">
        <ele>1202</ele>
        <time>2011-01-06T14:16:07Z</time>
      </trkpt>
      <trkpt lat="45.27824" lon="4.46126">
        <ele>1202</ele>
        <time>2011-01-06T14:16:08Z</time>
      </trkpt>
      <trkpt lat="45.2781" lon="4.46134">
        <ele>1202</ele>
        <time>2011-01-06T14:16:23Z</time>
      </trkpt>
      <trkpt lat="45.27802" lon="4.46141">
        <ele>1203</ele>
        <time>2011-01-06T14:16:52Z</time>
      </trkpt>
      <trkpt lat="45.27794" lon="4.46143">
        <ele>1203</ele>
        <time>2011-01-06T14:17:10Z</time>
      </trkpt>
      <trkpt lat="45.27793" lon="4.46144">
        <ele>1203</ele>
        <time>2011-01-06T14:17:11Z</time>
      </trkpt>
      <trkpt lat="45.27778" lon="4.46151">
        <ele>1204</ele>
        <time>2011-01-06T14:17:27Z</time>
      </trkpt>
      <trkpt lat="45.2777" lon="4.46156">
        <ele>1205</ele>
        <time>2011-01-06T14:17:35Z</time>
      </trkpt>
      <trkpt lat="45.27762" lon="4.46161">
        <ele>1206</ele>
        <time>2011-01-06T14:17:43Z</time>
      </trkpt>
      <trkpt lat="45.27754" lon="4.46165">
        <ele>1208</ele>
        <time>2011-01-06T14:17:50Z</time>
      </trkpt>
      <trkpt lat="45.27746" lon="4.46169">
        <ele>1209</ele>
        <time>2011-01-06T14:17:58Z</time>
      </trkpt>
      <trkpt lat="45.27738" lon="4.46174">
        <ele>1209</ele>
        <time>2011-01-06T14:18:06Z</time>
      </trkpt>
      <trkpt lat="45.27731" lon="4.46179">
        <ele>1209</ele>
        <time>2011-01-06T14:18:14Z</time>
      </trkpt>
      <trkpt lat="45.2773" lon="4.4618">
        <ele>1209</ele>
        <time>2011-01-06T14:18:15Z</time>
      </trkpt>
      <trkpt lat="45.27718" lon="4.46191">
        <ele>1209</ele>
        <time>2011-01-06T14:18:27Z</time>
      </trkpt>
      <trkpt lat="45.2771" lon="4.46197">
        <ele>1209</ele>
        <time>2011-01-06T14:18:35Z</time>
      </trkpt>
      <trkpt lat="45.27701" lon="4.46201">
        <ele>1208</ele>
        <time>2011-01-06T14:18:44Z</time>
      </trkpt>
      <trkpt lat="45.27694" lon="4.46204">
        <ele>1208</ele>
        <time>2011-01-06T14:18:51Z</time>
      </trkpt>
      <trkpt lat="45.27687" lon="4.46212">
        <ele>1208</ele>
        <time>2011-01-06T14:18:55Z</time>
      </trkpt>
      <trkpt lat="45.2768" lon="4.46218">
        <ele>1209</ele>
        <time>2011-01-06T14:19:00Z</time>
      </trkpt>
      <trkpt lat="45.27673" lon="4.46225">
        <ele>1209</ele>
        <time>2011-01-06T14:19:09Z</time>
      </trkpt>
      <trkpt lat="45.27665" lon="4.46229">
        <ele>1204</ele>
        <time>2011-01-06T14:19:18Z</time>
      </trkpt>
      <trkpt lat="45.27664" lon="4.4623">
        <ele>1204</ele>
        <time>2011-01-06T14:19:19Z</time>
      </trkpt>
      <trkpt lat="45.27651" lon="4.46243">
        <ele>1205</ele>
        <time>2011-01-06T14:19:32Z</time>
      </trkpt>
      <trkpt lat="45.27646" lon="4.46251">
        <ele>1208</ele>
        <time>2011-01-06T14:19:38Z</time>
      </trkpt>
      <trkpt lat="45.2764" lon="4.46261">
        <ele>1207</ele>
        <time>2011-01-06T14:19:47Z</time>
      </trkpt>
      <trkpt lat="45.27635" lon="4.46269">
        <ele>1207</ele>
        <time>2011-01-06T14:19:55Z</time>
      </trkpt>
      <trkpt lat="45.27629" lon="4.46278">
        <ele>1207</ele>
        <time>2011-01-06T14:20:02Z</time>
      </trkpt>
      <trkpt lat="45.27625" lon="4.46289">
        <ele>1207</ele>
        <time>2011-01-06T14:20:12Z</time>
      </trkpt>
      <trkpt lat="45.2762" lon="4.46299">
        <ele>1207</ele>
        <time>2011-01-06T14:20:18Z</time>
      </trkpt>
      <trkpt lat="45.27615" lon="4.46308">
        <ele>1207</ele>
        <time>2011-01-06T14:20:25Z</time>
      </trkpt>
      <trkpt lat="45.27614" lon="4.46309">
        <ele>1207</ele>
        <time>2011-01-06T14:20:26Z</time>
      </trkpt>
      <trkpt lat="45.27603" lon="4.46325">
        <ele>1207</ele>
        <time>2011-01-06T14:20:43Z</time>
      </trkpt>
      <trkpt lat="45.27598" lon="4.46334">
        <ele>1208</ele>
        <time>2011-01-06T14:20:53Z</time>
      </trkpt>
      <trkpt lat="45.27593" lon="4.46343">
        <ele>1208</ele>
        <time>2011-01-06T14:20:58Z</time>
      </trkpt>
      <trkpt lat="45.27587" lon="4.46351">
        <ele>1208</ele>
        <time>2011-01-06T14:21:08Z</time>
      </trkpt>
      <trkpt lat="45.27581" lon="4.46358">
        <ele>1204</ele>
        <time>2011-01-06T14:21:17Z</time>
      </trkpt>
      <trkpt lat="45.27574" lon="4.46365">
        <ele>1204</ele>
        <time>2011-01-06T14:21:29Z</time>
      </trkpt>
      <trkpt lat="45.27573" lon="4.46366">
        <ele>1204</ele>
        <time>2011-01-06T14:21:30Z</time>
      </trkpt>
      <trkpt lat="45.27566" lon="4.46387">
        <ele>1204</ele>
        <time>2011-01-06T14:21:55Z</time>
      </trkpt>
      <trkpt lat="45.27562" lon="4.46399">
        <ele>1204</ele>
        <time>2011-01-06T14:22:09Z</time>
      </trkpt>
      <trkpt lat="45.27556" lon="4.46407">
        <ele>1204</ele>
        <time>2011-01-06T14:22:27Z</time>
      </trkpt>
      <trkpt lat="45.27547" lon="4.46403">
        <ele>1203</ele>
        <time>2011-01-06T14:22:37Z</time>
      </trkpt>
      <trkpt lat="45.27546" lon="4.46403">
        <ele>1203</ele>
        <time>2011-01-06T14:22:38Z</time>
      </trkpt>
      <trkpt lat="45.27531" lon="4.46398">
        <ele>1202</ele>
        <time>2011-01-06T14:22:54Z</time>
      </trkpt>
      <trkpt lat="45.27523" lon="4.46396">
        <ele>1201</ele>
        <time>2011-01-06T14:23:02Z</time>
      </trkpt>
      <trkpt lat="45.27515" lon="4.46394">
        <ele>1201</ele>
        <time>2011-01-06T14:23:10Z</time>
      </trkpt>
      <trkpt lat="45.27506" lon="4.46393">
        <ele>1201</ele>
        <time>2011-01-06T14:23:18Z</time>
      </trkpt>
      <trkpt lat="45.27498" lon="4.46393">
        <ele>1196</ele>
        <time>2011-01-06T14:23:26Z</time>
      </trkpt>
      <trkpt lat="45.27489" lon="4.46392">
        <ele>1196</ele>
        <time>2011-01-06T14:23:35Z</time>
      </trkpt>
      <trkpt lat="45.2748" lon="4.46395">
        <ele>1196</ele>
        <time>2011-01-06T14:23:44Z</time>
      </trkpt>
      <trkpt lat="45.27479" lon="4.46396">
        <ele>1196</ele>
        <time>2011-01-06T14:23:45Z</time>
      </trkpt>
      <trkpt lat="45.27463" lon="4.464">
        <ele>1195</ele>
        <time>2011-01-06T14:24:03Z</time>
      </trkpt>
      <trkpt lat="45.27455" lon="4.46401">
        <ele>1195</ele>
        <time>2011-01-06T14:24:12Z</time>
      </trkpt>
      <trkpt lat="45.27447" lon="4.46401">
        <ele>1195</ele>
        <time>2011-01-06T14:24:20Z</time>
      </trkpt>
      <trkpt lat="45.27439" lon="4.46405">
        <ele>1194</ele>
        <time>2011-01-06T14:24:28Z</time>
      </trkpt>
      <trkpt lat="45.27431" lon="4.46409">
        <ele>1194</ele>
        <time>2011-01-06T14:24:37Z</time>
      </trkpt>
      <trkpt lat="45.27423" lon="4.46413">
        <ele>1193</ele>
        <time>2011-01-06T14:24:46Z</time>
      </trkpt>
      <trkpt lat="45.27422" lon="4.46413">
        <ele>1193</ele>
        <time>2011-01-06T14:24:47Z</time>
      </trkpt>
      <trkpt lat="45.27407" lon="4.4642">
        <ele>1192</ele>
        <time>2011-01-06T14:25:02Z</time>
      </trkpt>
      <trkpt lat="45.27398" lon="4.46422">
        <ele>1191</ele>
        <time>2011-01-06T14:25:10Z</time>
      </trkpt>
      <trkpt lat="45.27389" lon="4.46425">
        <ele>1191</ele>
        <time>2011-01-06T14:25:18Z</time>
      </trkpt>
      <trkpt lat="45.27381" lon="4.46428">
        <ele>1191</ele>
        <time>2011-01-06T14:25:25Z</time>
      </trkpt>
      <trkpt lat="45.27373" lon="4.4643">
        <ele>1190</ele>
        <time>2011-01-06T14:25:32Z</time>
      </trkpt>
      <trkpt lat="45.27365" lon="4.4643">
        <ele>1190</ele>
        <time>2011-01-06T14:25:39Z</time>
      </trkpt>
      <trkpt lat="45.27356" lon="4.46431">
        <ele>1190</ele>
        <time>2011-01-06T14:25:47Z</time>
      </trkpt>
      <trkpt lat="45.27355" lon="4.46431">
        <ele>1190</ele>
        <time>2011-01-06T14:25:48Z</time>
      </trkpt>
      <trkpt lat="45.27339" lon="4.46426">
        <ele>1189</ele>
        <time>2011-01-06T14:26:03Z</time>
      </trkpt>
      <trkpt lat="45.27331" lon="4.46428">
        <ele>1188</ele>
        <time>2011-01-06T14:26:11Z</time>
      </trkpt>
      <trkpt lat="45.27322" lon="4.46433">
        <ele>1188</ele>
        <time>2011-01-06T14:26:19Z</time>
      </trkpt>
      <trkpt lat="45.27314" lon="4.46435">
        <ele>1188</ele>
        <time>2011-01-06T14:26:34Z</time>
      </trkpt>
      <trkpt lat="45.27306" lon="4.46435">
        <ele>1188</ele>
        <time>2011-01-06T14:26:42Z</time>
      </trkpt>
      <trkpt lat="45.27298" lon="4.46429">
        <ele>1188</ele>
        <time>2011-01-06T14:26:52Z</time>
      </trkpt>
      <trkpt lat="45.27298" lon="4.46428">
        <ele>1188</ele>
        <time>2011-01-06T14:26:53Z</time>
      </trkpt>
      <trkpt lat="45.27283" lon="4.46417">
        <ele>1187</ele>
        <time>2011-01-06T14:27:15Z</time>
      </trkpt>
      <trkpt lat="45.27276" lon="4.4641">
        <ele>1187</ele>
        <time>2011-01-06T14:27:27Z</time>
      </trkpt>
      <trkpt lat="45.27269" lon="4.46404">
        <ele>1187</ele>
        <time>2011-01-06T14:27:37Z</time>
      </trkpt>
      <trkpt lat="45.27262" lon="4.46397">
        <ele>1187</ele>
        <time>2011-01-06T14:27:45Z</time>
      </trkpt>
      <trkpt lat="45.27255" lon="4.46389">
        <ele>1186</ele>
        <time>2011-01-06T14:27:54Z</time>
      </trkpt>
      <trkpt lat="45.27254" lon="4.46388">
        <ele>1186</ele>
        <time>2011-01-06T14:27:55Z</time>
      </trkpt>
      <trkpt lat="45.2724" lon="4.46376">
        <ele>1183</ele>
        <time>2011-01-06T14:28:13Z</time>
      </trkpt>
      <trkpt lat="45.27235" lon="4.46368">
        <ele>1182</ele>
        <time>2011-01-06T14:28:23Z</time>
      </trkpt>
      <trkpt lat="45.27228" lon="4.4636">
        <ele>1182</ele>
        <time>2011-01-06T14:28:33Z</time>
      </trkpt>
      <trkpt lat="45.27225" lon="4.46348">
        <ele>1182</ele>
        <time>2011-01-06T14:28:47Z</time>
      </trkpt>
      <trkpt lat="45.2722" lon="4.46339">
        <ele>1181</ele>
        <time>2011-01-06T14:28:59Z</time>
      </trkpt>
      <trkpt lat="45.27219" lon="4.46338">
        <ele>1181</ele>
        <time>2011-01-06T14:29:00Z</time>
      </trkpt>
      <trkpt lat="45.27205" lon="4.46332">
        <ele>1177</ele>
        <time>2011-01-06T14:29:13Z</time>
      </trkpt>
      <trkpt lat="45.27197" lon="4.46333">
        <ele>1177</ele>
        <time>2011-01-06T14:29:21Z</time>
      </trkpt>
      <trkpt lat="45.27188" lon="4.46337">
        <ele>1179</ele>
        <time>2011-01-06T14:29:30Z</time>
      </trkpt>
      <trkpt lat="45.2718" lon="4.4634">
        <ele>1179</ele>
        <time>2011-01-06T14:29:39Z</time>
      </trkpt>
      <trkpt lat="45.27172" lon="4.46346">
        <ele>1178</ele>
        <time>2011-01-06T14:29:47Z</time>
      </trkpt>
      <trkpt lat="45.27164" lon="4.46352">
        <ele>1175</ele>
        <time>2011-01-06T14:29:56Z</time>
      </trkpt>
      <trkpt lat="45.27156" lon="4.46354">
        <ele>1175</ele>
        <time>2011-01-06T14:30:06Z</time>
      </trkpt>
      <trkpt lat="45.27155" lon="4.46354">
        <ele>1175</ele>
        <time>2011-01-06T14:30:07Z</time>
      </trkpt>
      <trkpt lat="45.27139" lon="4.4636">
        <ele>1174</ele>
        <time>2011-01-06T14:30:23Z</time>
      </trkpt>
      <trkpt lat="45.2713" lon="4.46362">
        <ele>1174</ele>
        <time>2011-01-06T14:30:33Z</time>
      </trkpt>
      <trkpt lat="45.27122" lon="4.46363">
        <ele>1174</ele>
        <time>2011-01-06T14:30:44Z</time>
      </trkpt>
      <trkpt lat="45.27113" lon="4.46367">
        <ele>1173</ele>
        <time>2011-01-06T14:30:53Z</time>
      </trkpt>
      <trkpt lat="45.27106" lon="4.46374">
        <ele>1173</ele>
        <time>2011-01-06T14:31:02Z</time>
      </trkpt>
      <trkpt lat="45.27097" lon="4.46375">
        <ele>1173</ele>
        <time>2011-01-06T14:31:11Z</time>
      </trkpt>
      <trkpt lat="45.27096" lon="4.46375">
        <ele>1173</ele>
        <time>2011-01-06T14:31:12Z</time>
      </trkpt>
      <trkpt lat="45.2708" lon="4.46372">
        <ele>1170</ele>
        <time>2011-01-06T14:31:31Z</time>
      </trkpt>
      <trkpt lat="45.27072" lon="4.46367">
        <ele>1170</ele>
        <time>2011-01-06T14:31:38Z</time>
      </trkpt>
      <trkpt lat="45.27064" lon="4.46364">
        <ele>1170</ele>
        <time>2011-01-06T14:31:45Z</time>
      </trkpt>
      <trkpt lat="45.27055" lon="4.4636">
        <ele>1170</ele>
        <time>2011-01-06T14:31:53Z</time>
      </trkpt>
      <trkpt lat="45.27047" lon="4.46358">
        <ele>1170</ele>
        <time>2011-01-06T14:32:00Z</time>
      </trkpt>
      <trkpt lat="45.27039" lon="4.46357">
        <ele>1171</ele>
        <time>2011-01-06T14:32:07Z</time>
      </trkpt>
      <trkpt lat="45.2703" lon="4.46358">
        <ele>1171</ele>
        <time>2011-01-06T14:32:14Z</time>
      </trkpt>
      <trkpt lat="45.27029" lon="4.46358">
        <ele>1171</ele>
        <time>2011-01-06T14:32:15Z</time>
      </trkpt>
      <trkpt lat="45.27014" lon="4.46366">
        <ele>1171</ele>
        <time>2011-01-06T14:32:30Z</time>
      </trkpt>
      <trkpt lat="45.27008" lon="4.46374">
        <ele>1171</ele>
        <time>2011-01-06T14:32:43Z</time>
      </trkpt>
      <trkpt lat="45.27004" lon="4.46384">
        <ele>1170</ele>
        <time>2011-01-06T14:32:56Z</time>
      </trkpt>
      <trkpt lat="45.27" lon="4.46393">
        <ele>1170</ele>
        <time>2011-01-06T14:33:01Z</time>
      </trkpt>
      <trkpt lat="45.26996" lon="4.46403">
        <ele>1169</ele>
        <time>2011-01-06T14:33:07Z</time>
      </trkpt>
      <trkpt lat="45.26992" lon="4.46414">
        <ele>1168</ele>
        <time>2011-01-06T14:33:15Z</time>
      </trkpt>
      <trkpt lat="45.26992" lon="4.46416">
        <ele>1168</ele>
        <time>2011-01-06T14:33:16Z</time>
      </trkpt>
      <trkpt lat="45.26986" lon="4.46436">
        <ele>1167</ele>
        <time>2011-01-06T14:33:30Z</time>
      </trkpt>
      <trkpt lat="45.26983" lon="4.46446">
        <ele>1166</ele>
        <time>2011-01-06T14:33:38Z</time>
      </trkpt>
      <trkpt lat="45.2698" lon="4.46458">
        <ele>1166</ele>
        <time>2011-01-06T14:33:45Z</time>
      </trkpt>
      <trkpt lat="45.26974" lon="4.46466">
        <ele>1166</ele>
        <time>2011-01-06T14:33:54Z</time>
      </trkpt>
      <trkpt lat="45.26968" lon="4.46475">
        <ele>1166</ele>
        <time>2011-01-06T14:34:03Z</time>
      </trkpt>
      <trkpt lat="45.26962" lon="4.46484">
        <ele>1166</ele>
        <time>2011-01-06T14:34:11Z</time>
      </trkpt>
      <trkpt lat="45.26956" lon="4.46493">
        <ele>1166</ele>
        <time>2011-01-06T14:34:20Z</time>
      </trkpt>
      <trkpt lat="45.26955" lon="4.46494">
        <ele>1166</ele>
        <time>2011-01-06T14:34:21Z</time>
      </trkpt>
      <trkpt lat="45.26943" lon="4.46511">
        <ele>1163</ele>
        <time>2011-01-06T14:34:38Z</time>
      </trkpt>
      <trkpt lat="45.26937" lon="4.46519">
        <ele>1163</ele>
        <time>2011-01-06T14:34:45Z</time>
      </trkpt>
      <trkpt lat="45.26932" lon="4.46528">
        <ele>1163</ele>
        <time>2011-01-06T14:34:52Z</time>
      </trkpt>
      <trkpt lat="45.26926" lon="4.46537">
        <ele>1163</ele>
        <time>2011-01-06T14:35:00Z</time>
      </trkpt>
      <trkpt lat="45.2692" lon="4.46545">
        <ele>1162</ele>
        <time>2011-01-06T14:35:08Z</time>
      </trkpt>
      <trkpt lat="45.26915" lon="4.46554">
        <ele>1163</ele>
        <time>2011-01-06T14:35:16Z</time>
      </trkpt>
      <trkpt lat="45.2691" lon="4.46564">
        <ele>1163</ele>
        <time>2011-01-06T14:35:24Z</time>
      </trkpt>
      <trkpt lat="45.26909" lon="4.46565">
        <ele>1163</ele>
        <time>2011-01-06T14:35:25Z</time>
      </trkpt>
      <trkpt lat="45.26899" lon="4.46582">
        <ele>1162</ele>
        <time>2011-01-06T14:35:40Z</time>
      </trkpt>
      <trkpt lat="45.26893" lon="4.46591">
        <ele>1160</ele>
        <time>2011-01-06T14:35:49Z</time>
      </trkpt>
      <trkpt lat="45.26886" lon="4.46599">
        <ele>1160</ele>
        <time>2011-01-06T14:35:58Z</time>
      </trkpt>
      <trkpt lat="45.2688" lon="4.46607">
        <ele>1160</ele>
        <time>2011-01-06T14:36:06Z</time>
      </trkpt>
      <trkpt lat="45.26873" lon="4.46615">
        <ele>1160</ele>
        <time>2011-01-06T14:36:13Z</time>
      </trkpt>
      <trkpt lat="45.26867" lon="4.46623">
        <ele>1160</ele>
        <time>2011-01-06T14:36:22Z</time>
      </trkpt>
      <trkpt lat="45.26861" lon="4.46632">
        <ele>1160</ele>
        <time>2011-01-06T14:36:30Z</time>
      </trkpt>
      <trkpt lat="45.26859" lon="4.46634">
        <ele>1160</ele>
        <time>2011-01-06T14:36:31Z</time>
      </trkpt>
      <trkpt lat="45.2685" lon="4.4665">
        <ele>1160</ele>
        <time>2011-01-06T14:36:47Z</time>
      </trkpt>
      <trkpt lat="45.26844" lon="4.46659">
        <ele>1161</ele>
        <time>2011-01-06T14:36:54Z</time>
      </trkpt>
      <trkpt lat="45.26838" lon="4.46669">
        <ele>1160</ele>
        <time>2011-01-06T14:37:02Z</time>
      </trkpt>
      <trkpt lat="45.26832" lon="4.46677">
        <ele>1161</ele>
        <time>2011-01-06T14:37:11Z</time>
      </trkpt>
      <trkpt lat="45.26827" lon="4.46686">
        <ele>1160</ele>
        <time>2011-01-06T14:37:16Z</time>
      </trkpt>
      <trkpt lat="45.26821" lon="4.46695">
        <ele>1160</ele>
        <time>2011-01-06T14:37:24Z</time>
      </trkpt>
      <trkpt lat="45.26814" lon="4.46702">
        <ele>1160</ele>
        <time>2011-01-06T14:37:35Z</time>
      </trkpt>
      <trkpt lat="45.26813" lon="4.46703">
        <ele>1160</ele>
        <time>2011-01-06T14:37:36Z</time>
      </trkpt>
      <trkpt lat="45.268" lon="4.46714">
        <ele>1160</ele>
        <time>2011-01-06T14:37:51Z</time>
      </trkpt>
      <trkpt lat="45.26793" lon="4.4672">
        <ele>1160</ele>
        <time>2011-01-06T14:37:59Z</time>
      </trkpt>
      <trkpt lat="45.26785" lon="4.46727">
        <ele>1160</ele>
        <time>2011-01-06T14:38:07Z</time>
      </trkpt>
      <trkpt lat="45.26778" lon="4.4673">
        <ele>1160</ele>
        <time>2011-01-06T14:38:15Z</time>
      </trkpt>
      <trkpt lat="45.26769" lon="4.46729">
        <ele>1160</ele>
        <time>2011-01-06T14:38:24Z</time>
      </trkpt>
      <trkpt lat="45.26761" lon="4.46726">
        <ele>1160</ele>
        <time>2011-01-06T14:38:34Z</time>
      </trkpt>
      <trkpt lat="45.26753" lon="4.46722">
        <ele>1160</ele>
        <time>2011-01-06T14:38:43Z</time>
      </trkpt>
      <trkpt lat="45.26752" lon="4.46722">
        <ele>1160</ele>
        <time>2011-01-06T14:38:44Z</time>
      </trkpt>
      <trkpt lat="45.26739" lon="4.46737">
        <ele>1160</ele>
        <time>2011-01-06T14:39:05Z</time>
      </trkpt>
      <trkpt lat="45.2673" lon="4.46739">
        <ele>1160</ele>
        <time>2011-01-06T14:39:15Z</time>
      </trkpt>
      <trkpt lat="45.26727" lon="4.4675">
        <ele>1157</ele>
        <time>2011-01-06T14:39:23Z</time>
      </trkpt>
      <trkpt lat="45.2672" lon="4.46758">
        <ele>1157</ele>
        <time>2011-01-06T14:39:31Z</time>
      </trkpt>
      <trkpt lat="45.26714" lon="4.46765">
        <ele>1156</ele>
        <time>2011-01-06T14:39:38Z</time>
      </trkpt>
      <trkpt lat="45.26707" lon="4.46771">
        <ele>1156</ele>
        <time>2011-01-06T14:39:46Z</time>
      </trkpt>
      <trkpt lat="45.26706" lon="4.46772">
        <ele>1156</ele>
        <time>2011-01-06T14:39:47Z</time>
      </trkpt>
      <trkpt lat="45.26694" lon="4.46786">
        <ele>1155</ele>
        <time>2011-01-06T14:40:01Z</time>
      </trkpt>
      <trkpt lat="45.26686" lon="4.4679">
        <ele>1155</ele>
        <time>2011-01-06T14:40:09Z</time>
      </trkpt>
      <trkpt lat="45.26679" lon="4.46796">
        <ele>1155</ele>
        <time>2011-01-06T14:40:17Z</time>
      </trkpt>
      <trkpt lat="45.26672" lon="4.46802">
        <ele>1154</ele>
        <time>2011-01-06T14:40:25Z</time>
      </trkpt>
      <trkpt lat="45.26665" lon="4.46808">
        <ele>1149</ele>
        <time>2011-01-06T14:40:33Z</time>
      </trkpt>
      <trkpt lat="45.26659" lon="4.46817">
        <ele>1149</ele>
        <time>2011-01-06T14:40:44Z</time>
      </trkpt>
      <trkpt lat="45.26655" lon="4.46828">
        <ele>1149</ele>
        <time>2011-01-06T14:40:58Z</time>
      </trkpt>
      <trkpt lat="45.26655" lon="4.46829">
        <ele>1149</ele>
        <time>2011-01-06T14:40:59Z</time>
      </trkpt>
      <trkpt lat="45.2665" lon="4.46849">
        <ele>1140</ele>
        <time>2011-01-06T14:42:20Z</time>
      </trkpt>
      <trkpt lat="45.2665" lon="4.4685">
        <ele>1140</ele>
        <time>2011-01-06T14:42:21Z</time>
      </trkpt>
      <trkpt lat="45.2666" lon="4.4686">
        <ele>1139</ele>
        <time>2011-01-06T14:44:45Z</time>
      </trkpt>
      <trkpt lat="45.2666" lon="4.46859">
        <ele>1139</ele>
        <time>2011-01-06T14:44:46Z</time>
      </trkpt>
      <trkpt lat="45.26653" lon="4.46838">
        <ele>1143</ele>
        <time>2011-01-06T14:45:13Z</time>
      </trkpt>
      <trkpt lat="45.26645" lon="4.46832">
        <ele>1148</ele>
        <time>2011-01-06T14:45:35Z</time>
      </trkpt>
      <trkpt lat="45.2665" lon="4.46822">
        <ele>1149</ele>
        <time>2011-01-06T14:48:25Z</time>
      </trkpt>
      <trkpt lat="45.26651" lon="4.46822">
        <ele>1149</ele>
        <time>2011-01-06T14:48:26Z</time>
      </trkpt>
      <trkpt lat="45.26664" lon="4.46807">
        <ele>1149</ele>
        <time>2011-01-06T14:48:46Z</time>
      </trkpt>
      <trkpt lat="45.2667" lon="4.46799">
        <ele>1154</ele>
        <time>2011-01-06T14:48:58Z</time>
      </trkpt>
      <trkpt lat="45.26677" lon="4.46793">
        <ele>1155</ele>
        <time>2011-01-06T14:49:07Z</time>
      </trkpt>
      <trkpt lat="45.26684" lon="4.46786">
        <ele>1155</ele>
        <time>2011-01-06T14:49:15Z</time>
      </trkpt>
      <trkpt lat="45.26691" lon="4.46778">
        <ele>1156</ele>
        <time>2011-01-06T14:49:26Z</time>
      </trkpt>
      <trkpt lat="45.26692" lon="4.46777">
        <ele>1156</ele>
        <time>2011-01-06T14:49:27Z</time>
      </trkpt>
      <trkpt lat="45.26706" lon="4.46768">
        <ele>1156</ele>
        <time>2011-01-06T14:49:42Z</time>
      </trkpt>
      <trkpt lat="45.26713" lon="4.46761">
        <ele>1156</ele>
        <time>2011-01-06T14:49:52Z</time>
      </trkpt>
      <trkpt lat="45.2672" lon="4.46754">
        <ele>1157</ele>
        <time>2011-01-06T14:50:01Z</time>
      </trkpt>
      <trkpt lat="45.26727" lon="4.46746">
        <ele>1160</ele>
        <time>2011-01-06T14:50:13Z</time>
      </trkpt>
      <trkpt lat="45.26732" lon="4.46737">
        <ele>1160</ele>
        <time>2011-01-06T14:50:24Z</time>
      </trkpt>
      <trkpt lat="45.2674" lon="4.46732">
        <ele>1160</ele>
        <time>2011-01-06T14:50:37Z</time>
      </trkpt>
      <trkpt lat="45.26741" lon="4.46732">
        <ele>1160</ele>
        <time>2011-01-06T14:50:38Z</time>
      </trkpt>
      <trkpt lat="45.26755" lon="4.46724">
        <ele>1160</ele>
        <time>2011-01-06T14:51:08Z</time>
      </trkpt>
      <trkpt lat="45.26763" lon="4.46727">
        <ele>1160</ele>
        <time>2011-01-06T14:51:16Z</time>
      </trkpt>
      <trkpt lat="45.26771" lon="4.4673">
        <ele>1160</ele>
        <time>2011-01-06T14:51:25Z</time>
      </trkpt>
      <trkpt lat="45.2678" lon="4.46728">
        <ele>1160</ele>
        <time>2011-01-06T14:51:33Z</time>
      </trkpt>
      <trkpt lat="45.26787" lon="4.46722">
        <ele>1160</ele>
        <time>2011-01-06T14:51:43Z</time>
      </trkpt>
      <trkpt lat="45.26788" lon="4.46722">
        <ele>1160</ele>
        <time>2011-01-06T14:51:44Z</time>
      </trkpt>
      <trkpt lat="45.26801" lon="4.46711">
        <ele>1160</ele>
        <time>2011-01-06T14:51:59Z</time>
      </trkpt>
      <trkpt lat="45.26808" lon="4.46704">
        <ele>1160</ele>
        <time>2011-01-06T14:52:08Z</time>
      </trkpt>
      <trkpt lat="45.26815" lon="4.46697">
        <ele>1160</ele>
        <time>2011-01-06T14:52:18Z</time>
      </trkpt>
      <trkpt lat="45.26821" lon="4.4669">
        <ele>1160</ele>
        <time>2011-01-06T14:52:26Z</time>
      </trkpt>
      <trkpt lat="45.26827" lon="4.46682">
        <ele>1161</ele>
        <time>2011-01-06T14:52:34Z</time>
      </trkpt>
      <trkpt lat="45.26833" lon="4.46673">
        <ele>1160</ele>
        <time>2011-01-06T14:52:43Z</time>
      </trkpt>
      <trkpt lat="45.26839" lon="4.46664">
        <ele>1161</ele>
        <time>2011-01-06T14:52:52Z</time>
      </trkpt>
      <trkpt lat="45.26839" lon="4.46662">
        <ele>1161</ele>
        <time>2011-01-06T14:52:53Z</time>
      </trkpt>
      <trkpt lat="45.26851" lon="4.46646">
        <ele>1160</ele>
        <time>2011-01-06T14:53:08Z</time>
      </trkpt>
      <trkpt lat="45.26856" lon="4.46637">
        <ele>1160</ele>
        <time>2011-01-06T14:53:16Z</time>
      </trkpt>
      <trkpt lat="45.26862" lon="4.46628">
        <ele>1160</ele>
        <time>2011-01-06T14:53:25Z</time>
      </trkpt>
      <trkpt lat="45.26868" lon="4.46619">
        <ele>1160</ele>
        <time>2011-01-06T14:53:35Z</time>
      </trkpt>
      <trkpt lat="45.26873" lon="4.4661">
        <ele>1160</ele>
        <time>2011-01-06T14:53:45Z</time>
      </trkpt>
      <trkpt lat="45.26881" lon="4.46605">
        <ele>1160</ele>
        <time>2011-01-06T14:53:56Z</time>
      </trkpt>
      <trkpt lat="45.26882" lon="4.46604">
        <ele>1160</ele>
        <time>2011-01-06T14:53:57Z</time>
      </trkpt>
      <trkpt lat="45.26893" lon="4.46588">
        <ele>1160</ele>
        <time>2011-01-06T14:54:15Z</time>
      </trkpt>
      <trkpt lat="45.26898" lon="4.46579">
        <ele>1162</ele>
        <time>2011-01-06T14:54:25Z</time>
      </trkpt>
      <trkpt lat="45.26904" lon="4.46569">
        <ele>1162</ele>
        <time>2011-01-06T14:54:35Z</time>
      </trkpt>
      <trkpt lat="45.2691" lon="4.4656">
        <ele>1163</ele>
        <time>2011-01-06T14:54:43Z</time>
      </trkpt>
      <trkpt lat="45.26915" lon="4.46551">
        <ele>1164</ele>
        <time>2011-01-06T14:54:52Z</time>
      </trkpt>
      <trkpt lat="45.2692" lon="4.46541">
        <ele>1162</ele>
        <time>2011-01-06T14:55:00Z</time>
      </trkpt>
      <trkpt lat="45.26921" lon="4.4654">
        <ele>1162</ele>
        <time>2011-01-06T14:55:01Z</time>
      </trkpt>
      <trkpt lat="45.26931" lon="4.46523">
        <ele>1164</ele>
        <time>2011-01-06T14:55:16Z</time>
      </trkpt>
      <trkpt lat="45.26937" lon="4.46514">
        <ele>1164</ele>
        <time>2011-01-06T14:55:24Z</time>
      </trkpt>
      <trkpt lat="45.26942" lon="4.46505">
        <ele>1164</ele>
        <time>2011-01-06T14:55:32Z</time>
      </trkpt>
      <trkpt lat="45.26948" lon="4.46496">
        <ele>1166</ele>
        <time>2011-01-06T14:55:40Z</time>
      </trkpt>
      <trkpt lat="45.26954" lon="4.46488">
        <ele>1166</ele>
        <time>2011-01-06T14:55:48Z</time>
      </trkpt>
      <trkpt lat="45.2696" lon="4.4648">
        <ele>1166</ele>
        <time>2011-01-06T14:55:55Z</time>
      </trkpt>
      <trkpt lat="45.26965" lon="4.46472">
        <ele>1166</ele>
        <time>2011-01-06T14:56:02Z</time>
      </trkpt>
      <trkpt lat="45.26966" lon="4.46471">
        <ele>1166</ele>
        <time>2011-01-06T14:56:03Z</time>
      </trkpt>
      <trkpt lat="45.26977" lon="4.46454">
        <ele>1166</ele>
        <time>2011-01-06T14:56:17Z</time>
      </trkpt>
      <trkpt lat="45.2698" lon="4.46444">
        <ele>1166</ele>
        <time>2011-01-06T14:56:24Z</time>
      </trkpt>
      <trkpt lat="45.26984" lon="4.46434">
        <ele>1167</ele>
        <time>2011-01-06T14:56:31Z</time>
      </trkpt>
      <trkpt lat="45.26987" lon="4.46423">
        <ele>1167</ele>
        <time>2011-01-06T14:56:38Z</time>
      </trkpt>
      <trkpt lat="45.2699" lon="4.46412">
        <ele>1169</ele>
        <time>2011-01-06T14:56:45Z</time>
      </trkpt>
      <trkpt lat="45.26994" lon="4.46402">
        <ele>1169</ele>
        <time>2011-01-06T14:56:52Z</time>
      </trkpt>
      <trkpt lat="45.26998" lon="4.46391">
        <ele>1170</ele>
        <time>2011-01-06T14:56:59Z</time>
      </trkpt>
      <trkpt lat="45.27002" lon="4.46381">
        <ele>1170</ele>
        <time>2011-01-06T14:57:05Z</time>
      </trkpt>
      <trkpt lat="45.27003" lon="4.4638">
        <ele>1170</ele>
        <time>2011-01-06T14:57:06Z</time>
      </trkpt>
      <trkpt lat="45.27011" lon="4.46363">
        <ele>1171</ele>
        <time>2011-01-06T14:57:19Z</time>
      </trkpt>
      <trkpt lat="45.27016" lon="4.46353">
        <ele>1172</ele>
        <time>2011-01-06T14:57:26Z</time>
      </trkpt>
      <trkpt lat="45.27018" lon="4.46342">
        <ele>1172</ele>
        <time>2011-01-06T14:57:33Z</time>
      </trkpt>
      <trkpt lat="45.27019" lon="4.46329">
        <ele>1173</ele>
        <time>2011-01-06T14:57:42Z</time>
      </trkpt>
      <trkpt lat="45.27021" lon="4.46318">
        <ele>1172</ele>
        <time>2011-01-06T14:57:50Z</time>
      </trkpt>
      <trkpt lat="45.27024" lon="4.46306">
        <ele>1172</ele>
        <time>2011-01-06T14:57:57Z</time>
      </trkpt>
      <trkpt lat="45.27025" lon="4.46294">
        <ele>1172</ele>
        <time>2011-01-06T14:58:05Z</time>
      </trkpt>
      <trkpt lat="45.27027" lon="4.46282">
        <ele>1172</ele>
        <time>2011-01-06T14:58:13Z</time>
      </trkpt>
      <trkpt lat="45.27027" lon="4.46281">
        <ele>1172</ele>
        <time>2011-01-06T14:58:14Z</time>
      </trkpt>
      <trkpt lat="45.2703" lon="4.4626">
        <ele>1172</ele>
        <time>2011-01-06T14:58:26Z</time>
      </trkpt>
      <trkpt lat="45.27032" lon="4.46249">
        <ele>1170</ele>
        <time>2011-01-06T14:58:33Z</time>
      </trkpt>
      <trkpt lat="45.27036" lon="4.46238">
        <ele>1169</ele>
        <time>2011-01-06T14:58:41Z</time>
      </trkpt>
      <trkpt lat="45.2704" lon="4.46227">
        <ele>1169</ele>
        <time>2011-01-06T14:58:50Z</time>
      </trkpt>
      <trkpt lat="45.27042" lon="4.46218">
        <ele>1168</ele>
        <time>2011-01-06T14:58:55Z</time>
      </trkpt>
      <trkpt lat="45.27045" lon="4.46208">
        <ele>1168</ele>
        <time>2011-01-06T14:59:00Z</time>
      </trkpt>
      <trkpt lat="45.2705" lon="4.46197">
        <ele>1168</ele>
        <time>2011-01-06T14:59:08Z</time>
      </trkpt>
      <trkpt lat="45.27054" lon="4.46188">
        <ele>1167</ele>
        <time>2011-01-06T14:59:15Z</time>
      </trkpt>
      <trkpt lat="45.27055" lon="4.46186">
        <ele>1167</ele>
        <time>2011-01-06T14:59:16Z</time>
      </trkpt>
      <trkpt lat="45.27064" lon="4.46169">
        <ele>1165</ele>
        <time>2011-01-06T14:59:27Z</time>
      </trkpt>
      <trkpt lat="45.27069" lon="4.46159">
        <ele>1162</ele>
        <time>2011-01-06T14:59:33Z</time>
      </trkpt>
      <trkpt lat="45.27072" lon="4.46149">
        <ele>1162</ele>
        <time>2011-01-06T14:59:39Z</time>
      </trkpt>
      <trkpt lat="45.27076" lon="4.46139">
        <ele>1161</ele>
        <time>2011-01-06T14:59:45Z</time>
      </trkpt>
      <trkpt lat="45.27081" lon="4.46129">
        <ele>1160</ele>
        <time>2011-01-06T14:59:52Z</time>
      </trkpt>
      <trkpt lat="45.27086" lon="4.46119">
        <ele>1158</ele>
        <time>2011-01-06T14:59:59Z</time>
      </trkpt>
      <trkpt lat="45.27091" lon="4.46111">
        <ele>1158</ele>
        <time>2011-01-06T15:00:05Z</time>
      </trkpt>
      <trkpt lat="45.27097" lon="4.46101">
        <ele>1157</ele>
        <time>2011-01-06T15:00:12Z</time>
      </trkpt>
      <trkpt lat="45.27103" lon="4.46094">
        <ele>1157</ele>
        <time>2011-01-06T15:00:18Z</time>
      </trkpt>
      <trkpt lat="45.27104" lon="4.46093">
        <ele>1157</ele>
        <time>2011-01-06T15:00:19Z</time>
      </trkpt>
      <trkpt lat="45.27115" lon="4.46079">
        <ele>1152</ele>
        <time>2011-01-06T15:00:30Z</time>
      </trkpt>
      <trkpt lat="45.27122" lon="4.46071">
        <ele>1151</ele>
        <time>2011-01-06T15:00:37Z</time>
      </trkpt>
      <trkpt lat="45.27128" lon="4.46064">
        <ele>1151</ele>
        <time>2011-01-06T15:00:43Z</time>
      </trkpt>
      <trkpt lat="45.27134" lon="4.46057">
        <ele>1151</ele>
        <time>2011-01-06T15:00:49Z</time>
      </trkpt>
      <trkpt lat="45.27141" lon="4.46051">
        <ele>1151</ele>
        <time>2011-01-06T15:00:55Z</time>
      </trkpt>
      <trkpt lat="45.27147" lon="4.46044">
        <ele>1151</ele>
        <time>2011-01-06T15:01:01Z</time>
      </trkpt>
      <trkpt lat="45.27154" lon="4.46038">
        <ele>1150</ele>
        <time>2011-01-06T15:01:07Z</time>
      </trkpt>
      <trkpt lat="45.27161" lon="4.46033">
        <ele>1150</ele>
        <time>2011-01-06T15:01:13Z</time>
      </trkpt>
      <trkpt lat="45.27168" lon="4.46027">
        <ele>1151</ele>
        <time>2011-01-06T15:01:19Z</time>
      </trkpt>
      <trkpt lat="45.27169" lon="4.46026">
        <ele>1151</ele>
        <time>2011-01-06T15:01:20Z</time>
      </trkpt>
      <trkpt lat="45.27182" lon="4.46012">
        <ele>1150</ele>
        <time>2011-01-06T15:01:33Z</time>
      </trkpt>
      <trkpt lat="45.27188" lon="4.46004">
        <ele>1150</ele>
        <time>2011-01-06T15:01:40Z</time>
      </trkpt>
      <trkpt lat="45.27194" lon="4.45994">
        <ele>1146</ele>
        <time>2011-01-06T15:01:47Z</time>
      </trkpt>
      <trkpt lat="45.27198" lon="4.45984">
        <ele>1146</ele>
        <time>2011-01-06T15:01:54Z</time>
      </trkpt>
      <trkpt lat="45.27203" lon="4.45974">
        <ele>1146</ele>
        <time>2011-01-06T15:02:01Z</time>
      </trkpt>
      <trkpt lat="45.27205" lon="4.45964">
        <ele>1145</ele>
        <time>2011-01-06T15:02:07Z</time>
      </trkpt>
      <trkpt lat="45.2721" lon="4.45953">
        <ele>1145</ele>
        <time>2011-01-06T15:02:14Z</time>
      </trkpt>
      <trkpt lat="45.27214" lon="4.45943">
        <ele>1145</ele>
        <time>2011-01-06T15:02:21Z</time>
      </trkpt>
      <trkpt lat="45.27214" lon="4.45941">
        <ele>1145</ele>
        <time>2011-01-06T15:02:22Z</time>
      </trkpt>
      <trkpt lat="45.27221" lon="4.45922">
        <ele>1145</ele>
        <time>2011-01-06T15:02:34Z</time>
      </trkpt>
      <trkpt lat="45.27225" lon="4.45911">
        <ele>1141</ele>
        <time>2011-01-06T15:02:42Z</time>
      </trkpt>
      <trkpt lat="45.27227" lon="4.459">
        <ele>1140</ele>
        <time>2011-01-06T15:02:48Z</time>
      </trkpt>
      <trkpt lat="45.27231" lon="4.4589">
        <ele>1140</ele>
        <time>2011-01-06T15:02:54Z</time>
      </trkpt>
      <trkpt lat="45.27236" lon="4.4588">
        <ele>1139</ele>
        <time>2011-01-06T15:03:01Z</time>
      </trkpt>
      <trkpt lat="45.27239" lon="4.45869">
        <ele>1139</ele>
        <time>2011-01-06T15:03:08Z</time>
      </trkpt>
      <trkpt lat="45.27242" lon="4.45859">
        <ele>1139</ele>
        <time>2011-01-06T15:03:15Z</time>
      </trkpt>
      <trkpt lat="45.27246" lon="4.45849">
        <ele>1139</ele>
        <time>2011-01-06T15:03:22Z</time>
      </trkpt>
      <trkpt lat="45.27246" lon="4.45847">
        <ele>1139</ele>
        <time>2011-01-06T15:03:23Z</time>
      </trkpt>
      <trkpt lat="45.27256" lon="4.45829">
        <ele>1140</ele>
        <time>2011-01-06T15:03:35Z</time>
      </trkpt>
      <trkpt lat="45.27261" lon="4.45819">
        <ele>1140</ele>
        <time>2011-01-06T15:03:42Z</time>
      </trkpt>
      <trkpt lat="45.27265" lon="4.45808">
        <ele>1140</ele>
        <time>2011-01-06T15:03:49Z</time>
      </trkpt>
      <trkpt lat="45.27269" lon="4.45799">
        <ele>1140</ele>
        <time>2011-01-06T15:03:55Z</time>
      </trkpt>
      <trkpt lat="45.27274" lon="4.45789">
        <ele>1140</ele>
        <time>2011-01-06T15:04:01Z</time>
      </trkpt>
      <trkpt lat="45.27279" lon="4.45778">
        <ele>1139</ele>
        <time>2011-01-06T15:04:08Z</time>
      </trkpt>
      <trkpt lat="45.27283" lon="4.45768">
        <ele>1139</ele>
        <time>2011-01-06T15:04:15Z</time>
      </trkpt>
      <trkpt lat="45.27288" lon="4.45758">
        <ele>1139</ele>
        <time>2011-01-06T15:04:22Z</time>
      </trkpt>
      <trkpt lat="45.27292" lon="4.45746">
        <ele>1134</ele>
        <time>2011-01-06T15:04:30Z</time>
      </trkpt>
      <trkpt lat="45.27292" lon="4.45744">
        <ele>1134</ele>
        <time>2011-01-06T15:04:31Z</time>
      </trkpt>
      <trkpt lat="45.273" lon="4.45727">
        <ele>1134</ele>
        <time>2011-01-06T15:04:43Z</time>
      </trkpt>
      <trkpt lat="45.27305" lon="4.45718">
        <ele>1134</ele>
        <time>2011-01-06T15:04:49Z</time>
      </trkpt>
      <trkpt lat="45.27309" lon="4.45708">
        <ele>1133</ele>
        <time>2011-01-06T15:04:56Z</time>
      </trkpt>
      <trkpt lat="45.27314" lon="4.45698">
        <ele>1133</ele>
        <time>2011-01-06T15:05:03Z</time>
      </trkpt>
      <trkpt lat="45.27318" lon="4.45688">
        <ele>1133</ele>
        <time>2011-01-06T15:05:11Z</time>
      </trkpt>
      <trkpt lat="45.27322" lon="4.45678">
        <ele>1134</ele>
        <time>2011-01-06T15:05:17Z</time>
      </trkpt>
      <trkpt lat="45.27327" lon="4.45667">
        <ele>1134</ele>
        <time>2011-01-06T15:05:24Z</time>
      </trkpt>
      <trkpt lat="45.2733" lon="4.45658">
        <ele>1131</ele>
        <time>2011-01-06T15:05:31Z</time>
      </trkpt>
      <trkpt lat="45.27331" lon="4.45656">
        <ele>1130</ele>
        <time>2011-01-06T15:05:32Z</time>
      </trkpt>
      <trkpt lat="45.2734" lon="4.45639">
        <ele>1136</ele>
        <time>2011-01-06T15:05:43Z</time>
      </trkpt>
      <trkpt lat="45.27346" lon="4.45631">
        <ele>1136</ele>
        <time>2011-01-06T15:05:48Z</time>
      </trkpt>
      <trkpt lat="45.27352" lon="4.45622">
        <ele>1136</ele>
        <time>2011-01-06T15:05:55Z</time>
      </trkpt>
      <trkpt lat="45.27357" lon="4.45612">
        <ele>1135</ele>
        <time>2011-01-06T15:06:02Z</time>
      </trkpt>
      <trkpt lat="45.27363" lon="4.45605">
        <ele>1135</ele>
        <time>2011-01-06T15:06:09Z</time>
      </trkpt>
      <trkpt lat="45.27369" lon="4.45596">
        <ele>1136</ele>
        <time>2011-01-06T15:06:16Z</time>
      </trkpt>
      <trkpt lat="45.27375" lon="4.45587">
        <ele>1136</ele>
        <time>2011-01-06T15:06:22Z</time>
      </trkpt>
      <trkpt lat="45.27379" lon="4.45578">
        <ele>1127</ele>
        <time>2011-01-06T15:06:28Z</time>
      </trkpt>
      <trkpt lat="45.27383" lon="4.45568">
        <ele>1127</ele>
        <time>2011-01-06T15:06:33Z</time>
      </trkpt>
      <trkpt lat="45.27383" lon="4.45566">
        <ele>1127</ele>
        <time>2011-01-06T15:06:34Z</time>
      </trkpt>
      <trkpt lat="45.27393" lon="4.4555">
        <ele>1126</ele>
        <time>2011-01-06T15:06:47Z</time>
      </trkpt>
      <trkpt lat="45.27399" lon="4.4554">
        <ele>1125</ele>
        <time>2011-01-06T15:06:54Z</time>
      </trkpt>
      <trkpt lat="45.27405" lon="4.45533">
        <ele>1125</ele>
        <time>2011-01-06T15:07:00Z</time>
      </trkpt>
      <trkpt lat="45.27412" lon="4.45525">
        <ele>1124</ele>
        <time>2011-01-06T15:07:07Z</time>
      </trkpt>
      <trkpt lat="45.27418" lon="4.45517">
        <ele>1131</ele>
        <time>2011-01-06T15:07:14Z</time>
      </trkpt>
      <trkpt lat="45.27424" lon="4.45509">
        <ele>1129</ele>
        <time>2011-01-06T15:07:20Z</time>
      </trkpt>
      <trkpt lat="45.27431" lon="4.45502">
        <ele>1130</ele>
        <time>2011-01-06T15:07:28Z</time>
      </trkpt>
      <trkpt lat="45.27437" lon="4.45495">
        <ele>1124</ele>
        <time>2011-01-06T15:07:34Z</time>
      </trkpt>
      <trkpt lat="45.27437" lon="4.45493">
        <ele>1124</ele>
        <time>2011-01-06T15:07:35Z</time>
      </trkpt>
      <trkpt lat="45.27448" lon="4.45477">
        <ele>1124</ele>
        <time>2011-01-06T15:07:47Z</time>
      </trkpt>
      <trkpt lat="45.27454" lon="4.45468">
        <ele>1124</ele>
        <time>2011-01-06T15:07:55Z</time>
      </trkpt>
      <trkpt lat="45.27459" lon="4.45459">
        <ele>1124</ele>
        <time>2011-01-06T15:08:01Z</time>
      </trkpt>
      <trkpt lat="45.27467" lon="4.45454">
        <ele>1124</ele>
        <time>2011-01-06T15:08:07Z</time>
      </trkpt>
      <trkpt lat="45.27472" lon="4.45446">
        <ele>1124</ele>
        <time>2011-01-06T15:08:13Z</time>
      </trkpt>
      <trkpt lat="45.27476" lon="4.45437">
        <ele>1124</ele>
        <time>2011-01-06T15:08:19Z</time>
      </trkpt>
      <trkpt lat="45.27482" lon="4.45428">
        <ele>1124</ele>
        <time>2011-01-06T15:08:25Z</time>
      </trkpt>
      <trkpt lat="45.27488" lon="4.4542">
        <ele>1124</ele>
        <time>2011-01-06T15:08:31Z</time>
      </trkpt>
      <trkpt lat="45.27495" lon="4.45412">
        <ele>1121</ele>
        <time>2011-01-06T15:08:38Z</time>
      </trkpt>
      <trkpt lat="45.27495" lon="4.45412">
        <ele>1121</ele>
        <time>2011-01-06T15:08:39Z</time>
      </trkpt>
      <trkpt lat="45.27507" lon="4.45396">
        <ele>1126</ele>
        <time>2011-01-06T15:08:51Z</time>
      </trkpt>
      <trkpt lat="45.27509" lon="4.45387">
        <ele>1126</ele>
        <time>2011-01-06T15:08:56Z</time>
      </trkpt>
      <trkpt lat="45.27514" lon="4.45377">
        <ele>1125</ele>
        <time>2011-01-06T15:09:00Z</time>
      </trkpt>
      <trkpt lat="45.27518" lon="4.45366">
        <ele>1124</ele>
        <time>2011-01-06T15:09:07Z</time>
      </trkpt>
      <trkpt lat="45.27522" lon="4.45355">
        <ele>1123</ele>
        <time>2011-01-06T15:09:14Z</time>
      </trkpt>
      <trkpt lat="45.27528" lon="4.45347">
        <ele>1123</ele>
        <time>2011-01-06T15:09:21Z</time>
      </trkpt>
      <trkpt lat="45.27533" lon="4.45337">
        <ele>1123</ele>
        <time>2011-01-06T15:09:28Z</time>
      </trkpt>
      <trkpt lat="45.27538" lon="4.45327">
        <ele>1114</ele>
        <time>2011-01-06T15:09:36Z</time>
      </trkpt>
      <trkpt lat="45.27543" lon="4.45318">
        <ele>1115</ele>
        <time>2011-01-06T15:09:43Z</time>
      </trkpt>
      <trkpt lat="45.27544" lon="4.45316">
        <ele>1115</ele>
        <time>2011-01-06T15:09:44Z</time>
      </trkpt>
      <trkpt lat="45.27552" lon="4.45299">
        <ele>1114</ele>
        <time>2011-01-06T15:09:56Z</time>
      </trkpt>
      <trkpt lat="45.27555" lon="4.45289">
        <ele>1113</ele>
        <time>2011-01-06T15:10:02Z</time>
      </trkpt>
      <trkpt lat="45.27556" lon="4.45277">
        <ele>1112</ele>
        <time>2011-01-06T15:10:08Z</time>
      </trkpt>
      <trkpt lat="45.27561" lon="4.45267">
        <ele>1112</ele>
        <time>2011-01-06T15:10:15Z</time>
      </trkpt>
      <trkpt lat="45.27565" lon="4.45257">
        <ele>1112</ele>
        <time>2011-01-06T15:10:22Z</time>
      </trkpt>
      <trkpt lat="45.27568" lon="4.45246">
        <ele>1106</ele>
        <time>2011-01-06T15:10:29Z</time>
      </trkpt>
      <trkpt lat="45.27573" lon="4.45237">
        <ele>1105</ele>
        <time>2011-01-06T15:10:34Z</time>
      </trkpt>
      <trkpt lat="45.27578" lon="4.45227">
        <ele>1103</ele>
        <time>2011-01-06T15:10:41Z</time>
      </trkpt>
      <trkpt lat="45.27583" lon="4.45219">
        <ele>1113</ele>
        <time>2011-01-06T15:10:47Z</time>
      </trkpt>
      <trkpt lat="45.27585" lon="4.45218">
        <ele>1113</ele>
        <time>2011-01-06T15:10:48Z</time>
      </trkpt>
      <trkpt lat="45.27595" lon="4.45203">
        <ele>1111</ele>
        <time>2011-01-06T15:11:02Z</time>
      </trkpt>
      <trkpt lat="45.27601" lon="4.45193">
        <ele>1110</ele>
        <time>2011-01-06T15:11:11Z</time>
      </trkpt>
      <trkpt lat="45.27607" lon="4.45186">
        <ele>1110</ele>
        <time>2011-01-06T15:11:18Z</time>
      </trkpt>
      <trkpt lat="45.27613" lon="4.45177">
        <ele>1110</ele>
        <time>2011-01-06T15:11:26Z</time>
      </trkpt>
      <trkpt lat="45.27619" lon="4.45171">
        <ele>1111</ele>
        <time>2011-01-06T15:11:32Z</time>
      </trkpt>
      <trkpt lat="45.27626" lon="4.45162">
        <ele>1100</ele>
        <time>2011-01-06T15:11:39Z</time>
      </trkpt>
      <trkpt lat="45.27632" lon="4.45155">
        <ele>1100</ele>
        <time>2011-01-06T15:11:46Z</time>
      </trkpt>
      <trkpt lat="45.27637" lon="4.45147">
        <ele>1100</ele>
        <time>2011-01-06T15:11:52Z</time>
      </trkpt>
      <trkpt lat="45.27639" lon="4.45145">
        <ele>1100</ele>
        <time>2011-01-06T15:11:53Z</time>
      </trkpt>
      <trkpt lat="45.2765" lon="4.45134">
        <ele>1100</ele>
        <time>2011-01-06T15:12:03Z</time>
      </trkpt>
      <trkpt lat="45.27656" lon="4.45129">
        <ele>1099</ele>
        <time>2011-01-06T15:12:08Z</time>
      </trkpt>
      <trkpt lat="45.27663" lon="4.45122">
        <ele>1098</ele>
        <time>2011-01-06T15:12:14Z</time>
      </trkpt>
      <trkpt lat="45.27671" lon="4.45115">
        <ele>1108</ele>
        <time>2011-01-06T15:12:22Z</time>
      </trkpt>
      <trkpt lat="45.27678" lon="4.45108">
        <ele>1107</ele>
        <time>2011-01-06T15:12:29Z</time>
      </trkpt>
      <trkpt lat="45.27684" lon="4.45101">
        <ele>1106</ele>
        <time>2011-01-06T15:12:36Z</time>
      </trkpt>
      <trkpt lat="45.27691" lon="4.45092">
        <ele>1107</ele>
        <time>2011-01-06T15:12:44Z</time>
      </trkpt>
      <trkpt lat="45.27697" lon="4.45083">
        <ele>1095</ele>
        <time>2011-01-06T15:12:51Z</time>
      </trkpt>
      <trkpt lat="45.27702" lon="4.45076">
        <ele>1096</ele>
        <time>2011-01-06T15:12:57Z</time>
      </trkpt>
      <trkpt lat="45.27704" lon="4.45074">
        <ele>1096</ele>
        <time>2011-01-06T15:12:58Z</time>
      </trkpt>
      <trkpt lat="45.27713" lon="4.4506">
        <ele>1096</ele>
        <time>2011-01-06T15:13:10Z</time>
      </trkpt>
      <trkpt lat="45.27721" lon="4.45053">
        <ele>1096</ele>
        <time>2011-01-06T15:13:16Z</time>
      </trkpt>
      <trkpt lat="45.27728" lon="4.45047">
        <ele>1096</ele>
        <time>2011-01-06T15:13:22Z</time>
      </trkpt>
      <trkpt lat="45.27734" lon="4.4504">
        <ele>1095</ele>
        <time>2011-01-06T15:13:29Z</time>
      </trkpt>
      <trkpt lat="45.27742" lon="4.45034">
        <ele>1094</ele>
        <time>2011-01-06T15:13:37Z</time>
      </trkpt>
      <trkpt lat="45.27749" lon="4.45027">
        <ele>1093</ele>
        <time>2011-01-06T15:13:44Z</time>
      </trkpt>
      <trkpt lat="45.27754" lon="4.45018">
        <ele>1098</ele>
        <time>2011-01-06T15:13:54Z</time>
      </trkpt>
      <trkpt lat="45.27761" lon="4.45012">
        <ele>1097</ele>
        <time>2011-01-06T15:14:00Z</time>
      </trkpt>
      <trkpt lat="45.27763" lon="4.45011">
        <ele>1097</ele>
        <time>2011-01-06T15:14:01Z</time>
      </trkpt>
      <trkpt lat="45.27777" lon="4.45001">
        <ele>1099</ele>
        <time>2011-01-06T15:14:13Z</time>
      </trkpt>
      <trkpt lat="45.27784" lon="4.44995">
        <ele>1087</ele>
        <time>2011-01-06T15:14:19Z</time>
      </trkpt>
      <trkpt lat="45.27791" lon="4.44991">
        <ele>1088</ele>
        <time>2011-01-06T15:14:26Z</time>
      </trkpt>
      <trkpt lat="45.27799" lon="4.44985">
        <ele>1088</ele>
        <time>2011-01-06T15:14:33Z</time>
      </trkpt>
      <trkpt lat="45.27806" lon="4.44979">
        <ele>1088</ele>
        <time>2011-01-06T15:14:39Z</time>
      </trkpt>
      <trkpt lat="45.27813" lon="4.44973">
        <ele>1088</ele>
        <time>2011-01-06T15:14:46Z</time>
      </trkpt>
      <trkpt lat="45.2782" lon="4.44967">
        <ele>1088</ele>
        <time>2011-01-06T15:14:53Z</time>
      </trkpt>
      <trkpt lat="45.27827" lon="4.44962">
        <ele>1087</ele>
        <time>2011-01-06T15:14:59Z</time>
      </trkpt>
      <trkpt lat="45.27834" lon="4.44956">
        <ele>1090</ele>
        <time>2011-01-06T15:15:05Z</time>
      </trkpt>
      <trkpt lat="45.27835" lon="4.44955">
        <ele>1090</ele>
        <time>2011-01-06T15:15:06Z</time>
      </trkpt>
      <trkpt lat="45.2785" lon="4.44946">
        <ele>1089</ele>
        <time>2011-01-06T15:15:19Z</time>
      </trkpt>
      <trkpt lat="45.27857" lon="4.4494">
        <ele>1088</ele>
        <time>2011-01-06T15:15:27Z</time>
      </trkpt>
      <trkpt lat="45.27864" lon="4.44934">
        <ele>1088</ele>
        <time>2011-01-06T15:15:34Z</time>
      </trkpt>
      <trkpt lat="45.27872" lon="4.44928">
        <ele>1088</ele>
        <time>2011-01-06T15:15:40Z</time>
      </trkpt>
      <trkpt lat="45.27879" lon="4.44923">
        <ele>1088</ele>
        <time>2011-01-06T15:15:47Z</time>
      </trkpt>
      <trkpt lat="45.27887" lon="4.44918">
        <ele>1088</ele>
        <time>2011-01-06T15:15:54Z</time>
      </trkpt>
      <trkpt lat="45.27895" lon="4.44913">
        <ele>1081</ele>
        <time>2011-01-06T15:16:01Z</time>
      </trkpt>
      <trkpt lat="45.27903" lon="4.44909">
        <ele>1081</ele>
        <time>2011-01-06T15:16:08Z</time>
      </trkpt>
      <trkpt lat="45.27904" lon="4.44909">
        <ele>1081</ele>
        <time>2011-01-06T15:16:09Z</time>
      </trkpt>
      <trkpt lat="45.27919" lon="4.44903">
        <ele>1083</ele>
        <time>2011-01-06T15:16:22Z</time>
      </trkpt>
      <trkpt lat="45.27927" lon="4.44898">
        <ele>1082</ele>
        <time>2011-01-06T15:16:30Z</time>
      </trkpt>
      <trkpt lat="45.27935" lon="4.44894">
        <ele>1081</ele>
        <time>2011-01-06T15:16:38Z</time>
      </trkpt>
      <trkpt lat="45.27943" lon="4.44891">
        <ele>1081</ele>
        <time>2011-01-06T15:16:45Z</time>
      </trkpt>
      <trkpt lat="45.2795" lon="4.44888">
        <ele>1080</ele>
        <time>2011-01-06T15:16:51Z</time>
      </trkpt>
      <trkpt lat="45.27959" lon="4.44885">
        <ele>1080</ele>
        <time>2011-01-06T15:16:59Z</time>
      </trkpt>
      <trkpt lat="45.27967" lon="4.44881">
        <ele>1080</ele>
        <time>2011-01-06T15:17:07Z</time>
      </trkpt>
      <trkpt lat="45.27975" lon="4.44878">
        <ele>1080</ele>
        <time>2011-01-06T15:17:14Z</time>
      </trkpt>
      <trkpt lat="45.27977" lon="4.44878">
        <ele>1080</ele>
        <time>2011-01-06T15:17:15Z</time>
      </trkpt>
      <trkpt lat="45.27992" lon="4.44874">
        <ele>1079</ele>
        <time>2011-01-06T15:17:28Z</time>
      </trkpt>
      <trkpt lat="45.28" lon="4.44871">
        <ele>1078</ele>
        <time>2011-01-06T15:17:34Z</time>
      </trkpt>
      <trkpt lat="45.28008" lon="4.44868">
        <ele>1078</ele>
        <time>2011-01-06T15:17:40Z</time>
      </trkpt>
      <trkpt lat="45.28016" lon="4.44865">
        <ele>1078</ele>
        <time>2011-01-06T15:17:47Z</time>
      </trkpt>
      <trkpt lat="45.28025" lon="4.44862">
        <ele>1077</ele>
        <time>2011-01-06T15:17:54Z</time>
      </trkpt>
      <trkpt lat="45.28033" lon="4.4486">
        <ele>1077</ele>
        <time>2011-01-06T15:18:01Z</time>
      </trkpt>
      <trkpt lat="45.28041" lon="4.44857">
        <ele>1077</ele>
        <time>2011-01-06T15:18:08Z</time>
      </trkpt>
      <trkpt lat="45.2805" lon="4.44854">
        <ele>1077</ele>
        <time>2011-01-06T15:18:16Z</time>
      </trkpt>
      <trkpt lat="45.28051" lon="4.44854">
        <ele>1077</ele>
        <time>2011-01-06T15:18:17Z</time>
      </trkpt>
      <trkpt lat="45.28066" lon="4.44848">
        <ele>1076</ele>
        <time>2011-01-06T15:18:30Z</time>
      </trkpt>
      <trkpt lat="45.28074" lon="4.44845">
        <ele>1075</ele>
        <time>2011-01-06T15:18:37Z</time>
      </trkpt>
      <trkpt lat="45.28082" lon="4.44842">
        <ele>1074</ele>
        <time>2011-01-06T15:18:43Z</time>
      </trkpt>
      <trkpt lat="45.2809" lon="4.4484">
        <ele>1073</ele>
        <time>2011-01-06T15:18:50Z</time>
      </trkpt>
      <trkpt lat="45.28097" lon="4.44837">
        <ele>1074</ele>
        <time>2011-01-06T15:18:57Z</time>
      </trkpt>
      <trkpt lat="45.28106" lon="4.44833">
        <ele>1069</ele>
        <time>2011-01-06T15:19:04Z</time>
      </trkpt>
      <trkpt lat="45.28113" lon="4.4483">
        <ele>1069</ele>
        <time>2011-01-06T15:19:10Z</time>
      </trkpt>
      <trkpt lat="45.28121" lon="4.44827">
        <ele>1069</ele>
        <time>2011-01-06T15:19:16Z</time>
      </trkpt>
      <trkpt lat="45.2813" lon="4.44825">
        <ele>1069</ele>
        <time>2011-01-06T15:19:23Z</time>
      </trkpt>
      <trkpt lat="45.28131" lon="4.44824">
        <ele>1069</ele>
        <time>2011-01-06T15:19:24Z</time>
      </trkpt>
      <trkpt lat="45.28147" lon="4.44821">
        <ele>1069</ele>
        <time>2011-01-06T15:19:37Z</time>
      </trkpt>
      <trkpt lat="45.28155" lon="4.4482">
        <ele>1069</ele>
        <time>2011-01-06T15:19:44Z</time>
      </trkpt>
      <trkpt lat="45.28162" lon="4.44821">
        <ele>1069</ele>
        <time>2011-01-06T15:19:50Z</time>
      </trkpt>
      <trkpt lat="45.2817" lon="4.44821">
        <ele>1069</ele>
        <time>2011-01-06T15:19:56Z</time>
      </trkpt>
      <trkpt lat="45.28179" lon="4.44821">
        <ele>1069</ele>
        <time>2011-01-06T15:20:03Z</time>
      </trkpt>
      <trkpt lat="45.28186" lon="4.4482">
        <ele>1069</ele>
        <time>2011-01-06T15:20:09Z</time>
      </trkpt>
      <trkpt lat="45.28195" lon="4.44821">
        <ele>1068</ele>
        <time>2011-01-06T15:20:15Z</time>
      </trkpt>
      <trkpt lat="45.28202" lon="4.44819">
        <ele>1068</ele>
        <time>2011-01-06T15:20:21Z</time>
      </trkpt>
      <trkpt lat="45.2821" lon="4.44816">
        <ele>1068</ele>
        <time>2011-01-06T15:20:28Z</time>
      </trkpt>
      <trkpt lat="45.28212" lon="4.44816">
        <ele>1068</ele>
        <time>2011-01-06T15:20:29Z</time>
      </trkpt>
      <trkpt lat="45.28226" lon="4.44808">
        <ele>1068</ele>
        <time>2011-01-06T15:20:41Z</time>
      </trkpt>
      <trkpt lat="45.28234" lon="4.44803">
        <ele>1068</ele>
        <time>2011-01-06T15:20:47Z</time>
      </trkpt>
      <trkpt lat="45.28241" lon="4.44798">
        <ele>1067</ele>
        <time>2011-01-06T15:20:54Z</time>
      </trkpt>
      <trkpt lat="45.28249" lon="4.44792">
        <ele>1067</ele>
        <time>2011-01-06T15:21:02Z</time>
      </trkpt>
      <trkpt lat="45.28257" lon="4.44788">
        <ele>1068</ele>
        <time>2011-01-06T15:21:10Z</time>
      </trkpt>
      <trkpt lat="45.28265" lon="4.44784">
        <ele>1068</ele>
        <time>2011-01-06T15:21:16Z</time>
      </trkpt>
      <trkpt lat="45.28272" lon="4.4478">
        <ele>1068</ele>
        <time>2011-01-06T15:21:22Z</time>
      </trkpt>
      <trkpt lat="45.2828" lon="4.44776">
        <ele>1068</ele>
        <time>2011-01-06T15:21:30Z</time>
      </trkpt>
      <trkpt lat="45.28281" lon="4.44775">
        <ele>1068</ele>
        <time>2011-01-06T15:21:31Z</time>
      </trkpt>
      <trkpt lat="45.28296" lon="4.44767">
        <ele>1068</ele>
        <time>2011-01-06T15:21:45Z</time>
      </trkpt>
      <trkpt lat="45.28304" lon="4.44763">
        <ele>1068</ele>
        <time>2011-01-06T15:21:52Z</time>
      </trkpt>
      <trkpt lat="45.28312" lon="4.44758">
        <ele>1068</ele>
        <time>2011-01-06T15:21:59Z</time>
      </trkpt>
      <trkpt lat="45.2832" lon="4.44753">
        <ele>1067</ele>
        <time>2011-01-06T15:22:06Z</time>
      </trkpt>
      <trkpt lat="45.28327" lon="4.44748">
        <ele>1065</ele>
        <time>2011-01-06T15:22:13Z</time>
      </trkpt>
      <trkpt lat="45.28335" lon="4.44743">
        <ele>1066</ele>
        <time>2011-01-06T15:22:20Z</time>
      </trkpt>
      <trkpt lat="45.28342" lon="4.44738">
        <ele>1067</ele>
        <time>2011-01-06T15:22:26Z</time>
      </trkpt>
      <trkpt lat="45.28348" lon="4.4473">
        <ele>1067</ele>
        <time>2011-01-06T15:22:33Z</time>
      </trkpt>
      <trkpt lat="45.28349" lon="4.44729">
        <ele>1067</ele>
        <time>2011-01-06T15:22:34Z</time>
      </trkpt>
      <trkpt lat="45.28357" lon="4.44712">
        <ele>1067</ele>
        <time>2011-01-06T15:22:45Z</time>
      </trkpt>
      <trkpt lat="45.28361" lon="4.44702">
        <ele>1067</ele>
        <time>2011-01-06T15:22:51Z</time>
      </trkpt>
      <trkpt lat="45.28363" lon="4.44691">
        <ele>1066</ele>
        <time>2011-01-06T15:22:57Z</time>
      </trkpt>
      <trkpt lat="45.28365" lon="4.4468">
        <ele>1066</ele>
        <time>2011-01-06T15:23:03Z</time>
      </trkpt>
      <trkpt lat="45.28366" lon="4.44669">
        <ele>1066</ele>
        <time>2011-01-06T15:23:10Z</time>
      </trkpt>
      <trkpt lat="45.28367" lon="4.44656">
        <ele>1065</ele>
        <time>2011-01-06T15:23:18Z</time>
      </trkpt>
      <trkpt lat="45.28367" lon="4.44644">
        <ele>1065</ele>
        <time>2011-01-06T15:23:26Z</time>
      </trkpt>
      <trkpt lat="45.28368" lon="4.44631">
        <ele>1065</ele>
        <time>2011-01-06T15:23:34Z</time>
      </trkpt>
      <trkpt lat="45.28368" lon="4.4463">
        <ele>1065</ele>
        <time>2011-01-06T15:23:35Z</time>
      </trkpt>
      <trkpt lat="45.2837" lon="4.44607">
        <ele>1065</ele>
        <time>2011-01-06T15:23:50Z</time>
      </trkpt>
      <trkpt lat="45.28371" lon="4.44595">
        <ele>1065</ele>
        <time>2011-01-06T15:23:58Z</time>
      </trkpt>
      <trkpt lat="45.28371" lon="4.44582">
        <ele>1066</ele>
        <time>2011-01-06T15:24:06Z</time>
      </trkpt>
      <trkpt lat="45.28373" lon="4.4457">
        <ele>1066</ele>
        <time>2011-01-06T15:24:14Z</time>
      </trkpt>
      <trkpt lat="45.28372" lon="4.44558">
        <ele>1066</ele>
        <time>2011-01-06T15:24:29Z</time>
      </trkpt>
      <trkpt lat="45.28372" lon="4.44546">
        <ele>1066</ele>
        <time>2011-01-06T15:24:39Z</time>
      </trkpt>
      <trkpt lat="45.28372" lon="4.44545">
        <ele>1066</ele>
        <time>2011-01-06T15:24:40Z</time>
      </trkpt>
    </trkseg>
  </trk>
</gpx>